[[{"header":{"parameterUnit":"m.s-1","parameterCategory":1,"la1":30.6,"la2":28.766,"lo1":-90.7593,"lo2":-88.6598,"dy":0.0162,"dx":0.0183,"nx":116,"ny":114,"refTime":"2023-05-21T00:00:00:Z","depth":0,"parameterNumber":2,"parameterNumberName":"U-component_of_WINDS"},"data":[0.0,0.0,0.0,0.0,0.0,0.0,0.0,0.0,0.0,0.0,0.0,0.0,0.0,0.0,0.0,0.0,0.0,0.0,0.0,0.0,0.0,0.0,0.0,0.0,0.0,0.0,0.0,0.0,0.0,0.0,0.0,0.0,0.0,0.0,0.0,0.0,0.0,0.0,0.0,0.0,0.0,0.0,0.0,0.0,0.0,0.0,0.0,0.0,0.0,0.0,0.0,0.0,0.0,0.0,0.0,0.0,0.0,0.0,0.0,0.0,0.0,0.0,0.0,0.0,0.0,0.0,0.0,0.0,0.0,0.0,0.0,0.0,0.0,0.0,0.0,0.0,0.0,0.0,0.0,0.0,0.0,0.0,0.0,0.0,0.0,0.0,0.0,0.0,0.0,0.0,0.0,0.0,0.0,0.0,0.0,0.0,0.0,0.0,0.0,0.0,0.0,0.0,0.0,0.0,0.0,0.0,0.0,0.0,0.0,0.0,0.0,0.0,0.0,0.0,0.0,0.0,0.0,0.0,0.0,0.0,0.0,0.0,0.0,0.0,0.0,0.0,0.0,0.0,0.0,0.0,0.0,0.0,0.0,0.0,0.0,0.0,0.0,0.0,0.0,0.0,0.0,0.0,0.0,0.0,0.0,0.0,0.0,0.0,0.0,0.0,0.0,0.0,0.0,0.0,0.0,0.0,0.0,0.0,0.0,0.0,0.0,0.0,0.0,0.0,0.0,0.0,0.0,0.0,0.0,0.0,0.0,0.0,0.0,0.0,0.0,0.0,0.0,0.0,0.0,0.0,0.0,0.0,0.0,0.0,0.0,0.0,0.0,0.0,0.0,0.0,0.0,0.0,0.0,0.0,0.0,0.0,0.0,0.0,0.0,0.0,0.0,0.0,0.0,0.0,0.0,0.0,0.0,0.0,0.0,0.0,0.0,0.0,0.0,0.0,0.0,0.0,0.0,0.0,0.0,0.0,0.0,0.0,0.0,0.0,0.0,0.0,0.0,0.0,0.0,0.0,0.0,0.0,0.0,0.0,0.0,0.0,0.0,0.0,0.0,0.0,0.0,0.0,0.0,0.0,0.0,0.0,0.0,0.0,0.0,0.0,0.0,0.0,0.0,0.0,0.0,0.0,0.0,0.0,0.0,0.0,0.0,0.0,0.0,0.0,0.0,0.0,0.0,0.0,0.0,0.0,0.0,0.0,0.0,0.0,0.0,0.0,0.0,0.0,0.0,0.0,0.0,0.0,0.0,0.0,0.0,0.0,0.0,0.0,0.0,0.0,0.0,0.0,0.0,0.0,0.0,0.0,0.0,0.0,0.0,0.0,0.0,0.0,0.0,0.0,0.0,0.0,0.0,0.0,0.0,0.0,0.0,0.0,0.0,0.0,0.0,0.0,0.0,0.0,0.0,0.0,0.0,0.0,0.0,0.0,0.0,0.0,0.0,0.0,0.0,0.0,0.0,0.0,0.0,0.0,0.0,0.0,0.0,0.0,0.0,0.0,0.0,0.0,0.0,0.0,0.0,0.0,0.0,0.0,0.0,0.0,0.0,0.0,0.0,0.0,0.0,0.0,0.0,0.0,0.0,0.0,0.0,0.0,0.0,0.0,0.0,0.0,0.0,0.0,0.0,0.0,0.0,0.0,0.0,0.0,0.0,0.0,0.0,0.0,0.0,0.0,0.0,0.0,0.0,0.0,0.0,0.0,0.0,0.0,0.0,0.0,0.0,0.0,0.0,0.0,0.0,0.0,0.0,0.0,0.0,0.0,0.0,0.0,0.0,0.0,0.0,0.0,0.0,0.0,0.0,0.0,0.0,0.0,0.0,0.0,0.0,0.0,0.0,0.0,0.0,0.0,0.0,0.0,0.0,0.0,0.0,0.0,0.0,0.0,0.0,0.0,0.0,0.0,0.0,0.0,0.0,0.0,0.0,0.0,0.0,0.0,0.0,0.0,0.0,0.0,0.0,0.0,0.0,0.0,0.0,0.0,0.0,0.0,0.0,0.0,0.0,0.0,0.0,0.0,0.0,0.0,0.0,0.0,0.0,0.0,0.0,0.0,0.0,0.0,0.0,0.0,0.0,0.0,0.0,0.0,0.0,0.0,0.0,0.0,0.0,0.0,0.0,0.0,0.0,0.0,0.0,0.0,0.0,0.0,0.0,0.0,0.0,0.0,0.0,0.0,0.0,0.0,0.0,0.0,0.0,0.0,0.0,0.0,0.0,0.0,0.0,0.0,0.0,0.0,0.0,0.0,0.0,0.0,0.0,0.0,0.0,0.0,0.0,0.0,0.0,0.0,0.0,0.0,0.0,0.0,0.0,0.0,0.0,0.0,0.0,0.0,0.0,0.0,0.0,0.0,0.0,0.0,0.0,0.0,0.0,0.0,0.0,0.0,0.0,0.0,0.0,0.0,0.0,0.0,0.0,0.0,0.0,0.0,0.0,0.0,0.0,0.0,0.0,0.0,0.0,0.0,0.0,0.0,0.0,0.0,0.0,0.0,0.0,0.0,0.0,0.0,0.0,0.0,0.0,0.0,0.0,0.0,0.0,0.0,0.0,0.0,0.0,0.0,0.0,0.0,0.0,0.0,0.0,0.0,0.0,0.0,0.0,0.0,0.0,0.0,0.0,0.0,0.0,0.0,0.0,0.0,0.0,0.0,0.0,0.0,0.0,0.0,0.0,0.0,0.0,0.0,0.0,0.0,0.0,0.0,0.0,0.0,0.0,0.0,0.0,0.0,0.0,0.0,0.0,0.0,0.0,0.0,0.0,0.0,0.0,0.0,0.0,0.0,0.0,0.0,0.0,0.0,0.0,0.0,0.0,0.0,0.0,0.0,0.0,0.0,0.0,0.0,0.0,0.0,0.0,0.0,0.0,0.0,0.0,0.0,0.0,0.0,0.0,0.0,0.0,0.0,0.0,0.0,0.0,0.0,0.0,0.0,0.0,0.0,0.0,0.0,0.0,0.0,0.0,0.0,0.0,0.0,0.0,0.0,0.0,0.0,0.0,0.0,0.0,0.0,0.0,0.0,0.0,0.0,0.0,0.0,0.0,0.0,0.0,0.0,0.0,0.0,0.0,0.0,0.0,0.0,0.0,0.0,0.0,0.0,0.0,0.0,0.0,0.0,0.0,0.0,0.0,0.0,0.0,0.0,0.0,0.0,0.0,0.0,0.0,0.0,0.0,0.0,0.0,0.0,0.0,0.0,0.0,0.0,0.0,0.0,0.0,0.0,0.0,0.0,0.0,0.0,0.0,0.0,0.0,0.0,0.0,0.0,0.0,0.0,0.0,0.0,0.0,0.0,0.0,0.0,0.0,0.0,0.0,0.0,0.0,0.0,0.0,0.0,0.0,0.0,0.0,0.0,0.0,0.0,0.0,0.0,0.0,0.0,0.0,0.0,0.0,0.0,0.0,0.0,0.0,0.0,0.0,0.0,0.0,0.0,0.0,0.0,0.0,0.0,0.0,0.0,0.0,0.0,0.0,0.0,0.0,0.0,0.0,0.0,0.0,0.0,0.0,0.0,0.0,0.0,0.0,0.0,0.0,0.0,0.0,0.0,0.0,0.0,0.0,0.0,0.0,0.0,0.0,0.0,0.0,0.0,0.0,0.0,0.0,0.0,0.0,0.0,0.0,0.0,0.0,0.0,0.0,0.0,0.0,0.0,0.0,0.0,0.0,0.0,0.0,0.0,0.0,0.0,0.0,0.0,0.0,0.0,0.0,0.0,0.0,0.0,0.0,0.0,0.0,0.0,0.0,0.0,0.0,0.0,0.0,0.0,0.0,0.0,0.0,0.0,0.0,0.0,0.0,0.0,0.0,0.0,0.0,0.0,0.0,0.0,0.0,0.0,0.0,0.0,0.0,0.0,0.0,0.0,0.0,0.0,0.0,0.0,0.0,0.0,0.0,0.0,0.0,0.0,0.0,0.0,0.0,0.0,0.0,0.0,0.0,0.0,0.0,0.0,0.0,0.0,0.0,0.0,0.0,0.0,0.0,0.0,0.0,0.0,0.0,0.0,0.0,0.0,0.0,0.0,0.0,0.0,0.0,0.0,0.0,0.0,0.0,0.0,0.0,0.0,0.0,0.0,0.0,0.0,0.0,0.0,0.0,0.0,0.0,0.0,0.0,0.0,0.0,0.0,0.0,0.0,0.0,0.0,0.0,0.0,0.0,0.0,0.0,0.0,0.0,0.0,0.0,0.0,0.0,0.0,0.0,0.0,0.0,0.0,0.0,0.0,0.0,0.0,0.0,0.0,0.0,0.0,0.0,0.0,0.0,0.0,0.0,0.0,0.0,0.0,0.0,0.0,0.0,0.0,0.0,0.0,0.0,0.0,0.0,0.0,0.0,0.0,0.0,0.0,0.0,0.0,0.0,0.0,0.0,0.0,0.0,0.0,0.0,0.0,0.0,0.0,0.0,0.0,0.0,0.0,0.0,0.0,0.0,0.0,0.0,0.0,0.0,0.0,0.0,0.0,0.0,0.0,0.0,0.0,0.0,0.0,0.0,0.0,0.0,0.0,0.0,0.0,0.0,0.0,0.0,0.0,0.0,0.0,0.0,0.0,0.0,0.0,0.0,0.0,0.0,0.0,0.0,0.0,0.0,0.0,0.0,0.0,0.0,0.0,0.0,0.0,0.0,0.0,0.0,0.0,0.0,0.0,0.0,0.0,0.0,0.0,0.0,0.0,0.0,0.0,0.0,0.0,0.0,0.0,0.0,0.0,0.0,0.0,0.0,0.0,0.0,0.0,0.0,0.0,0.0,0.0,0.0,0.0,0.0,0.0,0.0,0.0,0.0,0.0,0.0,0.0,0.0,0.0,0.0,0.0,0.0,0.0,0.0,0.0,0.0,0.0,0.0,0.0,0.0,0.0,0.0,0.0,0.0,0.0,0.0,0.0,0.0,0.0,0.0,0.0,0.0,0.0,0.0,0.0,0.0,0.0,0.0,0.0,0.0,0.0,0.0,0.0,0.0,0.0,0.0,0.0,0.0,0.0,0.0,0.0,0.0,0.0,0.0,0.0,0.0,0.0,0.0,0.0,0.0,0.0,0.0,0.0,0.0,0.0,0.0,0.0,0.0,0.0,0.0,0.0,0.0,0.0,0.0,0.0,0.0,0.0,0.0,0.0,0.0,0.0,0.0,0.0,0.0,0.0,0.0,0.0,0.0,0.0,0.0,0.0,0.0,0.0,0.0,0.0,0.0,0.0,0.0,0.0,0.0,0.0,0.0,0.0,0.0,0.0,0.0,0.0,0.0,0.0,0.0,0.0,0.0,0.0,0.0,0.0,0.0,0.0,0.0,0.0,0.0,0.0,0.0,0.0,0.0,0.0,0.0,0.0,0.0,0.0,0.0,0.0,0.0,0.0,0.0,0.0,0.0,0.0,0.0,0.0,0.0,0.0,0.0,0.0,0.0,0.0,0.0,0.0,0.0,0.0,0.0,0.0,0.0,0.0,0.0,0.0,0.0,0.0,0.0,0.0,0.0,0.0,0.0,0.0,0.0,0.0,0.0,0.0,0.0,0.0,0.0,0.0,0.0,0.0,0.0,0.0,0.0,0.0,0.0,0.0,0.0,0.0,0.0,0.0,0.0,0.0,0.0,0.0,0.0,0.0,0.0,0.0,0.0,0.0,0.0,0.0,0.0,0.0,0.0,0.0,0.0,0.0,0.0,0.0,0.0,0.0,0.0,0.0,0.0,0.0,0.0,0.0,0.0,0.0,0.0,0.0,0.0,0.0,0.0,0.0,0.0,0.0,0.0,0.0,0.0,0.0,0.0,0.0,0.0,0.0,0.0,0.0,0.0,0.0,0.0,0.0,0.0,0.0,0.0,0.0,0.0,0.0,0.0,0.0,0.0,0.0,0.0,0.0,0.0,0.0,0.0,0.0,0.0,0.0,0.0,0.0,0.0,0.0,0.0,0.0,0.0,0.0,0.0,0.0,0.0,0.0,0.0,0.0,0.0,0.0,0.0,0.0,0.0,0.0,0.0,0.0,0.0,0.0,0.0,0.0,0.0,0.0,0.0,0.0,0.0,0.0,0.0,0.0,0.0,0.0,0.0,0.0,0.0,0.0,0.0,0.0,0.0,0.0,-1.7025,-1.4221,0.0,0.0,0.0,0.0,0.0,0.0,0.0,0.0,0.0,0.0,0.0,0.0,0.0,0.0,0.0,0.0,0.0,0.0,0.0,0.0,0.0,0.0,0.0,0.0,0.0,0.0,0.0,0.0,0.0,0.0,0.0,0.0,0.0,0.0,0.0,0.0,0.0,0.0,0.0,0.0,0.0,0.0,0.0,0.0,0.0,0.0,0.0,0.0,0.0,0.0,0.0,0.0,0.0,0.0,0.0,0.0,0.0,0.0,0.0,0.0,0.0,0.0,0.0,0.0,0.0,0.0,0.0,0.0,0.0,0.0,0.0,0.0,0.0,0.0,0.0,0.0,0.0,0.0,0.0,0.0,0.0,0.0,0.0,0.0,0.0,0.0,0.0,0.0,0.0,0.0,0.0,0.0,0.0,0.0,0.0,0.0,0.0,0.0,0.0,0.0,0.0,0.0,0.0,0.0,0.0,0.0,0.0,0.0,0.0,0.0,0.0,0.0,0.0,0.0,-2.1621,-1.9415,0.0,0.0,0.0,0.0,0.0,0.0,0.0,0.0,0.0,0.0,0.0,0.0,0.0,0.0,0.0,0.0,0.0,0.0,0.0,0.0,0.0,0.0,0.0,0.0,0.0,0.0,0.0,0.0,0.0,0.0,0.0,0.0,0.0,0.0,0.0,0.0,0.0,0.0,0.0,0.0,0.0,0.0,0.0,0.0,0.0,0.0,0.0,0.0,0.0,0.0,0.0,0.0,0.0,0.0,0.0,0.0,0.0,0.0,0.0,0.0,0.0,0.0,0.0,0.0,0.0,0.0,0.0,0.0,0.0,0.0,0.0,0.0,0.0,0.0,0.0,0.0,0.0,0.0,0.0,0.0,0.0,0.0,0.0,0.0,0.0,0.0,0.0,0.0,0.0,0.0,0.0,0.0,0.0,0.0,0.0,0.0,0.0,0.0,0.0,0.0,0.0,0.0,0.0,0.0,0.0,0.0,0.0,0.0,-2.4545,-2.498,-2.4927,-2.6456,-2.7426,-2.7793,-2.5141,-2.4304,-2.4626,-2.2315,0.0,0.0,0.0,0.0,0.0,0.0,0.0,0.0,0.0,0.0,0.0,0.0,0.0,0.0,0.0,0.0,0.0,0.0,0.0,0.0,0.0,0.0,0.0,0.0,0.0,0.0,0.0,0.0,0.0,0.0,0.0,0.0,0.0,0.0,0.0,0.0,0.0,-1.1664,-1.4195,-1.371,-1.21,-0.9431,-0.5131,0.0,0.0,0.0,0.0,0.0,0.0,0.0,0.0,0.0,0.0,0.0,0.0,0.0,0.0,0.0,0.0,0.0,0.0,0.0,0.0,0.0,0.0,0.0,0.0,0.0,0.0,0.0,0.0,0.0,0.0,0.0,0.0,0.0,0.0,0.0,0.0,0.0,0.0,0.0,0.0,0.0,0.0,0.0,-1.0638,-1.2022,0.0,0.0,0.0,0.0,0.0,0.0,0.0,0.0,0.0,0.0,0.0,0.0,0.0,-2.3733,-2.4095,-2.6264,-2.7285,-2.7196,-2.8855,-2.9629,-2.9623,-2.9447,-2.9645,-3.0097,-3.0068,0.0,-2.7022,-2.6387,0.0,0.0,0.0,0.0,0.0,0.0,0.0,0.0,0.0,0.0,0.0,0.0,0.0,0.0,0.0,0.0,0.0,0.0,0.0,0.0,0.0,0.0,0.0,0.0,0.0,0.0,0.0,0.0,0.0,0.0,0.0,0.0,0.0,0.0,0.0,0.0,-1.2579,-1.7224,-1.9228,-1.8289,-1.7402,-1.6384,-1.3515,-1.0007,-0.6253,-0.5795,0.0,0.0,0.0,0.0,0.0,0.0,0.0,0.0,0.0,0.0,0.0,0.0,0.0,0.0,0.0,0.0,0.0,0.0,0.0,0.0,0.0,0.0,0.0,0.0,0.0,0.0,0.0,0.0,0.0,0.0,0.0,0.0,0.0,0.0,0.0,0.0,0.0,0.0,0.0,-0.784,-1.2196,-1.3525,-1.3351,-1.2292,0.0,0.0,0.0,0.0,0.0,0.0,0.0,0.0,0.0,-2.5937,-2.6607,-2.7318,-2.8048,-2.9296,-2.9821,-2.9641,-3.0245,-3.0742,-3.1097,-3.0773,-3.0888,-3.1359,-3.1374,-3.0747,-2.9503,-2.8385,-2.718,-2.5701,0.0,0.0,0.0,0.0,-2.0951,-2.1004,0.0,0.0,0.0,0.0,0.0,0.0,0.0,0.0,0.0,0.0,0.0,0.0,0.0,0.0,0.0,2.1028,0.0,0.0,0.0,0.0,0.0,0.0,0.0,0.0,0.0,0.0,0.0,-1.3438,-1.8202,-2.1317,-2.2794,-2.1728,-2.0758,-1.9946,-1.9094,-1.5727,-1.0714,-1.0132,-0.8361,0.0,0.0,0.0,0.0,0.0,0.0,0.0,0.0,0.0,0.0,0.0,0.0,0.0,0.0,0.0,0.0,0.0,0.0,0.0,0.0,0.0,0.0,0.0,0.0,0.0,0.0,0.0,0.0,0.0,0.0,0.0,0.0,0.0,0.0,0.0,0.0,0.0,0.0,-1.2027,-1.5526,-1.6779,-1.7964,-1.7592,0.0,0.0,0.0,0.0,0.0,0.0,-2.576,-2.627,-2.7339,-2.9213,-2.9713,-3.037,-3.1202,-3.1462,-3.1426,-3.1134,-3.0814,-3.0925,-3.1437,-3.1166,-3.1222,-3.1524,-3.1389,-3.1118,-3.0687,-2.9527,-2.8832,-2.8235,-2.5506,-2.4369,-2.416,-2.3606,-2.3373,-2.3443,0.0,0.0,0.0,0.0,0.0,0.0,0.0,0.0,0.0,0.0,0.0,0.0,0.0,0.0,2.1547,2.0274,1.6497,1.4651,0.0,0.0,0.0,0.0,0.0,0.0,0.0,0.0,0.0,-1.945,-2.2981,-2.4537,-2.4173,-2.3292,-2.1843,-1.9945,-2.0435,-1.8638,-1.5086,-1.3533,-1.1383,-0.8845,0.0,0.0,0.0,0.0,0.0,0.0,0.0,0.0,0.0,0.0,0.0,0.0,0.0,0.0,0.0,0.0,0.0,0.0,0.0,0.0,0.0,0.0,0.0,0.0,0.0,0.0,0.0,0.0,0.0,0.0,0.0,0.0,0.0,0.0,0.0,0.0,0.0,0.0,0.0,-2.5056,-2.628,0.0,0.0,0.0,0.0,-2.3138,-2.5307,-2.7554,-2.96,-3.0576,-3.1816,-3.3441,-3.2909,-3.251,-3.2329,-3.2037,-3.1723,-3.1466,-3.1134,-3.0989,-3.0991,-3.0481,-3.026,-3.0288,-3.0502,-3.0206,-2.963,-3.0006,-3.0101,-2.9879,-2.7668,-2.6801,-2.6705,-2.5921,-2.5618,-2.572,0.0,0.0,0.0,0.0,0.0,0.0,0.0,0.0,0.0,0.0,0.0,0.0,0.0,1.8836,1.6052,1.6567,0.9677,0.6477,0.933,0.0,0.0,0.0,0.0,0.0,0.0,0.0,-1.8162,-1.9841,-2.257,-2.34,-2.2338,-2.1268,-2.0312,-1.9564,-1.922,-1.8194,-1.6759,-1.5988,-1.3942,-1.1065,-1.0228,-0.841,0.0,0.0,0.0,0.0,0.0,0.0,0.0,0.0,0.0,0.0,0.0,0.0,0.0,0.0,0.0,0.0,0.0,0.0,0.0,0.0,0.0,0.0,0.0,0.0,0.0,0.0,0.0,0.0,0.0,0.0,0.0,0.0,0.0,0.0,0.0,0.0,0.0,-2.4211,-2.681,0.0,-2.5611,-2.5731,-2.6409,-2.7596,-2.962,-3.1429,-3.2876,-3.3069,-3.3345,-3.379,-3.3368,-3.2965,-3.2681,-3.2351,-3.183,-3.1041,-3.0523,-3.0073,-2.9686,-2.8935,-2.8648,-2.8747,-2.8458,-2.818,-2.7973,-2.8139,-2.8711,-2.9359,-2.8185,-2.7442,-2.6912,-2.6189,-2.5608,-2.5212,0.0,0.0,0.0,0.0,0.0,0.0,0.0,0.0,0.0,0.0,0.0,2.2427,2.2171,1.7498,1.3738,1.2115,0.5935,0.2854,0.4542,0.0,0.0,0.0,0.0,0.0,0.0,-1.6318,-2.067,-2.1284,-2.2569,-2.2432,-2.0938,-1.9977,-1.9065,-1.827,-1.7615,-1.6962,-1.6309,-1.5925,-1.4514,-1.2538,-1.1747,-0.9806,-0.7396,0.0,0.0,0.0,0.0,0.0,0.0,0.0,0.0,0.0,0.0,0.0,0.0,0.0,0.0,0.0,0.0,0.0,0.0,0.0,0.0,0.0,0.0,0.0,0.0,0.0,0.0,0.0,0.0,0.0,0.0,0.0,0.0,0.0,0.0,-2.2834,-2.6683,-2.5509,-2.9045,-3.0665,-2.832,-2.9451,-3.0712,-3.1626,-3.2857,-3.3783,-3.4226,-3.4282,-3.4078,-3.364,-3.3523,-3.3367,-3.3136,-3.2495,-3.1817,-3.111,-3.0173,-2.9471,-2.8963,-2.8151,-2.781,-2.777,-2.728,-2.6972,-2.6751,-2.7004,-2.7494,-2.8002,-2.7693,-2.7194,-2.6578,-2.5998,-2.5349,-2.4757,0.0,0.0,0.0,0.0,0.0,0.0,0.0,0.0,0.0,0.0,2.0359,1.9991,2.1438,1.9475,1.5043,0.7543,0.5771,0.421,0.2175,0.1188,0.0,0.0,0.0,0.0,-1.574,-2.1604,-2.4454,-2.4172,-2.3376,-2.2046,-2.0271,-1.9706,-1.825,-1.6039,-1.589,-1.5132,-1.397,-1.323,-1.3055,-1.3136,-1.1684,-1.0019,-0.8269,0.0,0.0,0.0,0.0,0.0,0.0,0.0,0.0,0.0,0.0,0.0,0.0,0.0,0.0,0.0,0.0,0.0,0.0,0.0,0.0,0.0,0.0,0.0,0.0,0.0,0.0,0.0,0.0,0.0,0.0,0.0,0.0,0.0,-2.446,-2.7561,-2.9974,-2.9781,-3.3611,-3.5588,-3.3834,-3.5088,-3.5735,-3.5059,-3.4894,-3.4467,-3.3658,-3.4188,-3.416,-3.332,-3.3593,-3.3778,-3.3807,-3.2379,-3.1653,-3.1635,-3.0155,-2.9248,-2.8842,-2.8224,-2.7729,-2.7377,-2.7148,-2.6625,-2.6024,-2.6735,-2.6609,-2.5999,-2.6364,-2.6258,-2.594,-2.5493,-2.5099,-2.4641,0.0,0.0,0.0,0.0,0.0,0.0,0.0,0.0,0.0,0.0,2.1207,2.057,2.1158,1.6232,1.3039,1.345,0.5181,0.2021,0.6907,0.0,0.0,0.0,0.0,0.0,-1.7133,-2.1988,-2.4243,-2.3839,-2.297,-2.1608,-1.976,-1.8512,-1.6922,-1.5128,-1.4312,-1.3326,-1.2237,-1.1241,-1.0632,-1.0446,-1.1421,-1.0929,-0.9654,0.0,0.0,0.0,0.0,0.0,0.0,0.0,0.0,0.0,0.0,0.0,0.0,0.0,0.0,0.0,0.0,0.0,0.0,0.0,0.0,0.0,0.0,0.0,0.0,0.0,0.0,0.0,0.0,0.0,0.0,0.0,-2.6986,-2.9008,-2.7734,-3.0786,-3.3137,-3.3079,-3.4599,-3.5452,-3.4958,-3.4627,-3.4655,-3.5182,-3.4039,-3.3461,-3.3799,-3.3394,-3.3202,-3.3304,-3.282,-3.2943,-3.3788,-3.2028,-3.1031,-3.0796,-2.9368,-2.8418,-2.7866,-2.7145,-2.6878,-2.6861,-2.6233,-2.5812,-2.5635,-2.5576,-2.548,-2.5329,-2.5617,-2.5595,-2.5181,-2.4283,-2.3746,-2.3395,0.0,0.0,0.0,0.0,0.0,0.0,0.0,0.0,0.0,0.0,2.0778,2.0079,2.0666,1.6459,1.3423,1.2952,0.7463,0.5258,0.8193,0.0,0.0,0.0,0.0,-1.3576,-1.9629,-2.2803,-2.4099,-2.3492,-2.216,-2.0475,-1.8548,-1.6942,-1.5138,-1.3221,-1.2302,-1.1351,-1.0317,-0.8971,-0.8375,-0.836,-0.9022,-0.9011,-0.8635,-0.8673,-0.7896,-0.6815,-0.7339,-0.7611,-0.7621,-0.7307,0.0,0.0,0.0,0.0,0.0,0.0,0.0,0.0,0.0,0.0,0.0,0.0,0.0,0.0,0.0,0.0,0.0,0.0,0.0,0.0,0.0,0.0,0.0,0.0,-2.9735,-3.1439,-3.127,-3.3384,-3.4826,-3.4475,-3.5117,-3.5272,-3.4505,-3.4206,-3.4135,-3.4326,-3.3376,-3.2833,-3.2962,-3.2737,-3.2578,-3.2505,-3.2239,-3.2427,-3.3062,-3.1426,-3.0476,-3.0204,-2.884,-2.7848,-2.7227,-2.6758,-2.6401,-2.6175,-2.5689,-2.5427,-2.5269,-2.5068,-2.4942,-2.4813,0.0,0.0,0.0,0.0,-2.3053,-2.2888,0.0,0.0,0.0,0.0,0.0,0.0,0.0,0.0,0.0,0.0,0.0,1.9035,2.0077,1.8655,1.5535,1.0361,1.1723,1.1463,0.0,0.0,0.0,-0.2671,-0.7774,-1.4237,-2.2553,-2.3824,-2.3934,-2.3009,-2.0926,-1.8827,-1.6688,-1.4792,-1.2665,-1.0467,-0.9833,-0.8981,-0.7958,-0.644,-0.6037,-0.6339,-0.5261,-0.5414,-0.6342,-0.6562,-0.6165,-0.5579,-0.649,-0.6927,-0.7151,-0.8044,0.0,0.0,0.0,0.0,0.0,0.0,0.0,0.0,0.0,0.0,0.0,0.0,0.0,0.0,0.0,0.0,0.0,0.0,0.0,0.0,0.0,0.0,0.0,0.0,-3.2149,-3.3587,-3.4284,-3.4996,-3.5165,-3.4448,-3.5057,-3.4885,-3.3276,-3.3732,-3.3807,-3.3079,-3.2879,-3.249,-3.1754,-3.2237,0.0,0.0,0.0,-3.1938,-3.2103,-3.0746,-2.999,-2.9831,-2.8522,-2.7572,-2.7002,-2.6841,-2.635,-2.5652,-2.5577,-2.5368,-2.5029,-2.5005,-2.4766,-2.4457,-2.44,-2.4151,-2.3812,-2.3157,-2.2888,-2.2888,0.0,0.0,0.0,0.0,0.0,0.0,0.0,0.0,0.0,2.0828,1.9434,1.8813,1.9932,1.901,1.8374,1.857,1.6435,1.4583,0.0,0.0,1.0592,-0.1937,-0.7751,-1.493,-2.3998,-2.4282,-2.3467,-2.175,-1.9303,-1.6597,-1.3674,-1.0935,-0.8581,-0.6661,-0.6202,-0.4972,-0.3299,-0.3304,-0.2932,-0.2332,-0.2077,-0.3528,-0.5771,-0.58,-0.6104,-0.6599,-0.7019,-0.7748,-0.8332,-0.753,-0.7191,-0.6736,-0.529,-0.4467,0.0,0.0,0.0,0.0,0.0,0.0,0.0,0.0,0.0,0.0,0.0,0.0,0.0,0.0,0.0,0.0,0.0,0.0,0.0,-3.0477,-3.2684,-3.4093,-3.3678,-3.3743,-3.3764,-3.3561,-3.3682,-3.3643,-3.3297,-3.2771,-3.2655,-3.3134,-3.2551,-3.2085,-3.1859,-3.1967,-3.1854,-3.1482,-3.0887,-3.1055,-3.2084,-3.0304,-2.9617,-3.0008,-2.8577,0.0,-2.7624,-2.731,-2.6925,-2.6436,-2.6123,-2.5762,-2.5368,-2.5107,-2.4645,-2.4067,-2.3739,-2.3392,-2.3112,-2.2933,-2.2888,-2.2888,0.0,0.0,0.0,0.0,0.0,0.0,0.0,0.0,0.0,0.0,1.9749,1.9281,2.0425,1.9538,1.9343,2.0591,1.9683,0.0,0.0,1.8286,1.4194,0.5289,0.0311,-0.5239,-1.1655,-1.215,-1.1999,-1.1276,-0.978,-0.8347,-0.6943,-0.5308,-0.3609,-0.1898,-0.208,-0.124,0.0269,0.0163,0.0394,0.0828,0.1144,0.0369,-0.1326,-0.3144,-0.4126,-0.472,-0.5693,-0.6666,-0.7495,-0.7425,-0.7599,-0.7681,-0.654,-0.5779,-0.4921,0.0,0.0,0.0,0.0,0.0,0.0,0.0,0.0,0.0,0.0,0.0,0.0,0.0,0.0,-2.6072,-2.7115,0.0,-3.0487,-3.1786,-3.269,-3.3112,-3.2754,-3.2324,-3.2207,-3.2656,-3.2695,-3.2519,-3.203,-3.161,-3.1519,-3.1915,-3.156,-3.1287,-3.1254,-3.1254,-3.1196,-3.1052,-3.0486,-3.0503,-3.1137,-3.0036,-2.9526,-2.9586,-2.8809,-2.8237,-2.7789,-2.76,-2.7085,-2.6401,-2.6175,-2.5689,-2.4918,-2.4173,-2.3666,-2.329,-2.2665,-2.2603,-2.2843,-2.2661,-2.2706,-2.2843,0.0,0.0,0.0,0.0,0.0,0.0,0.0,0.0,0.0,0.0,1.9991,1.974,2.0764,1.9825,1.9435,0.0,0.0,0.0,0.0,2.0218,1.6943,1.2288,0.885,0.5071,0.0843,0.002,-0.0403,-0.0509,0.016,0.0426,0.0358,0.1062,0.2021,0.3178,0.2562,0.2888,0.3915,0.3865,0.3923,0.408,0.4578,0.4613,0.4008,0.0838,-0.0935,-0.1851,-0.3055,-0.4209,-0.5298,-0.6184,-0.6813,-0.7139,-0.6692,-0.6088,-0.5048,-0.222,-0.1718,0.0,0.0,0.0,0.0,0.0,0.0,0.0,0.0,-2.4957,-2.4971,-2.772,-2.7595,-2.7678,-2.9874,-3.0335,-3.0962,-3.2743,-3.2441,-3.1934,-3.1777,-3.115,-3.103,-3.196,-3.1949,-3.16,-3.1013,-3.0801,-3.0792,-3.0954,-3.0921,-3.0895,-3.09,-3.0895,-3.0812,-3.0633,-3.041,-3.0278,-3.0221,-2.999,-2.9639,-2.9182,-2.9049,-2.8603,-2.7858,-2.7683,-2.7049,-2.6087,-2.5766,-2.5144,-2.4261,-2.3039,-2.2543,-2.2452,-2.1657,-2.186,-2.2509,-2.2123,-2.2278,-2.2555,0.0,0.0,0.0,0.0,0.0,0.0,0.0,0.0,0.0,0.0,0.0,0.0,0.0,0.0,0.0,0.0,0.0,0.0,2.2304,2.1025,1.7757,1.2247,1.0573,0.6658,-0.001,-0.0198,0.0511,0.1994,0.3291,0.451,0.5597,0.7491,0.8283,0.8208,0.8115,0.8372,0.8854,0.7909,0.7901,0.8532,0.8224,0.7947,0.7696,0.6316,0.3723,0.0778,0.0836,-0.0209,-0.15,-0.1536,-0.1818,-0.2042,-0.1803,-0.2394,-0.2422,0.1043,0.1659,0.182,0.4266,-0.0909,-0.8795,-1.6327,-1.9372,-2.331,0.0,-3.2772,-3.0603,-3.4339,-3.4055,-3.3031,-3.2755,-3.2195,-3.1843,-3.2026,-3.2012,-3.1734,-3.0942,-3.0763,-3.1037,-3.1919,-3.1383,-3.1189,-3.1808,-3.1211,-3.1108,-3.1893,-3.1933,-3.1933,-3.1933,-3.1933,-3.154,-3.0726,-3.0657,-3.0522,-3.0276,-3.0198,-2.9918,-2.9439,-2.914,-2.8669,-2.8047,-2.7447,-2.6788,-2.6016,-2.461,-2.3888,-2.3691,-2.2486,-2.1993,-2.1946,-2.1403,-2.1272,-2.1369,-2.1334,-2.1492,-2.1746,0.0,0.0,0.0,0.0,0.0,0.0,0.0,0.0,0.0,0.0,0.0,0.0,0.0,0.0,0.0,0.0,0.0,0.0,2.2258,2.2663,2.1771,1.9266,1.8792,1.7265,1.4423,1.4311,1.4148,1.3864,1.3872,1.3506,1.2861,1.3026,1.3041,1.2871,1.2251,1.2203,1.2498,1.1499,1.1294,1.1599,1.1145,1.0825,1.0606,1.0235,0.8776,0.6726,0.469,0.3641,0.0,0.0,0.2661,0.2937,0.2168,0.2032,0.2329,0.3423,0.323,0.1691,-0.2697,-0.7395,-1.3169,-2.2008,-2.6103,-2.9366,-3.4726,-3.4258,-3.3298,-3.5447,-3.5219,-3.461,-3.4614,-3.3535,-3.2563,-3.2334,-3.1574,-3.0835,-3.0306,-3.0762,-3.1502,-3.2359,-3.1872,-3.1532,-3.1748,-3.1523,-3.1268,-3.1013,-3.1568,-3.1734,-3.1304,-3.1733,-3.161,-3.0781,-3.0721,-3.0657,-3.0522,-3.043,-3.0186,-2.9848,-2.9581,-2.9147,-2.8535,-2.7734,-2.6521,-2.4971,-2.3359,-2.2429,-2.1945,-2.0908,-2.023,-1.9839,-1.9325,-1.9049,-1.9101,-2.0206,-2.0894,-2.1148,0.0,0.0,0.0,0.0,0.0,0.0,0.0,0.0,0.0,0.0,0.0,0.0,0.0,0.0,0.0,0.0,0.0,0.0,0.0,2.3442,2.4242,2.4256,2.4463,2.4683,2.4946,2.4843,2.4115,2.2776,2.1761,2.0404,1.8682,1.7827,1.7305,1.7004,1.6162,1.5932,1.6118,1.4971,1.4695,1.4987,1.4479,1.402,1.3687,1.3757,1.3151,1.1939,0.8762,0.7517,0.0,0.6768,0.7047,0.7416,0.6309,0.6248,0.6536,0.6423,0.5184,0.2096,-0.5726,-1.1041,-1.6396,-2.4654,-2.9785,-3.3102,-3.4427,-3.4574,-3.4717,-3.5626,-3.5195,-3.4671,-3.4827,-3.3563,-3.2409,-3.2163,-3.0996,-3.013,-3.0136,-3.0826,-3.1711,-3.2773,-3.248,-3.2104,-3.1958,-3.1623,-3.1302,-3.1013,-3.1167,-3.1235,-3.1177,-3.1274,-3.1112,-3.0564,-3.056,-3.0566,-3.0566,-3.0548,-3.0261,-2.9738,-2.9845,-2.9319,-2.8219,-2.7011,-2.5507,-2.3766,-2.1703,-2.0413,-1.9761,-1.8853,-1.8148,-1.7574,-1.7257,-1.7148,-1.7399,-1.8672,-1.9672,-2.0243,0.0,0.0,0.0,0.0,0.0,0.0,0.0,0.0,0.0,0.0,0.0,0.0,0.0,0.0,0.0,0.0,0.0,0.0,0.0,2.2622,2.336,2.408,2.4361,2.4686,2.509,2.5027,2.4814,2.4433,2.3484,2.2566,2.1658,2.1776,2.1318,2.0451,2.0082,2.003,2.0119,1.8409,1.8332,1.9378,1.8742,1.8068,1.7405,1.7087,1.6349,1.5187,1.2886,0.0,1.0937,1.1339,1.1422,1.1292,1.0995,1.0031,0.9241,1.0611,0.8119,0.4069,-0.0057,-0.8138,-1.6574,-2.1508,-2.7332,-3.2429,-3.4746,-3.5065,-3.5116,-3.5916,-3.4842,-3.3526,-3.2826,-3.1744,-3.0951,-3.0869,-3.0161,-2.9905,-3.0674,-3.0791,-3.1418,-3.3013,-3.3,-3.282,-3.2762,-3.1362,-3.1146,-3.2882,-3.1112,-3.0658,-3.2259,-3.0844,-2.996,-2.9936,-3.0104,-3.0217,-3.0218,-3.0467,-3.0019,-2.8854,-2.9685,-2.8901,-2.66,-2.4479,-2.3278,-2.2673,-1.9429,-1.7753,-1.7224,-1.6303,-1.5818,-1.5695,-1.58,-1.6235,-1.6813,-1.6496,-1.7434,-1.8749,0.0,0.0,0.0,0.0,0.0,0.0,0.0,0.0,0.0,0.0,0.0,0.0,0.0,0.0,0.0,0.0,2.1685,2.1457,0.0,2.2582,2.3327,2.408,2.4452,2.479,2.5092,2.5253,2.5389,2.5487,2.4991,2.4686,2.4513,2.4251,2.365,2.2834,2.2492,2.2243,2.198,2.1048,2.0997,2.1456,2.0598,2.0307,2.0309,1.9461,1.9039,1.8824,0.0,0.0,1.4911,1.5428,1.5154,1.4481,1.3722,1.3476,1.33,1.2318,0.923,0.4374,-0.3284,-1.0423,-1.7379,-2.4403,-2.9231,-3.2664,-3.3973,-3.4659,-3.5117,-3.5447,-2.9737,-2.5517,-2.8317,-2.4982,-2.2603,-2.505,-2.6555,-2.7816,-2.8923,-2.8801,-2.919,-3.0773,-3.1005,-3.0969,-3.068,-3.1093,-3.1257,-3.0929,-3.0575,-3.0423,-3.0534,-3.0054,-2.9457,-2.8782,-2.8871,-2.8958,-2.9011,-2.7899,-2.711,-2.6611,-2.1333,-1.7857,-1.5901,-1.1723,-0.9733,-0.9579,-0.9084,-0.9245,-0.993,-1.0386,-1.0474,-1.045,-1.1263,-1.1967,-1.2462,-1.2741,-1.344,-1.4559,0.0,0.0,0.0,0.0,0.0,0.0,0.0,0.0,0.0,0.0,0.0,0.0,0.0,0.0,0.0,0.0,0.0,2.2239,0.0,0.0,2.3711,2.4192,2.4544,2.4877,2.5195,2.57,2.592,2.582,2.6078,2.6109,2.5899,2.5943,2.5631,2.5103,2.4652,2.4412,2.4226,2.3468,2.3196,2.3235,2.2593,2.2401,2.2478,2.1817,2.1755,0.0,0.0,0.0,1.9301,1.8935,1.8344,1.7578,1.6543,1.5914,1.5353,1.4102,1.014,0.4571,-0.3047,-1.0136,-1.697,-2.3767,-2.8005,-3.0897,-3.2389,-3.3213,-3.3867,-3.4597,-2.6784,-2.0565,-2.3048,-1.9386,-1.6619,-1.8472,-2.2292,-2.5423,-2.6439,-2.6318,-2.6848,-2.886,-2.8929,-2.8754,-2.8555,-2.927,-2.9642,-2.9413,-2.8965,-2.8618,-2.85,-2.7876,-2.7144,-2.6313,-2.6301,-2.5937,-2.5241,-2.4275,-2.2573,-2.0049,-1.2067,-0.7895,-0.7076,-0.3259,-0.1518,-0.1611,-0.1923,-0.2309,-0.2889,-0.4115,-0.4613,-0.4794,-0.5945,-0.6956,-0.7745,-0.8123,-0.9058,-1.0524,0.0,0.0,0.0,0.0,0.0,0.0,0.0,0.0,0.0,0.0,0.0,0.0,0.0,0.0,0.0,0.0,0.0,0.0,0.0,0.0,0.0,2.4412,2.4685,2.5001,2.5381,2.6273,2.6357,2.5566,2.6698,2.6839,2.6072,2.6942,2.7295,2.7186,2.6544,2.6516,2.6822,2.562,2.5012,2.4895,2.4846,2.4563,2.411,2.4132,0.0,0.0,0.0,2.3742,2.3673,2.1711,2.0927,2.052,1.9403,1.7531,1.5808,1.6006,1.123,0.4989,0.0889,-0.6678,-1.4533,-1.8924,-2.2801,-2.6244,-2.8903,-2.9611,-3.0257,-3.233,-2.4748,-1.7629,-1.7233,-1.4891,-1.2728,-1.1881,-1.7798,-2.2696,-2.3409,-2.3392,-2.4332,-2.7057,-2.6718,-2.6275,-2.634,-2.5911,-2.6346,-2.8062,-2.6262,-2.5424,-2.6252,-2.4484,-2.3203,-2.2697,-2.2508,-2.1299,-1.8952,-1.9138,-1.5951,-0.9429,-0.2314,0.0657,-0.0073,0.1336,0.193,0.1809,0.2441,0.3188,0.3797,0.2393,0.1553,0.1081,-0.0,-0.1399,-0.2817,-0.2834,-0.4255,-0.6602,0.0,0.0,0.0,0.0,0.0,0.0,0.0,0.0,0.0,0.0,0.0,0.0,0.0,0.0,0.0,0.0,0.0,0.0,2.3679,0.0,0.0,0.0,0.0,0.0,0.0,0.0,0.0,2.6535,2.6605,2.7156,2.8135,2.8129,2.8353,2.8697,2.7757,2.7598,2.7986,2.6934,2.6898,2.75,0.0,2.6996,2.7082,0.0,0.0,0.0,0.0,2.4784,2.445,2.2664,2.2073,2.1989,2.1496,2.1059,2.0401,1.8892,1.5017,1.0498,0.7064,0.2154,-0.2579,-0.4818,-0.6907,-0.8564,-0.9173,-0.987,-1.1691,-1.6321,-0.6191,-0.0082,-1.1818,-0.6878,-0.3476,-1.0942,-1.5521,-1.8838,-2.0836,-2.0053,-1.995,-2.1753,-2.238,-2.2533,-2.2007,-2.2006,-2.1885,-2.1476,-2.2812,-2.3583,-2.3512,-2.2204,-2.0871,-1.9619,-1.9185,-1.6541,-1.1509,-0.6098,-0.1897,0.118,0.7265,1.026,1.0533,1.3808,1.5199,1.4943,1.3299,1.2034,1.0993,0.9099,0.7529,0.6169,0.4833,0.3397,0.2069,0.1778,0.1009,-0.0052,0.0,0.0,0.0,0.0,0.0,0.0,0.0,0.0,0.0,0.0,0.0,0.0,0.0,0.0,0.0,0.0,0.0,0.0,0.0,0.0,0.0,0.0,0.0,0.0,0.0,0.0,0.0,0.0,0.0,0.0,2.8502,2.8619,2.9,2.958,2.895,2.876,2.8876,2.7938,0.0,0.0,0.0,0.0,0.0,0.0,0.0,0.0,2.645,2.5623,2.502,2.4014,2.3571,2.3446,2.3435,2.29,2.2137,2.1378,1.8493,1.5026,1.2618,0.8644,0.4764,0.3291,0.1368,-0.0445,-0.1536,-0.207,-0.3465,-0.7634,0.1784,0.7569,-0.296,0.0265,0.2185,-0.4949,-1.095,-1.5145,-1.6522,-1.6049,-1.6002,-1.7327,-1.7825,-1.7895,-1.7482,-1.7426,-1.7121,-1.6569,-1.866,-1.9574,-1.8713,-1.7164,-1.474,-1.1376,-1.0499,-0.7165,-0.1028,0.5934,0.9907,1.0948,1.6213,1.9077,1.9739,2.0526,2.1009,2.109,1.8821,1.7231,1.6149,1.426,1.264,1.1144,0.9602,0.8247,0.7124,0.6814,0.6412,0.5904,0.0,0.0,0.0,0.0,0.0,0.0,0.0,0.0,0.0,0.0,0.0,0.0,0.0,0.0,0.0,0.0,0.0,0.0,0.0,0.0,0.0,0.0,0.0,0.0,0.0,2.7159,2.7206,2.5681,2.7827,0.0,0.0,0.0,0.0,0.0,0.0,0.0,0.0,0.0,0.0,0.0,0.0,0.0,0.0,0.0,0.0,0.0,2.7326,2.6191,2.5486,2.556,2.529,2.4948,2.5224,2.4156,2.2965,2.3832,2.1945,1.9321,1.8152,1.4569,1.0884,0.9607,0.7394,0.4888,0.2514,0.2298,0.1816,-0.0943,0.5797,1.069,0.5758,0.5786,0.5284,0.1493,-0.6179,-1.1642,-1.1664,-1.199,-1.2517,-1.3398,-1.345,-1.3322,-1.317,-1.2891,-1.2607,-1.2527,-1.3842,-1.4266,-1.3333,-1.1457,-0.7723,-0.1921,0.0655,0.4568,1.0134,1.6327,1.9461,1.9589,2.3521,2.5733,2.6171,2.3351,2.2316,2.2715,2.0903,1.9976,1.9572,1.7963,1.6632,1.5453,1.388,1.2673,1.1724,1.1556,1.1224,1.0794,0.0,0.0,0.0,0.0,0.0,0.0,0.0,0.0,0.0,0.0,2.4817,2.4596,0.0,0.0,0.0,0.0,0.0,0.0,0.0,0.0,0.0,0.0,0.0,0.0,2.5604,2.5959,2.5973,2.5628,2.5998,2.6456,0.0,0.0,0.0,0.0,0.0,0.0,0.0,0.0,0.0,0.0,0.0,0.0,0.0,0.0,0.0,0.0,2.6892,2.6157,2.608,2.6805,2.701,2.6986,2.6986,2.6964,2.701,2.7164,2.5996,2.4777,2.5326,2.4323,2.3059,2.2876,2.2538,2.2062,2.1412,2.1324,2.0011,1.5105,1.8963,1.9079,0.5473,0.645,0.6279,-0.2872,-0.6235,-0.7885,-0.8587,-0.9228,-0.9701,-0.973,-1.0602,-1.0726,-0.973,-1.023,-0.9913,-0.8423,-0.7864,-0.848,-1.0477,-0.9752,-0.6192,0.0571,0.9367,1.4947,1.6972,2.2159,2.4994,2.5423,2.5452,2.5191,2.4593,2.3747,2.2989,2.2289,2.1662,2.1075,2.0489,1.9473,1.8296,1.7077,1.6604,1.5463,1.4089,1.3701,1.3219,1.2666,0.0,0.0,0.0,0.0,0.0,0.0,0.0,2.4639,2.4894,2.5335,2.5089,2.5059,2.5547,2.5609,0.0,0.0,0.0,0.0,0.0,0.0,0.0,0.0,0.0,0.0,2.5648,2.613,2.6142,2.5658,0.0,2.6448,2.6838,2.6822,2.7229,2.7969,2.7517,2.7488,2.7699,2.686,2.696,2.7695,2.8064,2.8471,0.0,0.0,0.0,0.0,0.0,2.6403,2.6493,2.7359,2.7646,2.7697,2.7923,2.7999,2.805,2.8064,2.7392,2.6917,2.7915,2.7625,2.7083,2.7352,2.7092,2.6655,2.6079,2.5754,2.4708,2.166,2.3143,2.1627,1.0527,0.9787,0.7903,-0.0969,-0.3949,-0.5242,-0.5278,-0.6329,-0.6746,-0.5796,-0.6412,-0.6622,-0.5959,-0.593,-0.4697,-0.1648,-0.2829,-0.3586,-0.3212,0.2305,0.6282,0.8008,1.6626,2.1911,2.3377,2.5318,2.6658,2.7363,2.6308,2.5855,2.5858,2.4149,2.3379,2.3361,2.2425,2.1667,2.0938,1.9538,1.8484,1.7666,1.6614,1.6013,1.562,1.5147,1.4755,1.4393,0.0,0.0,0.0,0.0,0.0,0.0,0.0,2.4312,2.4643,2.5245,2.534,2.539,2.5517,2.5561,2.5577,0.0,0.0,0.0,0.0,0.0,0.0,0.0,0.0,0.0,0.0,0.0,0.0,2.5671,2.6306,0.0,0.0,0.0,0.0,0.0,2.743,2.7383,2.724,2.6601,2.6655,0.0,0.0,2.8025,2.8422,0.0,0.0,0.0,0.0,2.6418,2.6469,2.7466,2.7694,2.7631,2.8011,2.818,2.8203,2.8222,2.8017,2.7963,2.8796,2.8588,2.8202,2.8351,2.7736,2.683,2.5881,2.523,2.4686,2.4172,2.41,2.2137,1.5522,1.3068,0.966,0.2335,-0.1032,-0.2514,-0.2115,-0.3392,-0.3946,-0.2675,-0.2735,-0.2805,-0.2612,-0.1903,0.0331,0.4543,0.3579,0.2987,0.3475,1.3205,1.7644,1.5206,2.1602,2.5774,2.7246,2.6759,2.6914,2.7695,2.6816,2.671,2.72,2.4744,2.3758,2.3964,2.2801,2.1824,2.0855,1.9401,1.8542,1.7982,1.6572,1.6259,1.6576,1.6114,1.5814,1.5592,0.0,0.0,0.0,0.0,0.0,0.0,0.0,2.5071,2.5241,2.5374,2.5283,2.5245,2.532,2.5437,2.554,0.0,0.0,0.0,0.0,0.0,0.0,0.0,0.0,0.0,0.0,0.0,0.0,2.561,2.5615,0.0,0.0,0.0,0.0,0.0,0.0,2.5628,2.5611,2.5476,0.0,0.0,0.0,0.0,0.0,0.0,0.0,0.0,0.0,2.5836,2.5631,2.6995,2.7153,2.6829,2.6915,2.7697,2.8559,2.8626,2.8838,2.9081,2.9289,2.9219,2.8915,2.8224,2.7344,2.6409,2.5477,2.4559,2.4093,2.4769,2.4579,2.2433,1.6375,1.433,1.1235,0.405,0.2042,0.1119,0.0319,-0.0485,-0.1214,-0.17,-0.153,-0.1174,-0.0733,0.0506,0.3073,0.7394,1.3885,1.3972,0.5533,1.3682,1.8468,1.8121,2.2595,2.5304,2.5881,2.6282,2.6826,2.7453,2.7388,2.7091,2.6568,2.5693,2.4288,2.2572,2.2394,2.1384,1.9914,1.9874,1.9316,1.8446,1.8331,1.765,1.6666,1.6576,1.6159,1.5698,0.0,0.0,0.0,0.0,0.0,0.0,2.5102,2.5283,2.5426,2.5453,2.5301,2.5216,2.5244,2.5283,2.5385,0.0,0.0,0.0,0.0,0.0,0.0,0.0,0.0,0.0,0.0,0.0,2.5671,2.561,2.5525,0.0,0.0,0.0,0.0,0.0,0.0,2.5379,2.5351,2.5351,0.0,0.0,0.0,0.0,0.0,0.0,0.0,0.0,0.0,0.0,2.5473,2.6557,2.6507,2.6077,2.6671,2.7103,2.7392,2.7281,2.7518,2.797,2.867,2.9058,2.9153,2.8762,2.7633,2.6431,2.5771,2.5031,2.4593,2.5035,2.4986,2.3056,1.7199,1.5266,1.2359,0.5675,0.3592,0.2722,0.2338,0.1321,0.0636,0.0889,0.079,0.0991,0.1677,0.2427,0.4507,0.8462,1.6157,1.8642,1.3927,1.9132,2.1188,1.8818,2.259,2.4976,2.5687,2.5583,2.5932,2.668,2.6384,2.6072,2.5764,2.4845,2.3893,2.2943,2.2081,2.1326,2.0635,1.998,1.9454,1.9078,1.8779,1.8346,1.7792,1.742,1.6979,1.6514,0.0,0.0,0.0,0.0,0.0,2.4943,2.5175,2.5374,2.551,2.5495,2.5309,2.5178,2.5182,2.5137,2.5179,2.5386,0.0,0.0,0.0,0.0,0.0,0.0,0.0,0.0,0.0,0.0,2.5656,2.561,2.5518,2.5401,0.0,0.0,2.5302,2.5241,0.0,0.0,0.0,0.0,0.0,0.0,0.0,0.0,0.0,0.0,0.0,0.0,0.0,0.0,0.0,0.0,0.0,2.5618,2.6298,2.6409,2.629,2.639,2.7113,2.7935,2.8424,2.9359,3.0101,2.9704,2.8307,2.6926,2.6498,2.5626,2.5013,2.5411,2.537,2.3563,1.8013,1.6016,1.3118,0.6839,0.4858,0.4092,0.4166,0.3127,0.2616,0.3233,0.3076,0.3126,0.3528,0.513,0.7526,1.0977,1.7569,2.124,2.0762,2.3182,2.3353,2.0662,2.3026,2.4616,2.519,2.5029,2.5231,2.5819,2.5524,2.5357,2.5292,2.4236,2.3555,2.3192,2.2115,2.1522,2.1271,2.0464,2.0003,1.978,1.918,1.8767,1.8387,1.7733,1.7255,1.6895,0.0,0.0,0.0,0.0,0.0,0.0,2.516,2.5371,2.5499,2.5499,2.5262,2.51,2.5107,2.4981,2.4981,2.5182,0.0,0.0,0.0,0.0,0.0,0.0,0.0,0.0,0.0,0.0,2.5593,2.561,2.5471,2.5369,2.5311,2.5239,2.5176,2.5115,0.0,0.0,0.0,0.0,0.0,0.0,0.0,0.0,0.0,0.0,0.0,0.0,0.0,0.0,0.0,0.0,0.0,0.0,0.0,2.5565,2.5676,2.647,2.8309,2.987,2.8938,3.0465,3.2042,3.1017,2.9412,2.7994,2.7658,2.6197,2.5147,2.6002,2.577,2.3877,1.8904,1.666,1.3576,0.7395,0.5837,0.5423,0.5647,0.5095,0.4737,0.4833,0.5315,0.5301,0.4549,0.8854,1.2899,1.5822,1.9435,2.2327,2.4242,2.4321,2.4374,2.4544,2.4317,2.4149,2.4018,2.4683,2.4978,2.4923,2.5182,2.5347,2.5374,2.4363,2.3537,2.2889,2.254,2.202,2.1417,2.1538,2.1184,2.0532,1.986,1.9016,1.8117,1.7293,1.6831,1.6596,0.0,0.0,0.0,0.0,0.0,0.0,0.0,2.5371,2.5505,2.5492,2.5307,2.5128,2.5037,2.4981,2.5012,2.5126,0.0,0.0,0.0,0.0,0.0,0.0,0.0,0.0,0.0,0.0,0.0,2.561,2.5518,2.5359,2.5149,2.5187,2.5087,2.4888,2.5006,2.5101,0.0,0.0,0.0,0.0,0.0,0.0,2.5943,0.0,0.0,0.0,0.0,0.0,0.0,0.0,0.0,0.0,0.0,0.0,0.0,2.5815,2.6715,2.7727,2.8163,2.9047,2.9925,3.0189,2.8755,2.7302,2.7475,2.6555,2.5923,2.6903,2.7032,2.512,1.9052,1.7401,1.479,0.8119,0.7338,0.7297,0.6398,0.6283,0.6082,0.5475,0.5676,0.6172,0.6726,0.7563,1.0319,1.5706,1.6912,1.9452,2.4151,2.4339,2.434,2.4388,2.4189,2.4082,2.4149,2.4082,2.4104,2.4212,2.4266,2.4117,2.3804,2.3278,2.2738,2.2202,2.1868,2.1613,2.1493,2.1807,2.1687,2.1229,2.0799,2.001,1.9042,1.8101,1.7387,1.6841,0.0,0.0,0.0,0.0,0.0,0.0,0.0,2.5346,2.5468,2.5459,2.529,2.5116,2.5,2.4947,2.4955,2.505,0.0,0.0,0.0,0.0,0.0,0.0,0.0,0.0,0.0,2.5619,2.5586,2.5551,2.5498,2.5303,2.5018,2.5043,2.4934,2.4738,2.4842,2.494,0.0,0.0,0.0,0.0,0.0,0.0,2.5597,0.0,0.0,0.0,0.0,0.0,0.0,0.0,0.0,0.0,0.0,0.0,0.0,0.0,2.6074,2.6813,2.738,2.8462,2.9436,2.9484,2.8239,2.7036,2.7069,2.6363,2.59,2.6785,2.7182,2.5405,1.9064,1.7635,1.5223,0.8381,0.7404,0.7436,0.7191,0.6997,0.6779,0.6448,0.6459,0.6829,0.7517,0.6994,0.9248,1.5616,1.5799,1.8192,2.4083,2.434,2.4302,2.4284,2.4096,2.4026,2.4051,2.3774,2.3653,2.3707,2.3682,2.3481,2.3091,2.2883,2.2573,2.2243,2.2056,2.201,0.0,2.2237,2.2303,2.2194,2.1557,2.0917,2.0203,1.8891,1.7993,1.739,0.0,0.0,0.0,0.0,0.0,0.0,0.0,0.0,2.5385,2.5393,2.5226,2.508,2.5019,2.4884,2.4875,2.4994,0.0,0.0,0.0,0.0,0.0,0.0,0.0,0.0,0.0,2.5585,2.5554,2.5504,2.5434,2.5224,2.4885,2.4814,2.4685,2.4564,2.4629,2.4764,0.0,0.0,0.0,0.0,0.0,0.0,0.0,0.0,0.0,0.0,0.0,0.0,0.0,0.0,0.0,0.0,0.0,0.0,0.0,0.0,0.0,0.0,0.0,2.8293,3.0169,2.9077,2.7994,2.7084,2.6655,2.5882,0.0,2.6092,2.6418,2.4771,1.8957,1.7436,1.4886,0.8294,0.6506,0.6432,0.8098,0.7289,0.6842,0.7611,0.7443,0.7202,0.7253,0.7229,0.9702,1.5642,1.6074,1.8521,2.4097,2.4338,2.4284,2.4264,2.4096,2.3952,2.3829,2.3762,2.3623,2.344,2.3504,2.3394,2.3116,2.3116,2.3035,2.2825,2.2893,2.2944,2.2995,2.279,2.2943,2.3229,2.2066,2.1599,2.1399,1.9624,1.8651,1.8127,0.0,0.0,0.0,0.0,0.0,0.0,0.0,0.0,0.0,0.0,2.5179,2.5068,2.5006,2.4961,2.4987,0.0,0.0,0.0,0.0,0.0,0.0,0.0,0.0,0.0,0.0,2.5518,2.5544,2.5582,2.5418,2.5105,2.4667,2.4545,2.4369,2.4155,2.4266,2.4524,0.0,0.0,0.0,0.0,0.0,0.0,0.0,0.0,0.0,0.0,2.4401,2.3989,0.0,0.0,0.0,0.0,0.0,0.0,0.0,0.0,2.3787,2.3597,2.307,0.0,2.8871,2.9647,2.8507,2.7345,0.0,2.7275,2.6757,2.7495,2.5794,2.2903,1.8684,1.6545,1.375,0.8485,0.8239,0.8569,0.8344,0.7696,0.7467,0.8018,0.7799,0.759,0.7488,0.9574,1.2299,1.5604,1.7742,2.0483,2.4048,2.4284,2.421,2.3985,2.4056,2.4112,2.418,2.3858,2.3756,2.3855,2.3771,2.3624,2.341,2.341,2.3318,2.3177,2.3035,2.3003,2.307,2.2816,2.2773,2.2789,2.1935,2.1591,2.1445,2.0254,1.9228,1.8458,0.0,0.0,0.0,0.0,0.0,0.0,0.0,0.0,0.0,0.0,0.0,0.0,0.0,0.0,0.0,0.0,0.0,0.0,0.0,0.0,0.0,0.0,0.0,0.0,0.0,2.5473,2.5531,2.5601,2.5363,2.4973,2.4456,2.4205,2.3891,2.3552,2.3868,0.0,0.0,0.0,0.0,0.0,2.5566,0.0,0.0,0.0,0.0,0.0,2.4244,2.3859,0.0,2.2673,2.3218,2.406,0.0,0.0,0.0,0.0,2.3455,2.3365,2.2959,2.3864,2.526,2.6869,2.5837,2.4771,2.6056,2.5075,2.4061,2.4664,2.2999,2.0321,1.6692,1.5108,1.2949,0.8776,0.8363,0.8335,0.7728,0.7626,0.7551,0.7394,0.7508,0.753,0.7274,1.0212,1.3148,1.5731,1.842,2.1201,2.4179,2.4299,2.4247,2.4188,2.413,2.4085,2.4035,2.384,2.3753,2.3774,2.3816,2.3735,2.3544,2.3671,2.3584,2.3335,2.323,2.3151,2.3077,2.2893,2.291,2.3063,2.2499,2.2342,2.2352,2.1344,2.0291,1.936,0.0,0.0,0.0,0.0,0.0,0.0,0.0,0.0,0.0,0.0,0.0,0.0,0.0,0.0,0.0,0.0,0.0,0.0,0.0,0.0,0.0,0.0,0.0,2.5387,2.5398,2.5459,2.5525,2.5595,2.5327,2.4889,2.4308,2.384,2.3356,2.2905,2.3422,0.0,0.0,0.0,0.0,0.0,2.5564,0.0,0.0,0.0,0.0,0.0,0.0,0.0,0.0,2.1389,2.2282,2.3879,2.1892,0.0,0.0,0.0,0.0,0.0,2.3458,2.2056,2.123,2.3514,2.2871,2.2042,2.3451,2.222,2.0802,2.0993,1.9732,1.756,1.4137,1.3227,1.1869,0.836,0.754,0.7299,0.711,0.7432,0.7419,0.6659,0.7188,0.7384,0.6827,1.0428,1.3677,1.5861,1.8836,2.1709,2.4326,2.4368,2.4364,2.446,2.4247,2.399,2.3771,2.3774,2.3714,2.3566,2.3795,2.3837,2.3692,2.3917,2.3813,2.3486,2.3417,2.3253,2.3077,2.2876,2.3084,2.3432,2.3157,2.3199,2.3341,2.2476,2.1394,2.0209,0.0,0.0,0.0,0.0,0.0,0.0,0.0,0.0,0.0,0.0,0.0,0.0,0.0,0.0,0.0,0.0,0.0,0.0,0.0,0.0,0.0,0.0,2.5264,2.5274,2.539,2.5468,2.5524,2.5602,2.5339,2.4915,2.4357,2.361,2.2911,2.2245,2.2814,2.3354,2.3934,0.0,0.0,0.0,2.5542,0.0,0.0,0.0,0.0,0.0,0.0,0.0,0.0,2.3515,2.3744,2.395,2.3864,0.0,0.0,0.0,0.0,0.0,2.0395,1.9516,1.9807,2.4296,2.4622,2.3877,2.4086,2.3707,2.3003,2.181,1.8805,1.5544,1.2787,1.0967,0.8853,0.5729,0.6162,0.7166,0.7716,0.7642,0.7457,0.7221,0.7747,0.7663,0.6329,1.2087,1.5809,1.5605,2.0526,2.378,2.4301,2.4355,2.4371,2.4336,2.4247,2.4133,2.4039,2.3878,2.3816,2.3837,2.3937,2.3996,2.4016,2.4074,2.4016,2.3876,2.3432,2.3159,2.2989,2.2561,2.2579,2.2825,2.2773,2.2944,2.3151,2.2979,2.1749,1.9983,0.0,0.0,0.0,0.0,0.0,0.0,0.0,0.0,0.0,0.0,0.0,0.0,0.0,0.0,0.0,0.0,0.0,0.0,0.0,0.0,0.0,0.0,2.5371,2.5383,2.5453,2.5525,2.5568,2.5609,2.5335,2.4846,2.4169,2.2841,2.1916,2.1428,2.1995,2.267,2.3407,0.0,0.0,0.0,0.0,0.0,0.0,0.0,0.0,0.0,0.0,0.0,0.0,0.0,2.4186,2.416,2.4101,0.0,0.0,0.0,0.0,0.0,2.0085,1.962,1.9581,2.0745,2.0328,1.9516,1.9241,1.7664,1.6296,1.6436,1.3879,1.1076,0.9234,0.8752,0.7957,0.5844,0.6417,0.7091,0.6752,0.7163,0.7216,0.6367,0.7476,0.7836,0.662,1.2576,1.6338,1.5801,2.0975,2.421,2.4339,2.4409,2.4476,2.451,2.4461,2.4392,2.432,2.4136,2.404,2.3996,2.3896,2.3937,2.4151,2.3917,2.3816,2.3774,2.3282,2.2989,2.2816,2.2535,2.2497,2.2659,2.2902,2.3077,2.3164,2.2723,2.1919,2.0869,0.0,0.0,0.0,0.0,0.0,0.0,0.0,0.0,0.0,0.0,0.0,0.0,0.0,0.0,0.0,0.0,0.0,0.0,0.0,0.0,2.5448,2.5495,2.5511,2.5521,2.5523,2.5561,2.56,2.5591,2.5348,2.4689,2.3658,2.2095,2.1166,2.0745,2.1256,2.1972,2.2876,2.3712,2.4411,0.0,0.0,0.0,0.0,0.0,0.0,0.0,0.0,0.0,0.0,0.0,0.0,0.0,0.0,0.0,0.0,2.2186,2.1488,2.0811,2.0561,2.0327,1.956,1.7226,1.6369,1.5718,1.4226,1.1887,1.0135,1.0481,0.8956,0.7244,0.6307,0.6953,0.7413,0.6929,0.6871,0.67,0.6028,0.6749,0.7005,0.5903,0.7305,0.7913,0.6816,1.2636,1.6324,1.5867,2.1001,2.4247,2.4411,2.4513,2.4594,2.4723,2.461,2.4545,2.4512,2.4373,2.4211,2.4094,2.3876,2.3917,2.419,2.3816,2.361,2.3544,2.3141,2.2832,2.2632,2.2436,2.2508,2.2694,2.2935,2.3126,2.3087,2.2254,2.1831,2.1569,0.0,0.0,0.0,0.0,0.0,0.0,0.0,0.0,0.0,0.0,0.0,0.0,0.0,0.0,0.0,0.0,0.0,0.0,0.0,0.0,2.5483,2.5492,2.5561,2.5591,2.5601,2.561,2.5609,2.5607,2.5398,2.4445,2.277,2.1764,2.1023,2.0527,2.0698,2.133,2.2306,2.3061,2.386,2.4682,0.0,0.0,0.0,0.0,0.0,0.0,0.0,0.0,0.0,0.0,0.0,0.0,0.0,0.0,2.2242,2.218,2.1521,2.0827,2.099,2.0635,1.9376,1.6049,1.6414,1.6374,1.1906,1.087,0.9962,0.6885,0.6199,0.6045,0.5684,0.5878,0.6573,0.8074,0.6836,0.5945,0.6726,0.6907,0.695,0.6824,0.7764,0.7903,0.6501,1.2506,1.618,1.5415,2.0959,2.4408,2.4495,2.4629,2.4723,2.4779,2.4547,2.4464,2.4599,2.4339,2.417,2.4094,2.4016,2.4075,2.4192,2.3919,2.3692,2.3482,2.3069,2.273,2.2398,2.2141,2.2375,2.2859,2.2632,2.2712,2.2815,2.1824,2.1447,2.1396,0.0,0.0,0.0,0.0,0.0,0.0,0.0,0.0,0.0,0.0,0.0,0.0,0.0,0.0,0.0,0.0,0.0,0.0,0.0,0.0,2.5503,2.5505,2.5559,2.5626,2.5652,2.5654,2.5648,2.5604,2.4954,2.4001,2.2816,2.1769,2.0975,2.0379,2.0413,2.0847,2.164,2.2349,2.3172,2.4016,2.4638,0.0,0.0,0.0,0.0,0.0,0.0,0.0,0.0,0.0,2.4021,2.3589,2.3256,2.2773,2.2276,2.2073,2.1675,2.1246,2.099,1.9891,1.8058,1.4892,1.3842,1.2488,0.8439,0.6357,0.5157,0.4367,0.3385,0.3456,0.5988,0.4561,0.412,0.7278,0.675,0.5885,0.5801,0.6932,0.741,0.6541,0.7824,0.8225,0.6799,1.2615,1.6219,1.5658,2.1072,2.4445,2.4564,2.4738,2.4842,2.4856,2.4884,2.4827,2.466,2.461,2.4461,2.4228,2.3958,2.3981,2.432,2.3795,2.358,2.3595,2.3111,2.2824,2.2703,2.2385,2.2502,2.2908,2.291,2.3003,2.3084,2.2538,2.2332,2.2306,0.0,0.0,0.0,0.0,0.0,0.0,0.0,0.0,0.0,0.0,0.0,0.0,0.0,0.0,0.0,0.0,0.0,0.0,0.0,2.5456,2.5503,2.5493,2.5559,2.5627,2.5662,2.5683,2.5675,2.559,2.4662,2.375,2.2923,2.1826,2.1006,2.0338,2.015,2.034,2.0894,2.1433,2.2121,2.29,2.3545,2.4129,0.0,0.0,0.0,0.0,0.0,0.0,0.0,0.0,2.3534,2.3014,2.2859,2.2476,2.2091,2.2044,2.1521,2.0863,2.0291,1.9096,1.7188,1.3879,1.2398,1.0638,0.6419,0.3853,0.2245,0.1941,0.1638,0.2547,0.5986,0.4655,0.4072,0.729,0.6941,0.6125,0.5875,0.7249,0.7892,0.6819,0.8141,0.8584,0.7155,1.2818,1.6361,1.5864,2.1234,2.458,2.4676,2.487,2.4953,2.4953,2.5057,2.5006,2.4768,2.4779,2.4623,2.4321,2.406,2.4118,2.4425,2.3774,2.3535,2.3599,2.3129,2.2833,2.2703,2.2546,2.2686,2.2958,2.3084,2.3144,2.306,2.2623,2.2461,2.24,0.0,0.0,0.0,0.0,0.0,0.0,0.0,0.0,0.0,0.0,0.0,0.0,0.0,0.0,0.0,0.0,0.0,0.0,0.0,2.5421,2.551,2.5492,2.5561,2.5607,2.5605,2.5657,2.5664,2.5601,2.465,2.3787,2.2994,2.1911,2.1098,2.0477,1.995,1.9847,2.0106,2.0224,2.0631,2.123,2.1823,2.2738,2.3772,0.0,0.0,0.0,0.0,0.0,0.0,0.0,2.2761,2.205,2.2307,2.1994,2.1615,2.2152,2.1052,1.9572,1.8918,1.8337,1.7021,1.3088,1.2679,1.1824,0.6417,0.4086,0.2249,-0.0429,0.1351,0.3848,0.5429,0.6253,0.7128,0.8568,0.7359,0.6506,0.7402,0.8039,0.8256,0.78,0.8712,0.8876,0.7486,1.3155,1.6638,1.5978,2.1431,2.4837,2.4898,2.5019,2.5113,2.5113,2.4975,2.491,2.4898,2.4775,2.4604,2.4407,2.4472,2.4508,2.4478,2.3937,2.3584,2.3406,2.314,2.2738,2.2338,2.2599,2.2815,2.2993,2.2985,2.2876,2.2608,2.179,2.1497,2.1393,0.0,0.0,0.0,0.0,0.0,0.0,0.0,0.0,0.0,0.0,0.0,0.0,0.0,0.0,0.0,0.0,0.0,0.0,0.0,2.5274,2.5382,2.543,2.5546,2.559,2.5603,2.5576,2.5508,2.5382,2.4726,2.4059,2.3347,2.2251,2.1285,2.0389,1.976,1.9396,1.9235,1.9156,1.9302,1.9609,1.9847,2.0011,2.0329,0.0,0.0,0.0,0.0,0.0,0.0,0.0,0.0,0.0,2.2258,2.201,2.1691,2.2073,2.1411,2.0538,2.0156,1.7862,1.5252,1.3811,1.1362,0.8707,0.6216,0.4886,0.3523,0.1197,0.1715,0.3306,0.5665,0.6098,0.6726,0.8619,0.8354,0.7906,0.8033,0.8903,0.9488,0.9459,1.0084,1.0774,1.1442,1.5221,1.7987,1.8924,2.2638,2.4902,2.4974,2.5141,2.5239,2.5239,2.5244,2.5173,2.5032,2.5043,2.4936,2.4682,2.4654,2.4559,2.4425,2.4154,2.3842,2.3472,2.3289,2.301,2.2686,2.2446,2.2623,2.2972,2.1931,2.175,2.1958,2.116,2.0894,2.0906,0.0,0.0,0.0,0.0,0.0,0.0,0.0,0.0,0.0,0.0,0.0,0.0,0.0,0.0,0.0,0.0,0.0,0.0,0.0,0.0,2.534,2.5401,2.5499,2.5535,2.5479,2.5469,2.536,2.5185,2.4708,2.4132,2.3444,2.2435,2.1425,2.0429,1.9587,1.8979,1.8595,1.8112,1.7973,1.8057,1.7841,1.7848,1.8086,0.0,0.0,0.0,0.0,0.0,0.0,0.0,0.0,0.0,2.2324,2.2108,2.1735,2.1477,2.0416,1.9116,1.8143,1.5599,1.3014,1.2018,1.0295,0.8525,0.7223,0.5723,0.4258,0.3197,0.3301,0.4207,0.6126,0.6349,0.682,0.8606,0.8984,0.9105,0.9318,1.0316,1.1065,1.1256,1.1782,1.2563,1.369,1.6677,1.9072,2.0329,2.3293,2.5088,2.516,2.5293,2.5379,2.5378,2.5418,2.5374,2.5225,2.5235,2.4927,2.4325,2.435,2.4043,2.3429,2.3989,2.3876,2.3198,2.2562,2.2218,2.2083,2.1708,2.1864,2.2217,2.1282,2.1145,2.1388,2.0521,2.0223,2.0215,0.0,0.0,0.0,0.0,0.0,0.0,0.0,0.0,0.0,0.0,0.0,0.0,0.0,0.0,0.0,0.0,0.0,0.0,0.0,0.0,2.5312,2.5378,2.5441,2.5394,2.5243,2.5303,2.5205,2.4936,2.458,2.4062,2.3352,2.2426,2.1475,2.0469,1.9398,1.863,1.8073,1.7169,1.6739,1.6628,1.5981,1.6087,1.6557,1.597,0.0,0.0,0.0,0.0,0.0,0.0,0.0,0.0,2.2556,2.2313,2.1728,2.0841,1.8847,1.652,1.4676,1.2752,1.0831,0.9133,0.9535,1.0031,0.8906,0.6702,0.502,0.5469,0.5789,0.6215,0.6862,0.7094,0.7577,0.8752,0.9429,1.0143,1.1107,1.2046,1.2791,1.3135,1.3704,1.4328,1.5012,1.7867,1.9993,2.0896,2.3654,2.5332,2.5398,2.5472,2.5503,2.5506,2.5512,2.5434,2.5286,2.524,2.463,2.3529,2.3698,2.3139,2.199,2.3451,2.3584,2.2575,2.1334,2.0829,2.085,2.0585,2.0736,2.1064,2.0792,2.077,2.0778,1.984,1.9482,1.9353,0.0,0.0,0.0,0.0,0.0,0.0,0.0,0.0,0.0,0.0,0.0,0.0,0.0,0.0,0.0,0.0,0.0,0.0,0.0,0.0,2.5122,2.5236,2.5262,2.5135,2.4846,2.483,2.4691,2.4365,2.444,2.4036,2.3159,2.227,2.1209,2.0019,1.917,1.8436,1.7747,1.7023,1.6317,1.5625,1.474,1.4052,1.3619,1.4475,1.4708,0.0,0.0,0.0,0.0,0.0,0.0,0.0,2.2944,2.2565,2.1994,2.2046,2.0034,1.774,1.7301,1.4383,1.1437,1.1146,0.978,0.845,0.8309,0.8498,0.8402,0.7507,0.7784,0.8229,0.8377,0.922,0.9982,1.0182,1.0864,1.1765,1.2936,1.3523,1.4163,1.5149,1.5632,1.6705,1.873,1.9932,2.1486,2.3589,2.4666,2.5309,2.5469,2.5543,2.5587,2.558,2.5581,2.5215,2.4475,2.4433,2.3908,2.2898,2.2938,2.2711,2.2239,2.2572,2.2298,2.1508,2.0907,2.065,2.062,1.9987,2.0219,2.0827,1.9573,1.9427,1.9805,1.9012,1.8673,1.8557,0.0,0.0,0.0,0.0,0.0,0.0,0.0,0.0,0.0,0.0,0.0,0.0,0.0,0.0,0.0,0.0,0.0,0.0,0.0,0.0,0.0,2.5059,2.4682,2.4427,2.4319,2.3976,2.3807,2.382,2.3768,2.3484,2.2981,2.2075,2.1131,2.0143,1.9169,1.8412,1.7909,1.7093,1.6368,1.5638,1.4558,1.3684,1.303,1.2861,1.3235,1.4255,1.7654,0.0,0.0,0.0,0.0,0.0,0.0,0.0,2.2459,2.181,2.0036,1.7939,1.6392,1.3613,1.1103,1.0751,0.9851,0.9247,0.9752,1.0357,1.0691,1.0251,1.0422,1.0601,1.0411,1.1107,1.1682,1.1486,1.2199,1.3168,1.4139,1.4902,1.57,1.6722,1.7329,1.8454,2.0582,2.1226,2.239,2.4485,2.5013,2.5311,2.5488,2.5558,2.5607,2.56,2.5229,2.4793,2.4303,2.3842,2.3101,2.2074,2.2104,2.1779,2.1148,2.1414,2.1237,2.0694,2.0143,1.9823,1.9723,1.9321,1.9389,1.9668,1.8902,1.8755,1.893,1.847,1.8252,1.8191,0.0,0.0,0.0,0.0,0.0,0.0,0.0,0.0,0.0,0.0,0.0,0.0,0.0,0.0,0.0,0.0,0.0,0.0,0.0,0.0,0.0,0.0,2.4258,2.3928,2.3919,2.3329,2.3107,2.33,2.2999,2.2828,2.2735,2.1814,2.1055,2.0398,1.9191,1.847,1.8109,1.7271,1.6574,1.594,1.4846,1.4064,1.3406,1.1796,1.2453,1.4501,1.6586,1.8795,2.1085,2.367,0.0,0.0,0.0,0.0,2.3003,2.1541,1.9909,1.7935,1.4947,1.2472,1.0539,0.9746,1.0061,1.0735,1.1417,1.1817,1.2197,1.2643,1.2805,1.2821,1.2521,1.2922,1.3212,1.2978,1.3647,1.4413,1.5171,1.62,1.7205,1.8064,1.8712,1.9703,2.1351,2.1969,2.2935,2.4484,2.5013,2.5313,2.5454,2.5402,2.5386,2.5381,2.4609,2.4102,2.3945,2.3171,2.2271,2.1234,2.1247,2.0756,1.9904,2.0331,2.0365,2.0045,1.9376,1.8984,1.8825,1.8806,1.8695,1.8524,1.8622,1.8528,1.833,1.8252,1.8173,1.8069,0.0,0.0,0.0,0.0,0.0,0.0,0.0,0.0,0.0,0.0,0.0,0.0,0.0,0.0,0.0,0.0,0.0,0.0,2.3094,0.0,0.0,2.4651,2.4759,2.456,2.3993,2.3887,2.3548,2.2968,2.2754,2.2456,2.2085,2.1408,2.0758,2.0208,1.9317,1.8577,1.8002,1.7476,1.6672,1.5776,1.5096,1.4457,1.3768,1.2502,1.1816,1.2067,1.6102,1.7504,1.8138,2.2777,2.4316,0.0,0.0,0.0,2.3437,2.2933,2.0949,1.8505,1.6488,1.3453,1.0764,1.0375,1.0787,1.1234,1.1141,1.1963,1.2855,1.3141,1.3949,1.4492,1.4092,1.463,1.5148,1.5077,1.52,1.5636,1.665,1.7423,1.821,1.908,1.9603,2.0296,2.139,2.2133,2.2999,2.41,2.4777,2.5197,2.5313,2.4781,2.4477,2.4475,2.3694,2.2903,2.2148,2.2026,2.1486,2.0538,2.0307,2.0049,1.9821,1.9826,1.9753,1.9582,1.9182,1.8998,1.8964,1.8843,1.8715,1.8604,1.8789,1.8698,1.8485,1.8639,1.845,1.8132,0.0,0.0,0.0,0.0,0.0,0.0,0.0,0.0,0.0,0.0,0.0,0.0,0.0,0.0,0.0,1.928,1.9565,2.0533,2.2428,2.4238,2.4918,2.4138,2.4062,2.3766,2.3173,2.3007,2.2936,2.2977,2.2801,2.262,2.2368,2.1906,2.1326,2.0649,1.9758,1.8954,1.8249,1.772,1.6854,1.5744,1.5276,1.4835,1.4387,1.3198,1.2589,1.2686,1.5398,1.6892,1.8099,2.1474,2.3435,2.4362,2.373,0.0,0.0,0.0,2.1549,2.005,1.7156,1.4218,1.198,1.2039,1.2492,1.2949,1.3293,1.3551,1.384,1.4235,1.4935,1.5427,1.5259,1.602,1.6615,1.635,1.6523,1.699,1.772,1.8171,1.8765,1.9639,2.0224,2.0927,2.1859,2.2573,2.3368,2.4262,2.4762,2.4893,2.4534,2.4306,2.3976,2.3521,2.2745,2.2131,2.1753,2.1308,2.0824,2.0338,2.0185,2.0069,1.9969,1.9936,1.9517,1.8835,1.9206,1.9017,1.8528,1.8919,1.8931,1.8715,1.8807,1.8715,1.8505,1.86,1.8487,1.833,0.0,0.0,0.0,0.0,0.0,0.0,0.0,0.0,0.0,0.0,0.0,0.0,0.0,0.0,0.0,0.0,1.7295,1.8321,2.1005,2.3153,2.4042,2.3449,2.3356,2.3151,2.2782,2.2407,2.2461,2.2994,2.2944,2.2884,2.2858,2.2563,2.2048,2.1335,2.019,1.9229,1.8338,1.7814,1.6866,1.5656,1.5287,1.4983,1.4674,1.3647,1.3613,1.4304,1.5638,1.722,1.9005,2.123,2.2863,2.3814,2.2903,2.2917,0.0,0.0,0.0,2.067,1.7796,1.5434,1.3807,1.3896,1.4253,1.4662,1.5001,1.4779,1.4665,1.5105,1.5708,1.6193,1.6373,1.7155,1.763,1.7277,1.7648,1.8136,1.8528,1.8779,1.9266,2.0115,2.0714,2.1425,2.2346,2.2981,2.3629,2.4424,2.4746,2.4702,2.4208,2.39,2.3452,2.2894,2.1907,2.1367,2.1369,2.0813,2.0455,2.0324,2.0276,2.0211,2.0127,2.0127,1.9503,1.8465,1.9301,1.922,1.8525,1.9096,1.9134,1.8806,1.8861,1.8752,1.8582,1.862,1.862,1.8582,0.0,0.0,0.0,0.0,0.0,0.0,0.0,0.0,0.0,0.0,0.0,0.0,0.0,1.6114,1.5743,1.5893,1.5356,1.5948,1.8244,2.0401,2.1915,2.2641,2.3139,0.0,2.3531,2.2831,2.2647,2.3001,2.3123,2.3217,2.327,2.3123,2.2723,2.2066,2.0607,1.9302,1.8066,1.7462,1.6539,1.5389,1.504,1.4731,1.4326,1.3658,1.4504,1.6219,1.7559,1.8846,2.0318,2.297,2.3135,2.2154,2.1718,2.156,2.1411,0.0,0.0,0.0,1.88,1.7619,1.6281,1.5514,1.574,1.5936,1.4937,1.48,1.4981,1.5381,1.6044,1.6844,1.7743,1.7872,1.7943,1.8009,1.8412,1.8827,1.9026,1.9384,1.996,2.0763,2.1039,2.1619,2.2754,2.32,2.3684,2.4358,2.461,2.478,2.493,2.3507,2.2729,2.2789,2.1285,2.0468,2.0461,2.0546,2.0531,2.0395,2.0399,2.0308,2.0192,2.0192,1.9687,1.8802,1.9487,1.9682,1.9513,1.9419,1.9148,1.8824,1.8999,1.8966,1.8806,1.9002,1.8949,1.8806,0.0,0.0,0.0,0.0,0.0,0.0,0.0,0.0,0.0,0.0,0.0,0.0,0.0,1.413,1.3957,1.3767,1.4029,1.4492,1.5086,1.721,1.8647,1.9103,2.0319,2.1141,2.1533,2.2389,2.2958,2.3268,2.3785,2.4025,2.3984,2.3753,2.3164,2.2335,2.1084,1.9647,1.811,1.7395,1.6213,1.4755,1.395,1.3423,1.2956,1.137,1.1546,1.2446,1.0715,1.2256,1.4992,1.4057,1.6856,2.0399,1.8354,1.9863,2.2149,2.1071,2.0384,1.9914,1.9645,1.8629,1.7657,1.771,1.755,1.729,1.6855,1.6358,1.5976,1.5849,1.6044,1.6438,1.7168,1.8065,1.8782,1.9003,1.9258,1.9407,1.9523,1.9949,2.0449,2.0959,2.1622,2.2289,2.2954,2.3459,2.3903,2.4374,2.4543,2.4501,2.4183,2.3183,2.2422,2.2049,2.0965,2.042,2.0455,2.0547,2.0536,2.0398,2.039,2.034,2.0199,2.0199,1.9981,1.964,1.9878,1.9563,1.8933,1.9348,1.9361,1.9134,1.9115,1.9051,1.9002,1.907,1.9053,1.9002,0.0,0.0,0.0,0.0,0.0,0.0,0.0,0.0,0.0,0.0,0.0,0.0,0.0,0.0,1.1198,1.0549,1.1002,1.134,1.1342,1.3316,1.4868,1.5742,1.7015,1.8159,1.9085,2.0159,2.1122,2.2014,2.2678,2.3318,2.3936,2.3522,2.2954,2.2318,2.1141,1.9721,1.8215,1.7081,1.574,1.4247,1.2803,1.2089,1.1679,1.0066,0.9634,0.9428,0.5696,0.6671,0.9359,0.7183,0.96,1.3547,1.3866,1.772,2.196,2.1114,2.0894,2.0939,2.0907,2.0256,1.9568,1.9716,1.9351,1.8797,1.817,1.7571,1.6985,1.6454,1.6497,1.6854,1.7382,1.8411,1.9253,1.9455,1.9643,1.9878,2.0025,2.0382,2.0846,2.1383,2.2113,2.2746,2.3189,2.3671,2.4096,2.4392,2.4493,2.4437,2.4144,2.3118,2.2115,2.1191,2.0693,2.0465,2.0521,2.0585,2.0529,2.0406,2.04,2.0321,2.0205,2.0205,2.018,2.0126,2.0126,1.9687,1.9002,1.9451,1.9504,1.9289,1.918,1.9119,1.9087,1.9087,1.9087,1.9087,0.0,0.0,0.0,0.0,0.0,0.0,0.0,0.0,0.0,0.0,0.0,0.0,0.0,0.0,0.0,0.637,0.6235,0.653,0.7163,0.8814,1.0668,1.2721,1.3516,1.4696,1.6424,0.0,0.0,0.0,0.0,0.0,0.0,2.2373,2.2057,2.1979,2.0728,1.9495,1.8282,1.6604,1.5229,1.3935,1.1729,1.0821,1.0602,0.9742,0.8851,0.7433,0.3179,0.2698,0.3942,0.3283,0.2088,0.2102,0.8931,1.5479,2.0678,2.0805,2.1395,2.2141,0.0,0.0,0.0,2.1424,2.1124,2.0494,1.87,1.8331,1.8129,1.7256,1.757,1.8135,1.8539,1.9035,1.9369,1.9244,1.969,2.0166,2.0563,2.0681,2.107,2.1994,2.2476,2.2923,2.3437,2.3876,2.4171,2.4394,2.4462,2.4648,2.4977,2.3365,2.1771,2.0394,2.0448,2.0519,2.0566,2.0586,2.0522,2.0363,2.0386,2.0328,2.0192,2.0192,2.0205,2.0192,2.0192,2.0098,1.9904,1.975,1.954,1.9265,1.923,1.9152,1.9086,1.9104,1.9104,1.9104,0.0,0.0,0.0,0.0,0.0,0.0,0.0,0.0,0.0,0.0,0.0,0.0,0.0,0.0,0.6448,0.5165,0.5091,0.5011,0.4782,0.5806,0.7091,0.8579,1.0059,1.1668,1.3515,0.0,0.0,0.0,0.0,0.0,0.0,0.0,0.0,2.0847,1.9884,1.8869,1.7739,1.6547,1.533,1.4007,1.1499,0.9307,0.7338,0.4602,0.2403,0.0325,-0.2965,-0.3178,-0.22,-0.4392,0.0783,0.9486,1.7334,2.0747,2.1777,2.158,2.2153,2.2905,2.3077,0.0,0.0,0.0,0.0,0.0,2.1128,2.0444,1.967,1.8603,1.8556,1.8713,1.8754,1.9147,1.9566,1.9803,2.0045,2.0357,2.0763,2.1181,2.1639,2.2258,2.2849,2.3307,2.3544,2.3896,2.4171,2.4394,2.4561,2.4752,2.4991,2.3617,2.2371,2.134,2.0834,2.0275,1.9666,2.0273,2.0233,1.9539,2.0122,2.0364,2.0275,2.0215,2.0205,2.0192,2.0192,2.0136,2.003,1.9907,1.9369,1.87,1.9234,1.8959,1.8367,1.8968,1.917,1.917,0.0,0.0,0.0,0.0,0.0,0.0,0.0,0.0,0.0,0.0,0.0,0.0,0.0,0.0,0.3338,0.283,0.2516,0.2366,0.2325,0.2945,0.3785,0.5018,0.681,0.8672,1.0482,0.0,0.0,0.0,0.0,0.0,0.0,0.0,0.0,0.0,1.8892,1.8027,1.7255,1.6219,1.5028,1.3585,1.0669,0.8059,0.5383,0.0819,-0.2002,-0.3984,-0.7356,-0.825,-0.7747,-0.7384,0.1323,1.2771,1.7225,2.0659,2.2965,2.26,2.2829,2.3262,2.3581,2.3719,2.3832,2.3949,0.0,0.0,2.1703,2.0959,2.0152,1.8896,1.8892,1.9105,1.9205,1.9681,2.0174,2.0413,2.0663,2.0861,2.1087,2.1582,2.2062,2.251,2.306,2.3458,2.3584,2.3917,2.419,2.4339,2.4545,2.461,2.4468,2.3535,2.2586,2.1697,2.0979,2.0362,1.9859,2.0351,2.0312,1.9741,2.0196,2.0354,2.0289,2.0258,2.0241,2.0208,2.0208,2.0182,2.0107,1.965,1.9092,1.8519,1.8849,1.8605,1.8108,1.8541,1.8909,1.9202,0.0,0.0,0.0,0.0,0.0,0.0,0.0,0.0,0.0,0.0,0.0,0.0,0.0,0.0,0.0,0.0,-0.0725,-0.0724,0.0112,0.0502,0.1165,0.2258,0.4076,0.5863,0.7522,0.0,0.0,0.0,0.0,0.0,0.0,0.0,0.0,0.0,0.0,1.7096,1.6693,1.5708,1.4573,1.3233,1.0252,0.7664,0.4918,-0.0775,-0.3978,-0.6001,-0.9769,-1.1722,-1.1713,-0.6264,0.3429,1.3213,1.3184,1.8141,2.3865,2.3363,2.3254,2.3389,2.3913,2.4166,2.4273,2.429,2.3971,0.0,2.1524,2.087,2.0249,1.9046,1.9222,1.9681,1.9993,2.0635,2.1149,2.1308,2.1538,2.1625,2.1493,2.1907,2.2402,2.2799,2.3193,2.3481,2.3606,2.3976,2.4228,2.4284,2.4513,2.4418,2.3891,2.3416,2.2721,2.1784,2.1084,2.0635,2.0464,2.0546,2.0527,2.0368,2.0399,2.0381,2.0302,2.0203,2.0139,2.0057,1.9961,1.9975,1.999,1.9118,1.8649,1.8461,1.8261,1.8046,1.7859,1.7888,1.841,1.9086,0.0,0.0,0.0,0.0,0.0,0.0,0.0,0.0,0.0,0.0,0.0,0.0,0.0,0.0,0.0,0.0,-0.2184,-0.1734,-0.0897,0.0056,0.0894,0.1728,0.3019,0.4239,0.5475,0.6284,0.0,0.0,0.0,0.0,0.0,0.0,0.0,0.0,0.0,1.6077,1.5784,1.4994,1.4857,1.504,1.3726,1.091,0.7141,0.4206,-0.0199,-0.5118,-0.7759,-0.9723,-0.9593,0.0242,0.7375,1.3011,1.8195,2.135,2.2913,2.1755,2.253,2.3674,2.327,2.3901,2.471,2.482,2.4069,0.0,2.3693,2.2799,2.1907,2.1793,2.1931,2.1976,2.1585,2.1968,2.2573,2.3241,2.2995,2.2556,2.2119,2.2313,2.2678,2.3077,2.3412,2.366,2.3753,2.4016,2.4228,2.4284,2.4629,2.486,2.4892,2.4365,2.3636,2.2741,2.1976,2.0926,1.9579,2.0253,2.0234,1.9531,2.0183,2.0448,2.0352,1.9651,1.931,1.9212,1.8494,1.8555,1.9088,1.8263,1.7846,1.771,1.756,1.7015,1.6422,1.7046,1.7787,1.8498,0.0,0.0,0.0,0.0,0.0,0.0,0.0,0.0,0.0,0.0,0.0,0.0,0.0,-0.3779,-0.3962,0.0,0.0,0.0,0.0,-0.0784,0.0392,0.1513,0.2798,0.3802,0.4632,0.5521,0.0,0.0,0.0,0.0,0.0,0.0,0.0,0.0,0.0,1.5389,1.5555,1.472,1.4649,1.5064,1.419,1.2446,1.0022,0.681,0.2751,-0.1541,-0.3981,-0.3891,-0.1725,0.3626,0.9261,1.4718,1.8734,2.0356,2.0781,2.0951,2.1972,2.3062,2.3166,2.4085,2.5031,2.5168,2.4316,0.0,0.0,2.2616,2.197,2.1884,2.223,2.2659,2.3076,2.3092,2.3343,2.4208,2.3674,2.3088,2.2968,2.2989,2.3042,2.3175,2.3504,2.3728,2.3795,2.4037,2.4247,2.4393,2.4651,2.4904,2.508,2.4499,2.3993,2.365,2.2458,2.1407,2.0593,2.0566,2.0114,1.9254,2.0063,1.997,1.9118,1.9471,1.916,1.8329,1.8715,1.8879,1.8814,1.8498,1.827,1.8089,1.7526,1.7041,1.6736,1.7435,1.7994,1.8466,0.922,0.0,0.0,0.0,0.0,0.0,0.0,0.0,0.0,0.0,-0.3035,-0.5396,-0.4885,-0.5632,-0.5792,-0.4944,0.0,0.0,-0.3125,-0.1783,-0.0391,0.1066,0.2519,0.353,0.4039,0.5116,0.6332,0.0,0.0,0.0,0.0,0.0,0.0,1.4631,1.479,1.5061,1.5413,1.5071,1.5222,1.5509,1.485,1.3924,1.2513,0.8941,0.5743,0.2713,-0.0255,0.1874,0.5955,0.557,1.0118,1.6179,1.7228,1.7821,1.8365,1.9585,2.0735,2.1761,2.2525,2.3727,2.4838,2.5079,2.4463,2.355,0.0,0.0,0.0,2.1686,2.226,2.3177,2.4335,2.4099,2.4045,2.4968,2.4279,2.3751,2.4094,2.3982,2.3777,2.3549,2.3665,2.3828,2.4055,2.4296,2.4469,2.4528,2.4776,2.4974,2.5041,2.4543,2.4273,2.4292,2.2838,2.2006,2.1902,2.0976,2.0063,1.9229,1.9869,1.9347,1.7843,1.8975,1.8797,1.77,1.8882,1.9179,1.8833,1.8785,1.8874,1.8945,1.7764,1.7338,1.7414,1.7912,1.8279,1.8598,0.8041,0.773,0.0,0.0,0.0,0.0,0.0,0.0,-0.0056,-0.1828,-0.5149,-0.7312,-0.7205,-0.8846,-0.9636,-0.8844,-0.7799,-0.6347,-0.4341,-0.2927,-0.1612,-0.0224,0.1455,0.2462,0.2736,0.3802,0.4739,0.0,0.0,0.0,0.0,0.0,0.0,1.2624,1.4783,1.5392,1.4837,1.6886,1.8095,1.876,1.9338,1.7034,1.3139,1.2304,0.9638,0.5808,0.1676,0.3351,0.7471,0.6798,1.0449,1.5195,1.4975,1.5587,1.631,1.5916,1.7503,1.9517,1.9868,2.1556,2.3402,2.4087,2.4155,2.3999,2.3829,0.0,2.3624,2.3517,0.0,2.4835,2.4987,0.0,0.0,2.6171,2.5469,2.5034,2.5645,2.5668,2.539,2.4771,2.4266,2.4249,2.4978,2.5237,2.5153,2.4698,2.5349,2.5593,2.5198,2.5159,2.488,2.4312,2.3423,2.2611,2.1902,2.0976,2.0085,1.9299,1.9309,1.8799,1.7779,1.7184,1.72,1.765,1.7144,1.7701,1.8912,1.8229,1.8722,1.9783,1.806,1.7315,1.7225,1.7303,1.787,1.862,0.7315,0.6655,0.0,0.0,0.0,0.0,0.0,0.0216,-0.2563,-0.3382,-0.5035,-0.6317,-0.6873,-0.8099,-0.8698,-0.8209,-0.7805,-0.686,-0.5015,-0.3542,-0.2058,-0.0615,0.0615,0.1677,0.2573,0.3186,0.3907,0.4846,0.6259,0.0,0.0,0.0,0.0,1.3065,1.5175,1.6598,1.7378,1.8209,1.9023,1.9732,1.9045,1.7555,1.5725,1.5428,1.2426,0.7992,0.4998,0.5479,0.759,0.8088,0.964,1.1518,1.2522,1.3138,1.3623,1.4314,1.6166,1.8159,1.8865,2.0987,2.3165,2.3642,2.3985,2.4164,2.3974,2.3968,2.3964,2.3839,0.0,0.0,0.0,0.0,0.0,0.0,2.5657,2.5247,2.6121,2.563,2.525,2.5407,2.5757,2.5925,2.5793,2.5828,2.5565,2.487,2.5603,2.5831,2.5293,2.529,2.5246,2.5118,2.3803,2.2942,2.2605,2.1208,2.008,1.9249,1.9178,1.8401,1.7053,1.7111,1.6785,1.6239,1.6857,1.7262,1.7542,1.826,1.8603,1.8709,1.8774,1.8432,1.7954,1.8372,1.8247,1.7935,0.6107,0.0,0.4509,0.4072,0.2715,0.1334,0.0374,-0.2359,-0.4298,-0.4336,-0.5475,-0.6489,-0.6977,-0.8162,-0.8775,-0.8436,-0.8325,-0.7535,-0.5846,-0.4152,-0.2613,-0.134,0.0056,0.1118,0.179,0.2627,0.3519,0.4301,0.0,0.0,0.0,0.0,0.0,0.0,1.5401,1.7518,1.909,1.9515,2.0124,2.0736,1.9423,1.8097,1.6825,1.6603,1.3961,1.0202,0.8273,0.7941,0.856,0.9169,0.9253,0.9287,1.0653,1.1048,1.1282,1.2657,1.4317,1.6007,1.7264,1.9544,2.177,2.2668,2.3524,2.4098,2.3933,2.4083,2.4149,2.3779,2.4302,0.0,0.0,0.0,2.5291,2.5973,0.0,2.5325,2.6051,2.5868,2.5874,2.6472,2.7243,2.743,2.666,2.672,2.639,2.5421,2.6092,2.6209,2.5406,2.534,2.5447,2.5687,2.4241,2.3332,2.3091,2.1617,2.0174,1.8831,1.878,1.7838,1.616,1.6701,1.6401,1.5549,1.6783,1.7119,1.6897,1.8222,1.8348,1.7798,1.8739,1.8655,1.8111,1.8818,1.846,1.7677,0.4146,0.383,0.3473,0.3037,0.1943,0.0278,-0.2171,-0.3956,-0.4912,-0.4691,-0.7348,-0.9073,-0.868,-1.0739,-1.1902,-1.1213,-1.0426,-0.9044,-0.6903,-0.5008,-0.3602,-0.2847,-0.0056,0.0838,-0.0447,0.2178,0.3527,0.3355,0.4304,0.0,0.0,0.0,0.0,0.0,1.5323,1.7683,1.8585,2.0912,2.2144,2.2507,2.2315,1.9409,1.5133,1.4814,1.3895,1.259,1.0972,1.078,1.1158,1.0005,0.985,1.0108,0.9938,0.9666,0.96,1.0207,1.1146,1.2402,1.4305,1.6218,1.8274,2.075,2.255,2.375,2.3875,2.43,2.4442,2.3602,2.3851,2.4174,2.4004,2.4379,2.4731,2.4758,2.5175,0.0,0.0,2.7008,2.8175,2.8393,2.8492,2.8293,2.7617,2.8192,2.8005,2.6563,2.7075,2.6891,2.5564,2.5425,2.548,2.5687,2.4829,2.3957,2.3111,2.2204,2.0472,1.7936,1.7868,1.6937,1.5248,1.5264,1.5719,1.6452,1.6576,1.7058,1.775,1.7896,1.7835,1.7684,1.7453,1.7243,1.712,1.7798,1.818,1.8263,0.24,0.2096,0.176,0.1499,0.0725,-0.0447,-0.2293,-0.3452,-0.4969,-0.7172,-0.893,-1.0545,-1.1997,-1.3341,-1.3447,-1.1653,-1.137,-1.0262,-0.7947,-0.6196,-0.4751,-0.3674,-0.1765,-0.0514,-0.0056,0.1228,0.2237,0.2745,0.3286,0.4052,0.0,0.0,0.0,0.0,1.5097,1.8194,2.056,2.222,2.344,2.4117,2.2366,1.9688,1.6321,1.2332,1.0243,0.9469,0.9565,0.9273,0.9101,1.0368,1.0391,0.9969,1.0285,1.0482,1.0474,1.0423,1.1232,1.2453,1.3549,1.5338,1.74,1.9402,2.1287,2.2898,2.3813,2.3448,2.2976,2.3164,2.232,2.1561,2.1636,2.2088,2.268,2.3339,2.4046,2.4952,0.0,2.7949,2.8671,2.7637,2.7998,2.8249,2.802,2.7651,2.7237,2.6735,2.6786,2.6448,2.555,2.5437,2.5467,2.5629,2.4837,2.3973,2.3118,2.2242,2.106,1.9616,1.8431,1.7568,1.6953,1.5787,1.5433,1.5715,1.5726,1.5883,1.6194,1.6788,1.6709,1.6265,1.7108,1.7006,1.6479,1.7071,1.7021,1.6611,0.057,0.0281,0.0167,0.0502,-0.0168,-0.1182,-0.2388,-0.427,-0.6416,-0.8666,-1.0723,-1.2455,-1.3708,-1.4334,-1.3856,-1.1862,-1.1669,-1.0582,-0.8261,-0.6721,-0.5451,-0.4384,-0.3031,-0.1918,-0.1078,0.0112,0.1006,0.1621,0.2372,0.3286,0.0,0.0,0.0,0.0,1.4535,1.8012,2.1183,2.2337,2.3554,2.4473,2.1317,1.8882,1.6506,1.0811,0.8487,0.8379,0.955,0.9055,0.8211,1.0859,1.1099,1.034,1.0573,1.0739,1.0771,1.0278,1.0819,1.1751,1.2614,1.4031,1.5802,1.7876,1.9663,2.1185,2.2495,2.2161,2.1603,2.1582,2.0603,1.9898,2.0292,2.082,2.1664,2.3128,2.4002,2.5057,0.0,2.7886,2.8207,2.7098,2.7973,2.8533,2.8222,2.7934,2.7472,2.6779,2.6908,2.6577,2.5529,2.5444,2.5505,2.5625,2.5137,2.4447,2.3573,2.2709,2.1511,2.0017,1.8585,1.7587,1.6929,1.5816,1.5311,1.5345,1.5346,1.5337,1.5389,1.5937,1.5879,1.5488,1.6347,1.6276,1.5765,1.6276,1.6045,1.5424,-0.141,-0.1489,-0.1233,-0.0,-0.0955,-0.2095,-0.2789,-0.6495,-0.9322,-0.9458,-1.2868,-1.4911,-1.41,-1.4072,-1.3524,-1.1994,-1.1388,-1.0156,-0.7823,-0.6627,-0.5619,-0.4958,-0.3884,-0.3353,-0.3329,-0.1191,-0.0056,-0.0056,0.1624,0.2766,0.0,0.0,0.0,0.0,1.3664,1.7164,2.0411,2.1369,2.2675,2.3737,1.9651,1.7379,1.5878,1.0607,0.8941,0.9579,1.1006,1.0158,0.8785,1.1547,1.1957,1.121,1.0737,1.0568,1.0423,0.9951,0.9975,1.0365,1.1487,1.2342,1.3503,1.6204,1.7684,1.8782,2.0027,2.0521,2.0367,1.9148,1.8929,1.9173,1.9931,2.0565,2.1686,2.3886,2.4882,2.572,2.6684,2.6922,2.6952,2.6852,2.8333,2.9039,2.8217,2.8846,2.8564,2.6728,2.744,2.72,2.5484,2.5511,2.5604,2.5691,2.5703,2.5288,2.4394,2.3528,2.1823,1.9309,1.8352,1.705,1.5433,1.5342,1.5349,1.5404,1.54,1.5391,1.5391,1.539,1.541,1.5371,1.5246,1.511,1.505,1.5494,1.5299,1.4873,-0.2714,-0.2797,-0.2878,-0.2887,-0.4106,-0.5164,-0.5267,-0.9372,-1.3097,-1.4832,-1.7113,-1.8505,-1.8339,-1.7867,-1.6181,-1.2771,-1.2007,-1.0567,-0.7848,-0.7116,-0.6315,-0.5265,-0.4339,-0.3683,-0.3288,-0.1794,-0.0838,-0.0504,0.0831,0.2013,0.3076,0.0,0.0,0.9803,1.2709,1.6027,1.9523,2.087,2.2396,2.3701,2.1772,1.9976,1.8138,1.5368,1.3293,1.1747,1.0819,1.0421,1.0748,1.3251,1.3281,1.2192,1.1964,1.217,1.2341,1.1723,1.1581,1.1608,1.1737,1.2169,1.2938,1.4627,1.5837,1.7068,1.8826,1.8497,1.8329,2.0012,1.917,1.8419,1.9462,2.0188,2.0926,2.1862,2.3839,2.5385,2.5805,2.6469,2.668,2.6009,2.6851,2.7422,2.7245,2.6852,2.663,2.6669,2.6893,2.6505,2.5322,2.599,2.6135,2.5577,2.5659,2.5269,2.4327,2.3516,2.2437,2.1111,1.8986,1.7738,1.7252,1.5908,1.5339,1.5396,1.5407,1.5405,1.5391,1.5409,1.5366,1.5316,1.5186,1.4973,1.4801,1.5027,1.5106,1.5124,-0.4209,-0.4293,-0.4395,-0.4547,-0.7177,-0.8911,-0.7864,-1.1522,-1.5335,-1.793,-2.0132,-2.1072,-2.0146,-1.8773,-1.6471,-1.279,-1.1566,-0.987,-0.7313,-0.6747,-0.6065,-0.5067,-0.4568,-0.4195,-0.3945,-0.2531,-0.1452,-0.0781,0.0838,0.2213,0.3255,0.0,0.0,0.9346,1.1903,1.4865,1.8041,2.0478,2.2262,2.3384,2.2903,2.181,0.0,1.7828,1.6347,1.5257,1.2976,1.1775,1.1655,1.4174,1.4273,1.3368,1.3161,1.3415,1.3636,1.3059,1.2773,1.2623,1.2523,1.2506,1.2733,1.362,1.4419,1.5329,1.6472,1.6657,1.6568,1.6536,1.6157,1.6028,1.6645,1.7684,1.9308,2.175,2.368,2.4926,2.5157,2.5788,2.6037,2.5577,2.5917,2.6193,2.6234,2.6195,2.6458,2.7167,2.7289,2.6894,2.5912,2.6387,2.6345,2.557,2.5619,2.5403,2.4864,2.3695,2.2654,2.1736,1.9179,1.7776,1.7378,1.5971,1.5362,1.5394,1.5402,1.5405,1.54,1.5368,1.5548,1.5857,1.6066,1.5808,1.531,1.5393,1.53,1.5127,-0.5719,-0.5763,-0.5671,-0.554,-0.9505,-1.2272,-1.0771,-1.388,-1.7362,-1.9912,-2.2008,-2.2362,-2.0139,-1.769,-1.5045,-1.2072,-1.0427,-0.8619,-0.6398,-0.5906,-0.5344,-0.4553,-0.4467,-0.4403,-0.4365,-0.2884,-0.1614,-0.0665,0.1395,0.2852,0.0,0.0,0.7177,0.8826,1.127,1.4038,1.7035,2.0473,2.2368,2.3093,2.3407,2.2992,2.1849,1.9085,1.8506,1.8772,1.6155,1.3884,1.2472,1.4767,1.5138,1.4582,1.4354,1.4498,1.4668,1.4163,1.3826,1.3657,1.3574,1.3138,1.2765,1.2948,1.3383,1.3819,1.397,1.5174,1.545,1.2545,1.3041,1.4035,1.408,1.527,1.7792,2.2487,2.3783,2.4308,2.4708,2.5089,2.5342,2.5401,2.5318,0.0,2.5568,2.636,2.7109,2.7693,2.8051,2.7774,2.6727,2.6801,2.6466,2.559,2.558,2.5522,2.5424,2.386,2.2628,2.1688,1.9119,1.7536,1.6846,1.5844,1.5396,1.5394,1.5387,1.5362,1.5375,1.5431,1.592,1.6687,1.7137,1.68,1.6073,1.597,1.5514,1.5002,-0.6203,-0.6586,-0.6782,-0.6475,-0.8951,-1.1925,-1.4722,-1.9229,-2.2409,-2.2741,-2.2178,-2.0879,-1.8613,-1.526,-1.2278,-1.0015,-0.8945,-0.7547,-0.5601,-0.5698,-0.5096,-0.3589,-0.3082,-0.2722,-0.2469,-0.1115,-0.0111,0.0612,0.1956,0.3074,0.3953,0.5428,0.6916,0.8506,1.0681,1.4552,1.9592,2.1769,2.3206,2.3953,2.3759,2.3199,2.2354,2.0944,1.994,1.9104,1.7805,1.6544,1.5569,1.6131,1.6113,1.5871,1.5751,1.6001,1.6208,1.5664,1.533,1.5007,1.4387,1.3485,1.2685,1.2564,1.2812,1.3134,1.3456,1.4883,1.6381,1.7322,1.7666,1.8055,1.8684,1.8485,1.911,2.1953,2.275,2.3352,2.4408,2.5072,2.5473,2.5483,2.4851,2.4996,2.6487,2.6654,2.6698,2.6812,2.8172,2.8279,2.6621,2.7329,2.7032,2.5398,2.5466,2.5171,2.4457,2.3509,2.2602,2.1749,1.9132,1.787,1.7728,1.6077,1.5327,1.5319,1.5268,1.5241,1.5287,1.5996,1.6706,1.7257,1.6546,1.6126,1.5847,1.5192,1.4858,1.4794,-0.693,-0.7093,-0.7327,-0.7955,-1.0186,-1.2919,-1.6146,-1.9324,-2.1855,-2.3072,-2.1904,-1.9736,-1.6523,-1.4161,-1.1602,-0.851,-0.7708,-0.6105,-0.3181,-0.285,-0.249,-0.1725,-0.1487,-0.1375,-0.1332,0.0167,0.1113,0.1448,0.3302,0.436,0.4723,0.5528,0.6624,0.8148,1.1826,1.56,1.9351,2.1939,2.3249,2.3537,2.3877,2.3581,2.2868,2.201,2.0608,1.9026,1.8082,1.6904,1.5905,1.6318,1.6468,1.6517,1.661,1.6872,1.6855,1.5265,1.4678,1.4427,1.3803,1.2785,1.2102,1.2871,1.2853,1.2788,1.3383,1.4482,1.545,1.5686,1.6044,1.6397,1.6623,1.7571,1.87,2.0015,2.1293,2.2485,2.3472,2.448,2.5192,2.5335,2.4993,2.5074,2.5834,2.6234,2.6709,2.7376,2.8162,2.8058,2.6726,2.7521,2.7194,2.541,2.5406,2.5208,2.4668,2.3485,2.2675,2.2188,1.9677,1.8288,1.791,1.651,1.5649,1.5289,1.516,1.512,1.5248,1.6498,1.7432,1.8057,1.8012,1.7636,1.7052,1.6235,1.5681,1.5297,-0.8234,-0.817,-0.8425,-0.946,-1.1619,-1.3931,-1.5924,-1.7484,-1.93,-2.16,-2.0112,-1.7596,-1.4286,-1.2283,-0.982,-0.6535,-0.5599,-0.388,-0.0895,0.0218,0.0612,0.0278,0.0333,0.0277,0.0111,0.1501,0.2449,0.2888,0.4757,0.5655,0.5698,0.5891,0.7001,0.904,1.3439,1.6803,1.9424,2.2153,2.3325,2.3381,2.4059,2.3926,2.3179,2.2357,2.0744,1.8799,1.7777,1.6485,1.5374,1.5948,1.6423,1.6846,1.7166,1.7499,1.727,1.4648,1.3884,1.365,1.2634,1.1732,1.1355,1.2392,1.2595,1.2657,1.3154,1.4188,1.4829,1.4027,1.4351,1.466,1.4199,1.5897,1.7531,1.7964,1.9652,2.1237,2.2165,2.3366,2.435,2.4854,2.4714,2.4655,2.4919,2.5484,2.6373,2.7625,2.7881,2.7728,2.7088,2.743,2.7116,2.5906,2.5397,2.5187,2.5258,2.3468,2.2458,2.2201,2.0015,1.8574,1.7847,1.6838,1.5944,1.521,1.52,1.5346,1.5643,1.692,1.7898,1.8651,1.9291,1.9058,1.8261,1.7386,1.6569,1.5815,-1.0634,-1.1087,-1.1312,-1.051,-1.2234,-1.3777,-1.3894,-1.5154,-1.6607,-1.7856,-1.5293,-1.3033,-1.2225,-0.7589,-0.4051,-0.2857,-0.1349,-0.0358,-0.0106,0.203,0.2858,0.19,0.2575,0.2907,0.2726,0.345,0.444,0.5801,0.5808,0.6082,0.6693,0.6613,0.8783,1.2776,1.4841,1.8187,2.2345,2.327,2.4062,2.4705,2.4529,2.3916,2.2988,2.1773,2.0237,1.8537,1.7196,1.5949,1.4973,1.5212,1.5912,1.684,1.7608,1.81,1.7875,1.4999,1.4286,1.3868,1.1316,1.0694,1.0505,0.9505,1.1122,1.2788,1.2274,1.4266,1.6453,1.7192,1.7347,1.7021,1.5952,1.5683,1.5887,1.6736,1.7899,1.9147,2.0441,2.1411,2.2502,2.386,2.2898,2.281,2.457,2.4529,2.4865,2.6032,2.7071,2.7713,2.788,2.7043,2.6798,2.7389,2.5393,2.4789,2.5827,2.315,2.1555,2.1039,1.9531,1.8471,1.7777,1.6766,1.5806,1.4974,1.561,1.6324,1.7026,1.7238,1.7815,1.861,1.8693,1.8655,1.8437,1.7411,1.6509,1.5799,-0.9142,-0.9367,-0.9648,-0.9932,-1.0602,-1.1413,-1.2258,-1.215,-1.1634,-1.0661,-1.0144,-0.9105,-0.7066,-0.4022,-0.1341,0.0524,0.2158,0.3248,0.3687,0.4494,0.4695,0.4064,0.4346,0.4242,0.3749,0.4791,0.537,0.5429,0.6051,0.6518,0.6825,0.6271,0.7827,1.1177,1.5239,1.8508,2.1127,2.3743,2.4885,2.4946,2.4661,2.4115,2.3382,2.2765,2.1353,1.9521,1.7997,1.6411,1.5023,1.4626,1.5386,1.6635,1.7316,1.801,1.7768,1.3759,1.2641,1.2155,0.9597,0.8512,0.8355,0.9285,1.0575,1.1841,1.2699,1.4462,1.633,1.78,1.7933,1.722,1.5432,1.5474,1.5757,1.5537,1.6833,1.8005,1.8369,1.9857,2.0897,2.0852,2.1169,2.1753,2.2754,2.2973,2.3723,2.5355,2.6977,2.7789,2.7524,2.7381,2.7422,2.7697,2.5276,2.4543,2.5766,2.2626,2.1114,2.125,1.987,1.8974,1.8489,1.7472,1.6266,1.4973,1.5238,1.5792,1.6547,1.6693,1.7372,1.8267,1.7956,1.808,1.831,1.7404,1.6534,1.5789,-0.8576,-0.8645,-0.8771,-0.9289,-0.9092,-0.9114,-0.9789,-0.8573,-0.6743,-0.4495,-0.4572,-0.3941,-0.1641,-0.0281,0.1315,0.342,0.4538,0.539,0.592,0.5806,0.5576,0.5336,0.5277,0.512,0.4805,0.5736,0.6023,0.5739,0.6544,0.7087,0.737,0.6815,0.8204,1.1332,1.5672,1.8783,2.0937,2.4063,2.518,2.4837,2.4587,2.4155,2.3653,2.3277,2.2189,2.0616,1.8708,1.7068,1.5635,1.4637,1.5169,1.6354,1.6987,1.7747,1.752,1.2912,1.1564,1.0894,0.7822,0.6723,0.6785,0.8119,0.9908,1.165,1.2805,1.4688,1.6538,1.7873,1.7945,1.7176,1.5254,1.5416,1.5478,1.4345,1.5831,1.6944,1.644,1.7999,1.9061,1.8814,1.9507,2.0303,2.1105,2.1857,2.2858,2.4254,2.6222,2.7196,2.6776,2.7098,2.7285,2.7279,2.469,2.3925,2.5285,2.1978,2.0604,2.1225,1.9796,1.8913,1.8515,1.7371,1.6253,1.5162,1.4882,1.5245,1.6045,1.6167,1.6663,1.7366,1.7398,1.7616,1.7851,1.7311,1.6569,1.5789,-1.0155,-1.0076,-0.9907,-0.8987,-0.8131,-0.7244,-0.6023,-0.4358,-0.2475,-0.0524,0.1556,0.3021,0.3482,0.3887,0.4552,0.5559,0.561,0.5561,0.5423,0.5346,0.5281,0.5277,0.5277,0.555,0.6154,0.6209,0.6686,0.7688,0.7557,0.7847,0.856,0.8717,1.0959,1.5002,1.6383,1.9221,2.3056,2.4348,2.4755,2.4492,2.4289,2.4011,2.3606,2.2792,2.2293,2.1651,1.9035,1.7706,1.6977,1.5565,1.5418,1.5924,1.6683,1.7411,1.7184,1.2944,1.1705,1.068,0.6081,0.5699,0.6304,0.5063,0.8847,1.2746,1.2233,1.4912,1.7541,1.7753,1.7749,1.7302,1.6006,1.5535,1.4802,1.3188,1.4761,1.5851,1.4778,1.5575,1.6852,1.852,1.7973,1.8167,2.0052,2.1413,2.2233,2.2341,2.4393,2.5667,2.5723,2.5783,2.5896,2.6023,2.349,2.2847,2.4313,2.1204,1.9947,2.0598,1.8994,1.796,1.7462,1.6,1.5415,1.5548,1.474,1.4986,1.5905,1.5841,1.5741,1.5784,1.7152,1.7412,1.7034,1.7156,1.6611,1.5799,-0.6217,-0.6203,-0.5843,-0.4756,-0.4363,-0.3848,-0.2807,-0.156,-0.0161,0.131,0.331,0.4829,0.5422,0.5862,0.6445,0.7198,0.7405,0.7597,0.786,0.7553,0.7283,0.6961,0.6756,0.6853,0.7202,0.7224,0.7424,0.7859,0.7788,0.7593,0.7302,0.9259,1.0829,1.2202,1.6472,1.932,2.1086,2.3388,2.4246,2.4072,2.3771,2.3442,2.3154,2.307,2.2558,2.1685,2.0245,1.873,1.722,1.6035,1.5561,1.5604,1.6476,1.7365,1.7104,1.2133,1.1035,1.0453,0.5954,0.495,0.5353,0.6072,0.8889,1.1872,1.3393,1.6283,1.8555,1.8148,1.7884,1.7338,1.6154,1.5551,1.4886,1.3835,1.414,1.4184,1.3216,1.4267,1.5036,1.4915,1.638,1.7782,1.8823,1.9675,2.07,2.2061,2.3105,2.4131,2.5097,2.4644,2.4458,2.4705,2.1245,2.0004,2.1303,1.8744,1.803,1.9091,1.8449,1.8022,1.7808,1.6593,1.5657,1.49,1.3266,1.2988,1.3699,1.3441,1.369,1.4283,1.478,1.5189,1.5526,1.5805,1.544,1.4879,-0.3186,-0.3106,-0.2791,-0.1705,-0.151,-0.1075,0.0107,0.1216,0.2397,0.3756,0.5276,0.6606,0.7486,0.7908,0.8142,0.8264,0.8501,0.8822,0.9155,0.8883,0.8461,0.799,0.799,0.8078,0.814,0.8376,0.854,0.8624,0.8612,0.841,0.8138,1.0023,1.128,1.2244,1.6514,1.8948,2.0024,2.265,2.3675,2.3536,2.3279,2.2816,2.2329,2.247,2.195,2.0942,1.9939,1.8751,1.7529,1.6412,1.5965,1.5955,1.6392,1.7229,1.7103,1.2257,1.1744,1.1561,0.6203,0.5723,0.6808,0.7014,0.9683,1.2953,1.5741,1.7839,1.9046,1.8572,1.7962,1.7292,1.6402,1.5606,1.4847,1.3973,1.4024,1.3691,1.2447,1.3501,1.4138,1.3555,1.5102,1.6522,1.7357,1.8043,1.9016,2.046,2.1697,2.2736,2.3507,2.317,2.2667,2.2051,1.8837,1.7236,1.744,1.6251,1.6222,1.7405,1.7621,1.7648,1.7475,1.6298,1.518,1.4048,1.2252,1.1652,1.1915,1.1441,1.1855,1.2795,1.3008,1.3613,1.4385,1.4914,1.4967,1.4877,-0.0913,-0.0772,-0.0517,0.0334,0.0647,0.1247,0.279,0.3934,0.5151,0.6558,0.7439,0.84,0.9531,0.9917,0.977,0.899,0.9128,0.9374,0.9526,0.9392,0.9079,0.8527,0.8928,0.9117,0.9037,0.9511,0.9814,0.9948,0.9923,1.0183,1.0655,1.099,1.2366,1.4619,1.666,1.8362,1.9822,2.2159,2.3041,2.2915,2.2787,2.2119,2.1198,2.1245,2.0653,1.9688,1.8515,1.8042,1.7829,1.6752,1.6586,1.6735,1.6322,1.7037,1.7203,1.3152,1.3461,1.3659,0.7018,0.7806,1.0068,0.8162,1.131,1.5666,1.8737,1.9317,1.9136,1.8943,1.8072,1.7205,1.669,1.5747,1.4724,1.3828,1.4241,1.4094,1.2335,1.312,1.3914,1.4023,1.4155,1.472,1.584,1.6562,1.722,1.7903,2.0059,2.1295,2.1211,2.1402,2.057,1.847,1.6297,1.4508,1.3076,1.3657,1.4553,1.5706,1.6694,1.7031,1.6719,1.5404,1.4184,1.3048,1.1557,1.0786,1.0493,0.9837,1.0226,1.1307,1.1808,1.2562,1.3518,1.4376,1.5072,1.5572,0.2354,0.2468,0.2664,0.3273,0.3745,0.4245,0.5063,0.6259,0.7396,0.8232,0.9114,0.9832,1.036,1.0675,1.0855,1.0827,1.1068,1.1185,1.1032,1.0728,1.0254,0.9503,0.8988,0.9183,1.0195,0.9835,1.0162,1.1182,1.0947,1.0988,1.1292,1.2416,1.3621,1.501,1.7374,1.9176,2.0511,2.1773,2.2258,2.222,2.2135,2.1379,2.0323,2.0574,2.0113,1.9269,1.9012,1.8407,1.7729,1.7522,1.7157,1.6733,1.6407,1.7085,1.7284,1.3643,1.3818,1.4324,1.0372,0.9994,1.1022,1.2237,1.5005,1.764,1.846,1.8939,1.9139,1.8946,1.834,1.7603,1.688,1.6092,1.5257,1.441,1.3509,1.2732,1.2249,1.2513,1.2872,1.3073,1.425,1.5191,1.5489,1.5572,1.6098,1.7449,1.765,1.8485,2.021,1.9831,1.8686,1.673,1.3542,1.1195,0.9919,1.0947,1.2862,1.5721,1.7224,1.7764,1.742,1.6284,1.4621,1.2456,1.0178,0.9132,0.8975,0.8463,0.8882,0.9893,1.0697,1.17,1.2761,1.3473,1.4427,1.5329,0.4769,0.47,0.4752,0.5296,0.5475,0.5828,0.6617,0.7638,0.861,0.9385,1.0166,1.0819,1.1169,1.1556,1.1819,1.1979,1.1753,1.1722,1.195,1.1451,1.088,1.0364,1.002,1.0115,1.0771,1.0948,1.1443,1.2249,1.2041,1.2149,1.256,1.3588,1.4536,1.55,1.7481,1.8917,2.0004,2.0964,2.164,2.2073,2.1647,2.0735,1.9573,1.9423,1.8727,1.7868,1.7896,1.7645,1.7289,1.7271,1.7141,1.6988,1.6843,1.7356,1.7607,1.5565,1.5881,1.6052,1.2227,1.2624,1.4391,1.5633,1.7073,1.8337,1.8811,1.9062,1.9141,1.8946,1.8399,1.771,1.6946,1.6258,1.5505,1.4676,1.3655,1.289,1.2559,1.2565,1.2696,1.286,1.3805,1.4473,1.4631,1.4359,1.4743,1.6128,1.6105,1.6784,1.8539,1.7266,1.5786,1.4284,1.1888,0.9234,0.64,0.9375,1.244,1.5541,1.7284,1.8178,1.8235,1.6755,1.5049,1.3136,1.0626,0.9262,0.8785,0.7985,0.8199,0.9139,0.9828,1.0989,1.2376,1.333,1.447,1.5577,0.6716,0.6442,0.6318,0.686,0.6762,0.6969,0.7953,0.8819,0.9594,1.033,1.0998,1.1553,1.1884,1.2412,1.2681,1.2665,1.2019,1.1903,1.2589,1.2017,1.1501,1.1166,1.1351,1.1351,1.1166,1.2355,1.3044,1.3263,1.3194,1.3443,1.4029,1.4577,1.5277,1.6106,1.7309,1.8273,1.906,1.9994,2.0915,2.1737,2.1093,2.0102,1.8884,1.8286,1.738,1.647,1.6459,1.6586,1.6744,1.6648,1.6892,1.7199,1.7153,1.7513,1.7866,1.7505,1.8089,1.7978,1.3863,1.54,1.8117,1.7888,1.8049,1.8452,1.9128,1.9228,1.9111,1.891,1.8362,1.771,1.6987,1.6369,1.5695,1.4896,1.4275,1.368,1.3147,1.3053,1.3003,1.2913,1.3154,1.3372,1.3542,1.3034,1.3175,1.4359,1.469,1.527,1.6349,1.4653,1.3054,1.1754,1.0886,0.8717,0.5075,0.9342,1.2904,1.5617,1.7246,1.8329,1.8822,1.7062,1.5534,1.4209,1.1903,1.0379,0.9444,0.8303,0.827,0.901,0.9319,1.0521,1.2224,1.3425,1.4744,1.5929,0.8541,0.8446,0.8421,0.8445,0.8727,0.9215,0.9942,1.0778,1.1409,1.1542,1.2102,1.2484,1.2556,1.2935,1.3088,1.286,1.2968,1.3138,1.3246,1.3122,1.2774,1.2061,1.1922,1.1922,1.2012,1.3092,1.392,1.4455,1.4272,1.4514,1.5143,1.5363,1.5896,1.6702,1.73,1.8093,1.8996,1.9228,1.9574,1.992,2.0101,1.9391,1.827,1.8251,1.7659,1.6809,1.6763,1.6654,1.6568,1.6718,1.6732,1.6615,1.6135,1.6753,1.7557,1.6985,1.7732,1.8499,1.7426,1.8012,1.8626,1.7369,1.81,1.8974,1.8437,1.8635,1.8928,1.8824,1.8413,1.7866,1.7183,1.6658,1.6141,1.562,1.4828,1.4173,1.3812,1.3665,1.3307,1.2594,1.2655,1.2715,1.2559,1.1859,1.1633,1.222,1.2202,1.258,1.3504,1.3792,1.2855,1.0471,1.0353,1.0916,1.2106,1.2689,1.4306,1.6923,1.7767,1.8244,1.8374,1.7673,1.6296,1.4371,1.2994,1.1699,1.0489,0.9715,0.949,0.972,0.9722,1.0706,1.2177,1.2969,1.4362,1.5863,1.0001,0.981,0.9659,1.0029,1.0121,1.0391,1.1052,1.1681,1.2139,1.2307,1.2754,1.3057,1.3,1.3245,1.3374,1.3144,1.361,1.395,1.3925,1.3549,1.3097,1.2659,1.2638,1.2851,1.3294,1.3779,1.4312,1.4859,1.4672,1.4906,1.5612,1.5682,1.6333,1.7449,1.7364,1.8061,1.929,1.8962,1.9211,1.981,1.9597,1.9002,1.8235,1.7889,1.7387,1.6901,1.685,1.6898,1.6911,1.6765,1.677,1.6775,1.6303,1.6661,1.7256,1.7204,1.7899,1.8586,1.8084,1.837,1.8626,1.7712,1.8292,1.9008,1.8663,1.8777,1.8894,1.8642,1.8371,1.7975,1.7199,1.6809,1.6495,1.6145,1.5385,1.4895,1.5037,1.4325,1.3606,1.3258,1.2926,1.2578,1.2332,1.1268,1.0795,1.1235,1.0518,1.0191,1.0606,1.04,1.0875,1.2258,1.0575,1.0637,1.2713,1.3979,1.5581,1.7539,1.8493,1.8891,1.877,1.8503,1.7507,1.5983,1.4989,1.3857,1.2664,1.1674,1.1088,1.0829,1.0778,1.1439,1.2495,1.3175,1.4296,1.5533,1.1209,1.0939,1.0729,1.1325,1.1218,1.1276,1.1949,1.2319,1.2613,1.2973,1.3327,1.3509,1.3387,1.3602,1.3681,1.346,1.4075,1.4411,1.4364,1.3895,1.3517,1.3299,1.3403,1.3779,1.4501,1.4391,1.454,1.5037,1.4769,1.5012,1.5764,1.5761,1.6434,1.7673,1.7263,1.785,1.9084,1.8568,1.8826,1.9488,1.9012,1.8545,1.8143,1.7536,1.7205,1.6994,1.7002,1.7084,1.7166,1.6738,1.6757,1.6885,1.657,1.6686,1.701,1.7306,1.7829,1.8252,1.8016,1.8249,1.8518,1.8241,1.8497,1.8825,1.8931,1.8895,1.8771,1.8448,1.8287,1.798,1.7199,1.6917,1.6678,1.644,1.5858,1.5591,1.597,1.4929,1.4072,1.3939,1.3223,1.2599,1.2157,1.1025,1.0335,1.0366,0.9211,0.8371,0.824,0.7186,0.8688,1.3265,1.2258,1.2335,1.3844,1.5714,1.7235,1.837,1.9254,1.9548,1.9323,1.9084,1.8482,1.7609,1.6726,1.5725,1.4654,1.352,1.2665,1.2071,1.1936,1.2295,1.2936,1.355,1.4301,1.5062,1.2018,1.1991,1.1958,1.2019,1.2016,1.2234,1.2963,1.3113,1.3251,1.3602,1.3822,1.3954,1.3921,1.4111,1.4138,1.3888,1.4289,1.4485,1.4221,1.4613,1.466,1.4125,1.419,1.4582,1.5379,1.4911,1.4832,1.5191,1.4676,1.4839,1.5618,1.5622,1.5994,1.6701,1.6727,1.7069,1.767,1.7652,1.7752,1.7872,1.789,1.7777,1.7539,1.7439,1.7382,1.7365,1.7297,1.715,1.6993,1.6716,1.657,1.6528,1.6351,1.6542,1.6803,1.6783,1.6929,1.7306,1.8134,1.8428,1.855,1.8699,1.8625,1.8569,1.8771,1.8623,1.8445,1.8406,1.8142,1.7816,1.7368,1.6977,1.6635,1.6441,1.6298,1.6086,1.5796,1.5381,1.4814,1.41,1.3345,1.255,1.1715,1.1007,1.0147,0.9217,0.8297,0.7482,0.6784,0.5897,0.7141,1.0931,1.6358,1.9354,1.9688,1.9566,1.9663,2.002,1.9915,1.985,1.9732,1.9093,1.868,1.8378,1.7495,1.661,1.573,1.4765,1.399,1.3416,1.2973,1.302,1.3408,1.3822,1.4173,1.4498,1.2524,1.2415,1.2357,1.2567,1.2731,1.2998,1.3555,1.3769,1.4013,1.4401,1.4465,1.4603,1.4955,1.4653,1.452,1.4688,1.4972,1.4964,1.4492,1.4987,1.5132,1.4708,1.4397,1.4534,1.5196,1.4999,1.4951,1.499,1.4919,1.515,1.5651,1.5943,1.6689,1.7694,1.7255,1.759,1.8467,1.7941,1.7737,1.7771,1.7872,1.7739,1.7443,1.7452,1.746,1.7417,1.737,1.7216,1.7027,1.686,1.6664,1.6496,1.639,1.6332,1.6312,1.6273,1.6437,1.6718,1.71,1.7591,1.7956,1.7781,1.81,1.8467,1.8584,1.8467,1.8287,1.8121,1.7992,1.771,1.7101,1.6866,1.6705,1.6608,1.616,1.5895,1.617,1.5062,1.4178,1.4127,1.2898,1.2025,1.1922,1.0739,0.9668,0.9004,0.7829,0.6766,0.5941,0.6114,0.7402,0.9925,1.4013,1.7182,1.9347,1.9695,1.9886,1.9961,1.9793,1.9611,1.9425,1.9079,1.8771,1.8469,1.7902,1.7149,1.628,1.5447,1.4744,1.4103,1.3488,1.3488,1.3756,1.3702,1.3729,1.3776,1.3187,1.3189,1.3056,1.3072,1.3471,1.3817,1.3927,1.4176,1.4497,1.4887,1.4887,1.5012,1.537,1.5137,1.5101,1.5413,1.557,1.547,1.5079,1.5241,1.5229,1.5001,1.4708,1.4748,1.512,1.4992,1.4954,1.4983,1.5131,1.5401,1.5739,1.6309,1.7091,1.8021,1.7551,1.784,1.8677,1.8031,1.7737,1.7702,1.7773,1.7631,1.7363,1.7453,1.7444,1.7403,1.7425,1.7361,1.7224,1.6975,1.6805,1.6628,1.6436,1.623,1.5993,1.5903,1.6002,1.6141,1.6191,1.6751,1.7286,1.7219,1.7652,1.8163,1.8304,1.8246,1.8125,1.7949,1.7816,1.7549,1.7018,1.6763,1.6577,1.6487,1.5894,1.5585,1.6007,1.4601,1.372,1.4181,1.2861,1.1985,1.2101,1.0802,0.962,0.895,0.7432,0.6035,0.4975,0.5677,0.6985,0.8937,1.1308,1.4153,1.748,1.8805,1.9542,1.9688,1.9545,1.9263,1.8864,1.8904,1.8556,1.7944,1.7561,1.7023,1.6375,1.5594,1.4934,1.4406,1.3934,1.3802,1.3868,1.3501,1.3272,1.3119,1.4152,1.4362,1.4217,1.3629,1.4288,1.4713,1.408,1.4278,1.4627,1.4968,1.5013,1.5013,1.5013,1.5598,1.5998,1.5998,1.5998,1.5998,1.5984,1.537,1.4956,1.4895,1.517,1.5322,1.5397,1.5016,1.4935,1.5203,1.5256,1.5492,1.5839,1.6549,1.7052,1.732,1.7368,1.7572,1.7883,1.7681,1.7549,1.7486,1.7432,1.737,1.7306,1.7371,1.7403,1.7408,1.7489,1.7542,1.7536,1.7052,1.6953,1.6933,1.6519,1.6228,1.595,1.5756,1.5595,1.5507,1.558,1.6037,1.6644,1.7256,1.7446,1.7595,1.7922,1.7944,1.7905,1.7905,1.7595,1.7272,1.7216,1.6644,1.6133,1.5907,1.555,1.5237,1.51,1.4173,1.3682,1.4235,1.3343,1.2531,1.2222,1.1213,1.0128,0.8997,0.7059,0.5269,0.3796,0.4268,0.562,0.7833,0.911,1.1356,1.466,1.7191,1.8809,1.9484,1.9269,1.879,1.8102,1.85,1.7993,1.6778,1.6452,1.6233,1.6041,1.5074,1.4573,1.4374,1.4319,1.4059,1.3635,1.3225,1.2869,1.2519,1.4871,1.4871,1.4638,1.466,1.5476,1.5717,1.4662,1.5095,1.5446,1.519,1.5058,1.5262,1.5974,1.6254,1.6576,1.695,1.7027,1.6739,1.6059,1.537,1.5037,1.5124,1.5087,1.5105,1.5105,1.4989,1.5096,1.5406,1.5566,1.5935,1.6507,1.7027,1.7432,1.7789,1.7664,1.7772,1.8009,1.7681,1.7526,1.7486,1.7526,1.7465,1.7371,1.7443,1.7482,1.7462,1.7549,1.7368,1.7076,1.7,1.6717,1.6382,1.607,1.5844,1.5669,1.5461,1.5447,1.5507,1.5522,1.5812,1.6246,1.6944,1.7296,1.7502,1.7789,1.7794,1.7755,1.7755,1.7664,1.7375,1.67,1.6316,1.5877,1.5121,1.4594,1.4206,1.3882,1.3082,1.2582,1.2814,1.1882,1.1266,1.1405,1.0372,0.939,0.8655,0.6862,0.551,0.4971,0.4748,0.553,0.7613,0.8532,1.0197,1.2791,1.5097,1.673,1.7666,1.7338,1.6996,1.6715,1.7167,1.7084,1.6589,1.6539,1.6328,1.5973,1.5125,1.46,1.4287,1.3735,1.3272,1.2881,1.2508,1.197,1.1383,1.605,1.605,1.5763,1.544,1.6197,1.6365,1.4945,1.5387,1.5766,1.5447,1.5433,1.5713,1.6308,1.6909,1.7297,1.7459,1.7438,1.6972,1.5877,1.5395,1.5195,1.5284,1.5285,1.5255,1.5118,1.5134,1.5285,1.558,1.5868,1.6243,1.6732,1.7272,1.7658,1.7878,1.7772,1.7839,1.7988,1.7589,1.7448,1.7496,1.7512,1.7498,1.7443,1.7474,1.7505,1.7496,1.7486,1.7313,1.705,1.6901,1.649,1.6017,1.5713,1.5581,1.5477,1.5343,1.5388,1.5477,1.5477,1.5668,1.5983,1.6538,1.6901,1.7175,1.7432,1.7549,1.7618,1.7618,1.7462,1.7093,1.638,1.6016,1.5506,1.4676,1.42,1.3822,1.3488,1.2662,1.2184,1.238,1.1561,1.1116,1.1451,1.0268,0.9024,0.7867,0.6851,0.6161,0.5819,0.5765,0.6295,0.7456,0.8188,0.9395,1.1121,1.2682,1.4341,1.6118,1.5934,1.5782,1.5691,1.6228,1.6104,1.5493,1.5792,1.5676,1.5248,1.4746,1.4342,1.4013,1.3568,1.2998,1.2366,1.1982,1.1442,1.0888,1.7472,1.7616,1.7249,1.6075,1.6663,1.676,1.5102,1.5402,1.5771,1.571,1.6006,1.6215,1.6231,1.7389,1.7991,1.7644,1.7412,1.6781,1.561,1.5477,1.5433,1.5418,1.5667,1.5667,1.5373,1.5448,1.558,1.5796,1.6176,1.6448,1.6686,1.7368,1.7687,1.771,1.7749,1.7833,1.7861,1.7482,1.7378,1.7451,1.7395,1.7403,1.7482,1.7465,1.7482,1.7474,1.7344,1.7281,1.7174,1.6732,1.6265,1.5832,1.5565,1.5475,1.5459,1.5402,1.5418,1.5448,1.5551,1.5668,1.5856,1.6139,1.6405,1.6648,1.6926,1.7224,1.7462,1.7462,1.7011,1.6533,1.6157,1.5604,1.5048,1.446,1.4122,1.3875,1.3635,1.2781,1.2256,1.2514,1.1994,1.1675,1.1953,1.0606,0.8913,0.6992,0.7056,0.7001,0.6512,0.712,0.747,0.7448,0.8086,0.8853,0.9745,1.0224,1.1887,1.4647,1.4833,1.4874,1.4747,1.5425,1.5057,1.3894,1.4565,1.4644,1.4285,1.4127,1.3912,1.3682,1.3635,1.2975,1.2004,1.1627,1.1217,1.0812,1.8259,1.8136,1.7662,1.7198,1.7679,1.7508,1.5648,1.6053,1.64,1.5909,1.6053,1.6278,1.6483,1.7342,1.7843,1.7671,1.7456,1.6893,1.5862,1.5802,1.5714,1.5492,1.5724,1.5879,1.5926,1.6052,1.6258,1.6565,1.6591,1.685,1.732,1.7462,1.7664,1.7839,1.7704,1.7681,1.7732,1.7529,1.7345,1.7191,1.7167,1.7199,1.7259,1.728,1.7305,1.7353,1.7306,1.7044,1.669,1.6394,1.6029,1.5772,1.5975,1.5995,1.5965,1.6002,1.5903,1.5847,1.6141,1.5911,1.5755,1.6163,1.589,1.5764,1.6719,1.7076,1.7224,1.7313,1.6718,1.5957,1.5377,1.4902,1.4299,1.3376,1.3535,1.354,1.2931,1.2745,1.2366,1.1629,1.156,1.141,1.0893,0.9836,0.8815,0.7931,0.7474,0.7426,0.7975,0.7596,0.7764,0.8661,0.821,0.8427,0.9417,0.948,1.0554,1.263,1.278,1.2783,1.2671,1.3337,1.3658,1.3693,1.4158,1.4602,1.4932,1.4133,1.3749,1.3648,1.3104,1.2401,1.1627,1.1516,1.1067,1.0467,1.8929,1.8819,1.849,1.8037,1.7969,1.7552,1.6368,1.6428,1.6533,1.6359,1.6575,1.6779,1.6917,1.7587,1.806,1.8111,1.8138,1.7759,1.6812,1.6726,1.6518,1.6053,1.6303,1.6357,1.6111,1.6421,1.667,1.685,1.6825,1.7002,1.7401,1.7625,1.776,1.7816,1.7866,1.7844,1.7794,1.7629,1.7377,1.715,1.7288,1.7199,1.7019,1.7199,1.7183,1.7109,1.7003,1.6668,1.6231,1.5881,1.5741,1.5742,1.5883,1.599,1.6097,1.6182,1.6118,1.6082,1.6299,1.6062,1.5818,1.6141,1.5849,1.5606,1.603,1.6301,1.645,1.6515,1.6104,1.5639,1.5352,1.4729,1.4038,1.3415,1.3702,1.3641,1.2633,1.2525,1.2196,1.1219,1.1147,1.0944,1.0368,0.9819,0.9151,0.8411,0.8087,0.8016,0.8278,0.8163,0.8219,0.8567,0.8378,0.8383,0.8567,0.9049,0.9776,1.0727,1.123,1.1674,1.1997,1.2187,1.256,1.3062,1.3615,1.402,1.4268,1.4055,1.3881,1.3635,1.3138,1.2461,1.1774,1.159,1.1105,1.0621,1.9479,1.9442,1.9256,1.8619,1.8119,1.7648,1.7212,1.6881,1.6755,1.6965,1.7189,1.7306,1.7289,1.7757,1.8168,1.8459,1.8731,1.8546,1.782,1.7746,1.7452,1.6804,1.7014,1.6874,1.6363,1.6733,1.6935,1.6935,1.701,1.7167,1.7427,1.7866,1.7936,1.7755,1.804,1.8057,1.7839,1.7681,1.7455,1.724,1.7458,1.7298,1.6933,1.7171,1.7099,1.6878,1.6645,1.6212,1.5728,1.5448,1.5522,1.574,1.5734,1.5961,1.6289,1.634,1.6308,1.6289,1.6425,1.6223,1.6003,1.6172,1.5881,1.5463,1.517,1.5368,1.5613,1.5654,1.5296,1.5042,1.5193,1.4481,1.3783,1.3515,1.3762,1.3572,1.2371,1.2185,1.1862,1.1027,1.0747,1.0473,1.001,0.9896,0.9486,0.8534,0.8562,0.8512,0.8289,0.8679,0.8711,0.8274,0.8561,0.8459,0.7966,0.8849,0.928,0.9345,1.016,1.0963,1.1732,1.1545,1.1777,1.2367,1.3074,1.3385,1.34,1.391,1.3914,1.3568,1.3182,1.2626,1.2041,1.159,1.1255,1.1029,1.9639,1.9639,1.943,1.8807,1.8822,1.8789,1.8185,1.7919,1.7813,1.783,1.751,1.7314,1.7296,1.7166,1.7355,1.802,1.7914,1.7896,1.8135,1.8118,1.7954,1.7589,1.7327,1.7265,1.7383,1.7181,1.706,1.706,1.7479,1.7766,1.7917,1.8163,1.8163,1.7961,1.8005,1.7878,1.7635,1.7612,1.7479,1.7296,1.7346,1.7314,1.7297,1.7109,1.7024,1.6937,1.6504,1.5904,1.5334,1.5485,1.5683,1.5927,1.6181,1.6607,1.6965,1.6965,1.6765,1.6611,1.6988,1.6675,1.6309,1.6623,1.5624,1.4524,1.4301,1.4781,1.5296,1.5422,1.4366,1.3482,1.3723,1.3347,1.2814,1.2241,1.2493,1.2422,1.1564,1.1603,1.143,1.0738,1.0541,1.0168,0.947,0.9411,0.9123,0.8476,0.8308,0.8491,0.8955,0.8937,0.9056,0.9379,0.8741,0.8457,0.8651,0.8761,0.9008,0.9463,0.9764,1.0174,1.0631,1.1044,1.153,1.2082,1.2655,1.3173,1.3631,1.3429,1.3319,1.3182,1.2532,1.2186,1.2004,1.1255,1.1207,1.1505,1.969,1.969,1.96,1.9301,1.9245,1.9183,1.9091,1.8848,1.8709,1.8863,1.8721,1.8423,1.8017,1.7738,1.779,1.8339,1.8466,1.87,1.9171,1.9078,1.883,1.8397,1.8251,1.813,1.8046,1.7677,1.7601,1.7831,1.8299,1.8358,1.8022,1.8825,1.8848,1.8222,1.8365,1.8246,1.7871,1.7871,1.767,1.7384,1.7529,1.7345,1.6942,1.6991,1.6802,1.6485,1.6018,1.5647,1.5367,1.5246,1.5433,1.5751,1.6105,1.649,1.6847,1.7057,1.6998,1.693,1.7183,1.6862,1.6533,1.6777,1.576,1.4661,1.4565,1.4135,1.3797,1.3968,1.379,1.3595,1.3608,1.3429,1.3147,1.2638,1.2645,1.2329,1.1339,1.1189,1.0887,1.0217,0.9997,0.9868,0.9798,0.9596,0.9353,0.9096,0.8684,0.8581,0.8798,0.8643,0.8731,0.9078,0.8681,0.8645,0.9031,0.9003,0.9196,0.9618,0.9936,1.0141,1.0299,1.0619,1.115,1.1801,1.2347,1.3007,1.3669,1.3331,1.3353,1.3522,1.2779,1.2258,1.1847,1.1292,1.1132,1.1271]},{"header":{"parameterUnit":"m.s-1","parameterCategory":1,"la1":30.6,"la2":28.766,"lo1":-90.7593,"lo2":-88.6598,"dy":0.0162,"dx":0.0183,"nx":116,"ny":114,"refTime":"2023-05-21T00:00:00:Z","depth":0,"parameterNumber":3,"parameterNumberName":"V-component_of_WINDS"},"data":[0.0,0.0,0.0,0.0,0.0,0.0,0.0,0.0,0.0,0.0,0.0,0.0,0.0,0.0,0.0,0.0,0.0,0.0,0.0,0.0,0.0,0.0,0.0,0.0,0.0,0.0,0.0,0.0,0.0,0.0,0.0,0.0,0.0,0.0,0.0,0.0,0.0,0.0,0.0,0.0,0.0,0.0,0.0,0.0,0.0,0.0,0.0,0.0,0.0,0.0,0.0,0.0,0.0,0.0,0.0,0.0,0.0,0.0,0.0,0.0,0.0,0.0,0.0,0.0,0.0,0.0,0.0,0.0,0.0,0.0,0.0,0.0,0.0,0.0,0.0,0.0,0.0,0.0,0.0,0.0,0.0,0.0,0.0,0.0,0.0,0.0,0.0,0.0,0.0,0.0,0.0,0.0,0.0,0.0,0.0,0.0,0.0,0.0,0.0,0.0,0.0,0.0,0.0,0.0,0.0,0.0,0.0,0.0,0.0,0.0,0.0,0.0,0.0,0.0,0.0,0.0,0.0,0.0,0.0,0.0,0.0,0.0,0.0,0.0,0.0,0.0,0.0,0.0,0.0,0.0,0.0,0.0,0.0,0.0,0.0,0.0,0.0,0.0,0.0,0.0,0.0,0.0,0.0,0.0,0.0,0.0,0.0,0.0,0.0,0.0,0.0,0.0,0.0,0.0,0.0,0.0,0.0,0.0,0.0,0.0,0.0,0.0,0.0,0.0,0.0,0.0,0.0,0.0,0.0,0.0,0.0,0.0,0.0,0.0,0.0,0.0,0.0,0.0,0.0,0.0,0.0,0.0,0.0,0.0,0.0,0.0,0.0,0.0,0.0,0.0,0.0,0.0,0.0,0.0,0.0,0.0,0.0,0.0,0.0,0.0,0.0,0.0,0.0,0.0,0.0,0.0,0.0,0.0,0.0,0.0,0.0,0.0,0.0,0.0,0.0,0.0,0.0,0.0,0.0,0.0,0.0,0.0,0.0,0.0,0.0,0.0,0.0,0.0,0.0,0.0,0.0,0.0,0.0,0.0,0.0,0.0,0.0,0.0,0.0,0.0,0.0,0.0,0.0,0.0,0.0,0.0,0.0,0.0,0.0,0.0,0.0,0.0,0.0,0.0,0.0,0.0,0.0,0.0,0.0,0.0,0.0,0.0,0.0,0.0,0.0,0.0,0.0,0.0,0.0,0.0,0.0,0.0,0.0,0.0,0.0,0.0,0.0,0.0,0.0,0.0,0.0,0.0,0.0,0.0,0.0,0.0,0.0,0.0,0.0,0.0,0.0,0.0,0.0,0.0,0.0,0.0,0.0,0.0,0.0,0.0,0.0,0.0,0.0,0.0,0.0,0.0,0.0,0.0,0.0,0.0,0.0,0.0,0.0,0.0,0.0,0.0,0.0,0.0,0.0,0.0,0.0,0.0,0.0,0.0,0.0,0.0,0.0,0.0,0.0,0.0,0.0,0.0,0.0,0.0,0.0,0.0,0.0,0.0,0.0,0.0,0.0,0.0,0.0,0.0,0.0,0.0,0.0,0.0,0.0,0.0,0.0,0.0,0.0,0.0,0.0,0.0,0.0,0.0,0.0,0.0,0.0,0.0,0.0,0.0,0.0,0.0,0.0,0.0,0.0,0.0,0.0,0.0,0.0,0.0,0.0,0.0,0.0,0.0,0.0,0.0,0.0,0.0,0.0,0.0,0.0,0.0,0.0,0.0,0.0,0.0,0.0,0.0,0.0,0.0,0.0,0.0,0.0,0.0,0.0,0.0,0.0,0.0,0.0,0.0,0.0,0.0,0.0,0.0,0.0,0.0,0.0,0.0,0.0,0.0,0.0,0.0,0.0,0.0,0.0,0.0,0.0,0.0,0.0,0.0,0.0,0.0,0.0,0.0,0.0,0.0,0.0,0.0,0.0,0.0,0.0,0.0,0.0,0.0,0.0,0.0,0.0,0.0,0.0,0.0,0.0,0.0,0.0,0.0,0.0,0.0,0.0,0.0,0.0,0.0,0.0,0.0,0.0,0.0,0.0,0.0,0.0,0.0,0.0,0.0,0.0,0.0,0.0,0.0,0.0,0.0,0.0,0.0,0.0,0.0,0.0,0.0,0.0,0.0,0.0,0.0,0.0,0.0,0.0,0.0,0.0,0.0,0.0,0.0,0.0,0.0,0.0,0.0,0.0,0.0,0.0,0.0,0.0,0.0,0.0,0.0,0.0,0.0,0.0,0.0,0.0,0.0,0.0,0.0,0.0,0.0,0.0,0.0,0.0,0.0,0.0,0.0,0.0,0.0,0.0,0.0,0.0,0.0,0.0,0.0,0.0,0.0,0.0,0.0,0.0,0.0,0.0,0.0,0.0,0.0,0.0,0.0,0.0,0.0,0.0,0.0,0.0,0.0,0.0,0.0,0.0,0.0,0.0,0.0,0.0,0.0,0.0,0.0,0.0,0.0,0.0,0.0,0.0,0.0,0.0,0.0,0.0,0.0,0.0,0.0,0.0,0.0,0.0,0.0,0.0,0.0,0.0,0.0,0.0,0.0,0.0,0.0,0.0,0.0,0.0,0.0,0.0,0.0,0.0,0.0,0.0,0.0,0.0,0.0,0.0,0.0,0.0,0.0,0.0,0.0,0.0,0.0,0.0,0.0,0.0,0.0,0.0,0.0,0.0,0.0,0.0,0.0,0.0,0.0,0.0,0.0,0.0,0.0,0.0,0.0,0.0,0.0,0.0,0.0,0.0,0.0,0.0,0.0,0.0,0.0,0.0,0.0,0.0,0.0,0.0,0.0,0.0,0.0,0.0,0.0,0.0,0.0,0.0,0.0,0.0,0.0,0.0,0.0,0.0,0.0,0.0,0.0,0.0,0.0,0.0,0.0,0.0,0.0,0.0,0.0,0.0,0.0,0.0,0.0,0.0,0.0,0.0,0.0,0.0,0.0,0.0,0.0,0.0,0.0,0.0,0.0,0.0,0.0,0.0,0.0,0.0,0.0,0.0,0.0,0.0,0.0,0.0,0.0,0.0,0.0,0.0,0.0,0.0,0.0,0.0,0.0,0.0,0.0,0.0,0.0,0.0,0.0,0.0,0.0,0.0,0.0,0.0,0.0,0.0,0.0,0.0,0.0,0.0,0.0,0.0,0.0,0.0,0.0,0.0,0.0,0.0,0.0,0.0,0.0,0.0,0.0,0.0,0.0,0.0,0.0,0.0,0.0,0.0,0.0,0.0,0.0,0.0,0.0,0.0,0.0,0.0,0.0,0.0,0.0,0.0,0.0,0.0,0.0,0.0,0.0,0.0,0.0,0.0,0.0,0.0,0.0,0.0,0.0,0.0,0.0,0.0,0.0,0.0,0.0,0.0,0.0,0.0,0.0,0.0,0.0,0.0,0.0,0.0,0.0,0.0,0.0,0.0,0.0,0.0,0.0,0.0,0.0,0.0,0.0,0.0,0.0,0.0,0.0,0.0,0.0,0.0,0.0,0.0,0.0,0.0,0.0,0.0,0.0,0.0,0.0,0.0,0.0,0.0,0.0,0.0,0.0,0.0,0.0,0.0,0.0,0.0,0.0,0.0,0.0,0.0,0.0,0.0,0.0,0.0,0.0,0.0,0.0,0.0,0.0,0.0,0.0,0.0,0.0,0.0,0.0,0.0,0.0,0.0,0.0,0.0,0.0,0.0,0.0,0.0,0.0,0.0,0.0,0.0,0.0,0.0,0.0,0.0,0.0,0.0,0.0,0.0,0.0,0.0,0.0,0.0,0.0,0.0,0.0,0.0,0.0,0.0,0.0,0.0,0.0,0.0,0.0,0.0,0.0,0.0,0.0,0.0,0.0,0.0,0.0,0.0,0.0,0.0,0.0,0.0,0.0,0.0,0.0,0.0,0.0,0.0,0.0,0.0,0.0,0.0,0.0,0.0,0.0,0.0,0.0,0.0,0.0,0.0,0.0,0.0,0.0,0.0,0.0,0.0,0.0,0.0,0.0,0.0,0.0,0.0,0.0,0.0,0.0,0.0,0.0,0.0,0.0,0.0,0.0,0.0,0.0,0.0,0.0,0.0,0.0,0.0,0.0,0.0,0.0,0.0,0.0,0.0,0.0,0.0,0.0,0.0,0.0,0.0,0.0,0.0,0.0,0.0,0.0,0.0,0.0,0.0,0.0,0.0,0.0,0.0,0.0,0.0,0.0,0.0,0.0,0.0,0.0,0.0,0.0,0.0,0.0,0.0,0.0,0.0,0.0,0.0,0.0,0.0,0.0,0.0,0.0,0.0,0.0,0.0,0.0,0.0,0.0,0.0,0.0,0.0,0.0,0.0,0.0,0.0,0.0,0.0,0.0,0.0,0.0,0.0,0.0,0.0,0.0,0.0,0.0,0.0,0.0,0.0,0.0,0.0,0.0,0.0,0.0,0.0,0.0,0.0,0.0,0.0,0.0,0.0,0.0,0.0,0.0,0.0,0.0,0.0,0.0,0.0,0.0,0.0,0.0,0.0,0.0,0.0,0.0,0.0,0.0,0.0,0.0,0.0,0.0,0.0,0.0,0.0,0.0,0.0,0.0,0.0,0.0,0.0,0.0,0.0,0.0,0.0,0.0,0.0,0.0,0.0,0.0,0.0,0.0,0.0,0.0,0.0,0.0,0.0,0.0,0.0,0.0,0.0,0.0,0.0,0.0,0.0,0.0,0.0,0.0,0.0,0.0,0.0,0.0,0.0,0.0,0.0,0.0,0.0,0.0,0.0,0.0,0.0,0.0,0.0,0.0,0.0,0.0,0.0,0.0,0.0,0.0,0.0,0.0,0.0,0.0,0.0,0.0,0.0,0.0,0.0,0.0,0.0,0.0,0.0,0.0,0.0,0.0,0.0,0.0,0.0,0.0,0.0,0.0,0.0,0.0,0.0,0.0,0.0,0.0,0.0,0.0,0.0,0.0,0.0,0.0,0.0,0.0,0.0,0.0,0.0,0.0,0.0,0.0,0.0,0.0,0.0,0.0,0.0,0.0,0.0,0.0,0.0,0.0,0.0,0.0,0.0,0.0,0.0,0.0,0.0,0.0,0.0,0.0,0.0,0.0,0.0,0.0,0.0,0.0,0.0,0.0,0.0,0.0,0.0,0.0,0.0,0.0,0.0,0.0,0.0,0.0,0.0,0.0,0.0,0.0,0.0,0.0,0.0,0.0,0.0,0.0,0.0,0.0,0.0,0.0,0.0,0.0,0.0,0.0,0.0,0.0,0.0,0.0,0.0,0.0,0.0,0.0,0.0,0.0,0.0,0.0,0.0,0.0,0.0,0.0,0.0,0.0,0.0,0.0,0.0,0.0,0.0,0.0,0.0,0.0,0.0,0.0,0.0,0.0,0.0,0.0,0.0,0.0,0.0,0.0,0.0,0.0,0.0,0.0,0.0,0.0,0.0,0.0,0.0,0.0,0.0,0.0,0.0,0.0,0.0,0.0,0.0,0.0,0.0,0.0,0.0,0.0,0.0,0.0,0.0,0.0,0.0,0.0,0.0,0.0,0.0,0.0,0.0,0.0,0.0,0.0,0.0,0.0,0.0,0.0,0.0,0.0,0.0,0.0,0.0,0.0,0.0,0.0,0.0,0.0,0.0,0.0,0.0,0.0,0.0,0.0,0.0,0.0,0.0,0.0,0.0,0.0,0.0,0.0,0.0,0.0,0.0,0.0,0.0,0.0,0.0,0.0,0.0,0.0,0.0,0.0,0.0,0.0,0.0,0.0,0.0,0.0,0.0,0.0,0.0,0.0,0.0,0.0,0.0,0.0,0.0,0.0,0.0,0.0,0.0,0.0,0.0,0.0,0.0,0.0,0.0,0.0,0.0,0.0,0.0,0.0,0.0,0.0,0.0,0.0,0.0,0.0,0.0,0.0,0.0,0.0,0.0,0.0,0.0,0.0,0.0,0.0,0.0,0.0,0.0,0.0,0.0,0.0,0.0,0.0,0.0,0.0,0.0,0.0,0.0,0.0,0.0,0.0,0.0,0.0,0.0,0.0,0.0,0.0,0.0,0.0,0.0,0.0,0.0,0.0,0.0,0.0,0.0,0.0,0.0,0.0,0.0,0.0,0.0,0.0,0.0,0.0,0.0,0.0,-2.2288,-2.2758,0.0,0.0,0.0,0.0,0.0,0.0,0.0,0.0,0.0,0.0,0.0,0.0,0.0,0.0,0.0,0.0,0.0,0.0,0.0,0.0,0.0,0.0,0.0,0.0,0.0,0.0,0.0,0.0,0.0,0.0,0.0,0.0,0.0,0.0,0.0,0.0,0.0,0.0,0.0,0.0,0.0,0.0,0.0,0.0,0.0,0.0,0.0,0.0,0.0,0.0,0.0,0.0,0.0,0.0,0.0,0.0,0.0,0.0,0.0,0.0,0.0,0.0,0.0,0.0,0.0,0.0,0.0,0.0,0.0,0.0,0.0,0.0,0.0,0.0,0.0,0.0,0.0,0.0,0.0,0.0,0.0,0.0,0.0,0.0,0.0,0.0,0.0,0.0,0.0,0.0,0.0,0.0,0.0,0.0,0.0,0.0,0.0,0.0,0.0,0.0,0.0,0.0,0.0,0.0,0.0,0.0,0.0,0.0,0.0,0.0,0.0,0.0,0.0,0.0,-2.2292,-2.2433,0.0,0.0,0.0,0.0,0.0,0.0,0.0,0.0,0.0,0.0,0.0,0.0,0.0,0.0,0.0,0.0,0.0,0.0,0.0,0.0,0.0,0.0,0.0,0.0,0.0,0.0,0.0,0.0,0.0,0.0,0.0,0.0,0.0,0.0,0.0,0.0,0.0,0.0,0.0,0.0,0.0,0.0,0.0,0.0,0.0,0.0,0.0,0.0,0.0,0.0,0.0,0.0,0.0,0.0,0.0,0.0,0.0,0.0,0.0,0.0,0.0,0.0,0.0,0.0,0.0,0.0,0.0,0.0,0.0,0.0,0.0,0.0,0.0,0.0,0.0,0.0,0.0,0.0,0.0,0.0,0.0,0.0,0.0,0.0,0.0,0.0,0.0,0.0,0.0,0.0,0.0,0.0,0.0,0.0,0.0,0.0,0.0,0.0,0.0,0.0,0.0,0.0,0.0,0.0,0.0,0.0,0.0,0.0,-2.1243,-2.1335,-2.0548,-2.1424,-2.1428,-2.0754,-2.2837,-2.2565,-2.0848,-2.3007,0.0,0.0,0.0,0.0,0.0,0.0,0.0,0.0,0.0,0.0,0.0,0.0,0.0,0.0,0.0,0.0,0.0,0.0,0.0,0.0,0.0,0.0,0.0,0.0,0.0,0.0,0.0,0.0,0.0,0.0,0.0,0.0,0.0,0.0,0.0,0.0,0.0,-1.8575,-1.9719,-2.0812,-2.2055,-2.3343,-2.2909,0.0,0.0,0.0,0.0,0.0,0.0,0.0,0.0,0.0,0.0,0.0,0.0,0.0,0.0,0.0,0.0,0.0,0.0,0.0,0.0,0.0,0.0,0.0,0.0,0.0,0.0,0.0,0.0,0.0,0.0,0.0,0.0,0.0,0.0,0.0,0.0,0.0,0.0,0.0,0.0,0.0,0.0,0.0,-2.1692,-2.2142,0.0,0.0,0.0,0.0,0.0,0.0,0.0,0.0,0.0,0.0,0.0,0.0,0.0,-1.556,-1.8489,-2.0153,-2.0748,-2.0216,-1.9739,-1.9426,-1.9329,-2.005,-2.0279,-2.0205,-2.2047,0.0,-2.2275,-2.1848,0.0,0.0,0.0,0.0,0.0,0.0,0.0,0.0,0.0,0.0,0.0,0.0,0.0,0.0,0.0,0.0,0.0,0.0,0.0,0.0,0.0,0.0,0.0,0.0,0.0,0.0,0.0,0.0,0.0,0.0,0.0,0.0,0.0,0.0,0.0,0.0,-1.6172,-1.5577,-1.564,-1.713,-1.9075,-2.1352,-2.184,-2.3293,-2.5313,-2.5101,0.0,0.0,0.0,0.0,0.0,0.0,0.0,0.0,0.0,0.0,0.0,0.0,0.0,0.0,0.0,0.0,0.0,0.0,0.0,0.0,0.0,0.0,0.0,0.0,0.0,0.0,0.0,0.0,0.0,0.0,0.0,0.0,0.0,0.0,0.0,0.0,0.0,0.0,0.0,-2.0693,-2.0197,-2.0629,-2.116,-2.1949,0.0,0.0,0.0,0.0,0.0,0.0,0.0,0.0,0.0,-1.6684,-1.5439,-1.5534,-1.7104,-1.8574,-1.9274,-1.9157,-1.9083,-1.921,-1.9526,-2.0175,-2.0639,-2.0953,-2.1968,-2.2442,-2.2638,-2.2578,-2.2605,-2.2739,0.0,0.0,0.0,0.0,-2.3371,-2.3533,0.0,0.0,0.0,0.0,0.0,0.0,0.0,0.0,0.0,0.0,0.0,0.0,0.0,0.0,0.0,-1.2823,0.0,0.0,0.0,0.0,0.0,0.0,0.0,0.0,0.0,0.0,0.0,-1.5595,-1.3654,-1.2682,-1.27,-1.445,-1.6885,-1.9773,-2.1206,-2.3317,-2.5708,-2.5397,-2.5541,0.0,0.0,0.0,0.0,0.0,0.0,0.0,0.0,0.0,0.0,0.0,0.0,0.0,0.0,0.0,0.0,0.0,0.0,0.0,0.0,0.0,0.0,0.0,0.0,0.0,0.0,0.0,0.0,0.0,0.0,0.0,0.0,0.0,0.0,0.0,0.0,0.0,0.0,-2.1044,-1.9694,-1.8717,-1.9434,-2.078,0.0,0.0,0.0,0.0,0.0,0.0,-1.3914,-1.6816,-1.7754,-1.6027,-1.5882,-1.5809,-1.5813,-1.7083,-1.7871,-1.8066,-1.8607,-1.9137,-1.9644,-2.0143,-2.0665,-2.1163,-2.1674,-2.1992,-2.2193,-2.2862,-2.2832,-2.2359,-2.2665,-2.2924,-2.3229,-2.3709,-2.3993,-2.417,0.0,0.0,0.0,0.0,0.0,0.0,0.0,0.0,0.0,0.0,0.0,0.0,0.0,0.0,-1.022,-1.2182,-1.5586,-1.8093,0.0,0.0,0.0,0.0,0.0,0.0,0.0,0.0,0.0,-1.3181,-1.1023,-1.1247,-1.3676,-1.5271,-1.7374,-1.9858,-2.1723,-2.3856,-2.5999,-2.5055,-2.5269,-2.6245,0.0,0.0,0.0,0.0,0.0,0.0,0.0,0.0,0.0,0.0,0.0,0.0,0.0,0.0,0.0,0.0,0.0,0.0,0.0,0.0,0.0,0.0,0.0,0.0,0.0,0.0,0.0,0.0,0.0,0.0,0.0,0.0,0.0,0.0,0.0,0.0,0.0,0.0,0.0,-1.6427,-1.7726,0.0,0.0,0.0,0.0,-2.4382,-1.6435,-1.1413,-1.1288,-1.0305,-1.0723,-1.2837,-1.4824,-1.5681,-1.5334,-1.6412,-1.7135,-1.7442,-1.8066,-1.862,-1.9178,-1.9512,-1.9745,-1.9952,-2.0964,-2.1151,-2.0747,-2.1601,-2.197,-2.1908,-2.191,-2.1897,-2.2014,-2.2933,-2.327,-2.3362,0.0,0.0,0.0,0.0,0.0,0.0,0.0,0.0,0.0,0.0,0.0,0.0,0.0,-0.4784,-0.8625,-0.9469,-1.5117,-1.9499,-2.1458,0.0,0.0,0.0,0.0,0.0,0.0,0.0,-1.1294,-1.3195,-1.0887,-1.1099,-1.3823,-1.5452,-1.7657,-2.0259,-2.2111,-2.3927,-2.5562,-2.5339,-2.5678,-2.6387,-2.58,-2.5505,0.0,0.0,0.0,0.0,0.0,0.0,0.0,0.0,0.0,0.0,0.0,0.0,0.0,0.0,0.0,0.0,0.0,0.0,0.0,0.0,0.0,0.0,0.0,0.0,0.0,0.0,0.0,0.0,0.0,0.0,0.0,0.0,0.0,0.0,0.0,0.0,0.0,-1.1162,-1.2932,0.0,-1.5772,-1.5157,-1.419,-1.2868,-0.9839,-0.8938,-1.1,-1.0665,-1.1076,-1.2633,-1.3397,-1.4163,-1.4807,-1.5604,-1.6131,-1.6505,-1.7445,-1.7714,-1.7486,-1.8522,-1.8962,-1.8848,-1.9834,-2.0193,-2.0045,-2.035,-2.0859,-2.1429,-2.1046,-2.1248,-2.1793,-2.1781,-2.2163,-2.2701,0.0,0.0,0.0,0.0,0.0,0.0,0.0,0.0,0.0,0.0,0.0,0.2605,0.4059,-0.0267,-0.4233,-0.6544,-1.2727,-1.8018,-2.1598,0.0,0.0,0.0,0.0,0.0,0.0,-1.213,-0.997,-1.1556,-1.0524,-1.143,-1.4189,-1.5608,-1.7701,-2.0291,-2.185,-2.3454,-2.4993,-2.524,-2.5785,-2.6435,-2.654,-2.6402,-2.6223,0.0,0.0,0.0,0.0,0.0,0.0,0.0,0.0,0.0,0.0,0.0,0.0,0.0,0.0,0.0,0.0,0.0,0.0,0.0,0.0,0.0,0.0,0.0,0.0,0.0,0.0,0.0,0.0,0.0,0.0,0.0,0.0,0.0,0.0,-1.4758,-1.181,-0.7194,-0.8535,-1.0038,-1.0588,-1.0213,-0.9097,-0.7229,-0.661,-0.7335,-0.9814,-1.0318,-1.0908,-1.1665,-1.2284,-1.2976,-1.381,-1.4553,-1.5091,-1.5342,-1.6468,-1.6844,-1.6553,-1.7934,-1.8495,-1.8555,-1.9369,-1.9597,-1.9436,-1.962,-1.9975,-2.0438,-2.0398,-2.0867,-2.1522,-2.1336,-2.1746,-2.2389,0.0,0.0,0.0,0.0,0.0,0.0,0.0,0.0,0.0,0.0,0.4888,0.6544,0.5794,0.5492,0.2754,-0.3558,-0.8476,-1.3663,-1.9469,-2.2664,0.0,0.0,0.0,0.0,-1.3207,-0.9337,-0.7593,-0.8146,-0.9862,-1.2157,-1.4864,-1.5887,-1.7624,-1.9984,-2.0992,-2.254,-2.432,-2.4752,-2.5484,-2.6492,-2.8034,-2.7904,-2.7045,0.0,0.0,0.0,0.0,0.0,0.0,0.0,0.0,0.0,0.0,0.0,0.0,0.0,0.0,0.0,0.0,0.0,0.0,0.0,0.0,0.0,0.0,0.0,0.0,0.0,0.0,0.0,0.0,0.0,0.0,0.0,0.0,0.0,-0.4976,-0.4984,-0.5016,-0.4984,-0.5023,-0.5002,-0.4981,-0.7859,-0.9408,-0.866,-0.7179,-0.6622,-0.7539,-0.8762,-0.9473,-0.9712,-1.1321,-1.2211,-1.2305,-1.3494,-1.4093,-1.4085,-1.52,-1.5963,-1.6568,-1.7636,-1.844,-1.8992,-1.9454,-1.9344,-1.8908,-1.9424,-1.9333,-1.8976,-1.9957,-2.0607,-2.1006,-2.1486,-2.1915,-2.2284,0.0,0.0,0.0,0.0,0.0,0.0,0.0,0.0,0.0,0.0,0.6181,0.7999,1.0262,0.7569,0.4111,0.044,-0.7002,-1.3522,-1.8352,0.0,0.0,0.0,0.0,0.0,-1.2735,-0.9333,-0.7994,-0.8854,-1.0589,-1.2919,-1.5788,-1.7263,-1.8877,-2.0538,-2.2145,-2.3316,-2.4147,-2.5397,-2.6481,-2.7392,-2.7403,-2.7393,-2.7453,0.0,0.0,0.0,0.0,0.0,0.0,0.0,0.0,0.0,0.0,0.0,0.0,0.0,0.0,0.0,0.0,0.0,0.0,0.0,0.0,0.0,0.0,0.0,0.0,0.0,0.0,0.0,0.0,0.0,0.0,0.0,-0.6728,-0.4985,-0.5015,-0.5014,-0.5026,-0.5017,-0.5017,-0.4982,-0.4991,-0.5484,-0.6033,-0.6521,-0.5925,-0.6051,-0.7261,-0.7556,-0.8278,-0.9628,-0.9956,-1.0863,-1.2298,-1.2697,-1.3172,-1.3711,-1.4722,-1.5031,-1.4739,-1.5989,-1.6471,-1.6461,-1.7445,-1.7823,-1.7701,-1.8328,-1.8428,-1.8403,-1.9392,-1.9997,-2.0391,-2.0467,-2.0733,-2.1157,0.0,0.0,0.0,0.0,0.0,0.0,0.0,0.0,0.0,0.0,0.7614,0.9847,1.2173,1.105,0.8592,0.4843,-0.2902,-1.01,-1.608,0.0,0.0,0.0,0.0,-1.4686,-1.1852,-0.9097,-0.8239,-0.9372,-1.123,-1.3617,-1.641,-1.801,-1.9551,-2.1056,-2.2657,-2.3799,-2.4604,-2.5333,-2.6562,-2.7997,-2.7359,-2.7733,-2.869,-2.9045,-2.9468,-2.9817,-2.9712,-2.9967,-3.0286,-2.9861,0.0,0.0,0.0,0.0,0.0,0.0,0.0,0.0,0.0,0.0,0.0,0.0,0.0,0.0,0.0,0.0,0.0,0.0,0.0,0.0,0.0,0.0,0.0,0.0,-0.3981,-0.4488,-0.4953,-0.4395,-0.4199,-0.4922,-0.4545,-0.4409,-0.4849,-0.4731,-0.4949,-0.5513,-0.551,-0.5789,-0.6482,-0.6809,-0.7446,-0.8482,-0.9017,-0.9837,-1.1062,-1.1594,-1.2159,-1.2821,-1.3756,-1.4266,-1.4401,-1.5294,-1.5864,-1.6197,-1.6922,-1.7313,-1.7611,-1.7963,-1.8205,-1.8445,0.0,0.0,0.0,0.0,-2.0485,-2.0699,0.0,0.0,0.0,0.0,0.0,0.0,0.0,0.0,0.0,0.0,0.0,1.1437,1.2243,1.4444,1.3744,0.8465,0.2014,-0.5224,0.0,0.0,0.0,-1.7611,-1.6027,-1.357,-1.0041,-0.8378,-0.83,-0.9826,-1.1839,-1.4252,-1.6981,-1.8431,-1.9976,-2.158,-2.2751,-2.402,-2.524,-2.4903,-2.6148,-2.8303,-2.7708,-2.8514,-3.0161,-3.0873,-3.1353,-3.1641,-3.1546,-3.1573,-3.1603,-3.1388,0.0,0.0,0.0,0.0,0.0,0.0,0.0,0.0,0.0,0.0,0.0,0.0,0.0,0.0,0.0,0.0,0.0,0.0,0.0,0.0,0.0,0.0,0.0,0.0,-0.2742,-0.3308,-0.4285,-0.3139,-0.2768,-0.423,-0.353,-0.3282,-0.416,-0.4591,-0.4902,-0.5017,-0.5281,-0.5364,-0.5385,-0.612,0.0,0.0,0.0,-0.9007,-0.9281,-1.0288,-1.1138,-1.1826,-1.2624,-1.3597,-1.4737,-1.5108,-1.5911,-1.6978,-1.709,-1.7435,-1.8018,-1.8084,-1.841,-1.8851,-1.8893,-1.921,-1.9629,-2.0398,-2.0699,-2.0699,0.0,0.0,0.0,0.0,0.0,0.0,0.0,0.0,0.0,0.5727,0.845,1.0375,1.1335,1.2822,1.1762,0.6713,0.22,-0.3908,0.0,0.0,-1.5778,-1.1577,-1.3093,-1.1148,-0.4992,-0.611,-0.7852,-0.9969,-1.2121,-1.5076,-1.8649,-1.9328,-2.0588,-2.2308,-2.2946,-2.3902,-2.5057,-2.5096,-2.6243,-2.8067,-2.795,-2.8729,-3.0037,-3.019,-3.0688,-3.1384,-3.1993,-3.2587,-3.3108,-3.328,-3.2775,-3.2034,-3.1611,-3.0811,0.0,0.0,0.0,0.0,0.0,0.0,0.0,0.0,0.0,0.0,0.0,0.0,0.0,0.0,0.0,0.0,0.0,0.0,0.0,-0.2332,-0.1427,-0.0744,-0.0955,-0.0663,-0.0589,-0.0952,-0.0808,-0.0808,-0.1236,-0.2004,-0.2785,-0.3702,-0.3637,-0.3585,-0.3841,-0.3925,-0.4619,-0.5906,-0.6004,-0.7098,-0.9276,-0.9628,-1.027,-1.1369,-1.25,0.0,-1.3623,-1.4369,-1.5079,-1.5806,-1.6244,-1.681,-1.7435,-1.7909,-1.8572,-1.9316,-1.9656,-2.0067,-2.0448,-2.0649,-2.0699,-2.0699,0.0,0.0,0.0,0.0,0.0,0.0,0.0,0.0,0.0,0.0,0.763,0.93,1.0072,1.0719,0.9962,0.709,0.1809,0.0,0.0,-1.1537,-1.124,-0.8464,-0.8901,-0.7178,-0.2906,-0.4422,-0.6754,-0.9802,-1.2186,-1.5136,-1.8569,-1.9141,-2.0208,-2.1694,-2.2639,-2.3659,-2.4666,-2.4902,-2.5798,-2.7097,-2.7593,-2.8201,-2.8915,-2.9913,-3.0819,-3.1583,-3.1878,-3.2766,-3.3808,-3.3843,-3.3925,-3.3946,-3.3647,-3.2776,-3.1513,0.0,0.0,0.0,0.0,0.0,0.0,0.0,0.0,0.0,0.0,0.0,0.0,0.0,0.0,-1.06,-0.6011,0.0,-0.2199,-0.1388,-0.1284,-0.0939,-0.0143,0.0,0.0,0.0,0.0,-0.0071,-0.021,-0.0828,-0.1652,-0.2722,-0.2969,-0.315,-0.3285,-0.3285,-0.3623,-0.4433,-0.5033,-0.5929,-0.726,-0.8189,-0.9239,-1.0477,-1.1276,-1.2205,-1.3329,-1.3761,-1.4706,-1.5864,-1.6197,-1.6922,-1.8104,-1.9056,-1.9683,-2.0156,-2.0769,-2.0894,-2.0749,-2.0947,-2.0898,-2.0749,0.0,0.0,0.0,0.0,0.0,0.0,0.0,0.0,0.0,0.0,0.6544,0.8076,0.8867,0.8775,0.825,0.0,0.0,0.0,0.0,-0.6667,-0.6546,-0.509,-0.4485,-0.3309,-0.143,-0.2988,-0.5767,-0.9713,-1.2186,-1.5033,-1.8219,-1.87,-1.9642,-2.0952,-2.2059,-2.3101,-2.4039,-2.4403,-2.5125,-2.6129,-2.6997,-2.7566,-2.8075,-2.9539,-3.0611,-3.1391,-3.1728,-3.2522,-3.345,-3.3774,-3.4251,-3.4703,-3.4832,-3.409,-3.2797,-3.0779,-3.0264,0.0,0.0,0.0,0.0,0.0,0.0,0.0,0.0,-1.8383,-1.3277,-1.1624,-0.7783,-0.488,-0.547,-0.4737,-0.3254,-0.0857,-0.1133,-0.1115,0.0208,0.0408,0.0542,0.0907,0.0488,0.0276,0.0406,-0.0067,-0.0739,-0.1622,-0.2162,-0.2499,-0.2432,-0.2499,-0.256,-0.2815,-0.3936,-0.4728,-0.5193,-0.658,-0.8011,-0.9482,-1.0002,-1.1267,-1.3139,-1.3502,-1.461,-1.6301,-1.6733,-1.7688,-1.904,-2.0383,-2.093,-2.1028,-2.1846,-2.167,-2.1082,-2.1458,-2.1326,-2.1033,0.0,0.0,0.0,0.0,0.0,0.0,0.0,0.0,0.0,0.0,0.0,0.0,0.0,0.0,0.0,0.0,0.0,0.0,0.0146,-0.1932,-0.1632,0.183,-0.0832,-0.1159,0.1465,-0.1806,-0.57,-1.0138,-1.2282,-1.5225,-1.8895,-1.8776,-1.9633,-2.1243,-2.1279,-2.1954,-2.3066,-2.3469,-2.45,-2.5876,-2.6282,-2.7488,-2.8976,-2.8488,-2.8764,-2.9716,-3.1942,-3.1952,-3.1233,-3.35,-3.329,-3.224,-3.3017,-3.3195,-3.2586,-2.9865,-2.9211,-2.8731,-2.5842,-2.6019,-2.6673,-2.5261,-2.4795,-2.3617,0.0,-2.0678,-2.0256,-1.2668,-0.8412,-0.6122,-0.6219,-0.31,-0.0903,-0.2029,-0.007,0.1663,0.1825,0.1882,0.2443,0.399,0.2263,0.1157,0.1737,0.109,0.0543,0.0278,0.0139,0.0139,0.0139,0.0139,-0.0413,-0.1476,-0.1674,-0.2737,-0.4863,-0.5325,-0.6633,-0.865,-0.9609,-1.0933,-1.2634,-1.376,-1.5002,-1.6415,-1.8293,-1.9258,-1.953,-2.0877,-2.1424,-2.1472,-2.2067,-2.2221,-2.2128,-2.2189,-2.2063,-2.1841,0.0,0.0,0.0,0.0,0.0,0.0,0.0,0.0,0.0,0.0,0.0,0.0,0.0,0.0,0.0,0.0,0.0,0.0,0.2536,0.2432,0.3108,0.467,0.3314,0.2735,0.3164,-0.0375,-0.4427,-0.8918,-1.0985,-1.3864,-1.738,-1.7208,-1.795,-1.9446,-1.9797,-2.0512,-2.1539,-2.2089,-2.2653,-2.3265,-2.4176,-2.4748,-2.5139,-2.5819,-2.6041,-2.6242,-2.8404,-2.9129,0.0,0.0,-3.0411,-3.0503,-3.0998,-3.1008,-3.0438,-2.8388,-2.8352,-2.8681,-2.7387,-2.7358,-2.7151,-2.5096,-2.2992,-2.085,-1.8561,-1.7644,-1.5615,-0.9581,-0.7246,-0.5714,-0.3638,-0.0073,0.2706,0.347,0.4508,0.4953,0.4125,0.4392,0.4989,0.5997,0.6051,0.5631,0.4674,0.3522,0.2942,0.3328,0.2415,0.1663,0.123,0.1247,0.0828,-0.0201,-0.114,-0.2009,-0.2737,-0.3939,-0.5391,-0.7028,-0.7926,-0.94,-1.1384,-1.308,-1.5235,-1.773,-1.9775,-2.0824,-2.1192,-2.2324,-2.2966,-2.3228,-2.3758,-2.4055,-2.4013,-2.3143,-2.2603,-2.2285,0.0,0.0,0.0,0.0,0.0,0.0,0.0,0.0,0.0,0.0,0.0,0.0,0.0,0.0,0.0,0.0,0.0,0.0,0.0,0.5682,0.6496,0.667,0.627,0.5247,0.3673,0.0163,-0.355,-0.7455,-0.9803,-1.2382,-1.5196,-1.5634,-1.6494,-1.7763,-1.8429,-1.9241,-2.0172,-2.0797,-2.1183,-2.1503,-2.2618,-2.2768,-2.2445,-2.3472,-2.3482,-2.318,-2.5448,-2.6432,0.0,-2.6896,-2.7248,-2.7676,-2.8169,-2.8183,-2.7756,-2.6498,-2.6669,-2.74,-2.7835,-2.7852,-2.7153,-2.487,-2.174,-1.9111,-1.8498,-1.5213,-1.0697,-0.5007,-0.4399,-0.418,-0.1597,0.2936,0.7037,0.9071,0.8961,0.8144,0.6819,0.7046,0.7467,0.7642,0.9314,0.9892,0.8414,0.6506,0.559,0.6169,0.4727,0.3628,0.3071,0.308,0.2722,0.1936,0.06,-0.0133,-0.0067,-0.1868,-0.3381,-0.4511,-0.5937,-0.7925,-1.0411,-1.3541,-1.6486,-1.916,-2.105,-2.2277,-2.2934,-2.3386,-2.4084,-2.4866,-2.4992,-2.5067,-2.4965,-2.4225,-2.3548,-2.2981,0.0,0.0,0.0,0.0,0.0,0.0,0.0,0.0,0.0,0.0,0.0,0.0,0.0,0.0,0.0,0.0,0.0,0.0,0.0,0.7296,0.7987,0.8705,0.7158,0.5135,0.2692,-0.0765,-0.3764,-0.6149,-0.9073,-1.1251,-1.2758,-1.4482,-1.5846,-1.6859,-1.7534,-1.8354,-1.926,-1.9741,-2.0629,-2.1711,-2.2237,-2.2613,-2.2785,-2.2068,-2.1404,-2.1291,-2.4493,0.0,-2.3454,-2.4882,-2.4219,-2.3025,-2.4266,-2.4827,-2.4882,-2.4116,-2.3748,-2.3993,-2.6016,-2.6411,-2.5892,-2.4417,-2.1643,-1.9293,-1.926,-1.5065,-0.8593,0.0392,0.0304,-0.139,-0.129,0.5669,1.1803,1.3103,1.2262,1.1032,0.9819,0.9708,0.9531,0.9078,1.1122,1.2763,1.3071,1.0039,0.82,0.8351,0.7111,0.6447,0.671,0.6415,0.5959,0.5346,0.4701,0.3911,0.3043,0.113,-0.0196,-0.0882,-0.3908,-0.6872,-0.9945,-1.6202,-1.9446,-2.0237,-2.2058,-2.3452,-2.4372,-2.361,-2.4357,-2.5864,-2.5041,-2.4528,-2.4349,-2.5524,-2.5249,-2.4215,0.0,0.0,0.0,0.0,0.0,0.0,0.0,0.0,0.0,0.0,0.0,0.0,0.0,0.0,0.0,0.0,0.4412,0.525,0.0,0.7666,0.826,0.8764,0.6839,0.4819,0.2859,-0.0165,-0.3005,-0.5592,-0.764,-0.9538,-1.1301,-1.2759,-1.4071,-1.5185,-1.5822,-1.6534,-1.7327,-1.7819,-1.8741,-1.9834,-1.9804,-2.013,-2.0487,-1.9208,-1.8466,-1.8099,0.0,0.0,-1.9969,-2.0289,-2.0202,-2.0115,-2.1131,-2.1358,-2.1284,-2.1552,-2.201,-2.2767,-2.4133,-2.4856,-2.5406,-2.6169,-2.2027,-1.7735,-1.7685,-1.1765,-0.5877,-0.4431,-0.1298,0.2738,0.7588,1.0221,1.2723,1.6113,1.7912,1.7806,1.4737,1.4675,1.4554,1.3621,1.529,1.664,1.7006,1.4334,1.247,1.2183,1.0902,0.9959,0.9481,0.9117,0.8796,0.8321,0.74,0.6885,0.6831,0.5994,0.527,0.4632,-0.0792,-0.4743,-0.7584,-1.5278,-1.9416,-2.0661,-2.306,-2.4401,-2.4889,-2.4617,-2.5131,-2.6027,-2.575,-2.5517,-2.5409,-2.5555,-2.568,-2.5603,0.0,0.0,0.0,0.0,0.0,0.0,0.0,0.0,0.0,0.0,0.0,0.0,0.0,0.0,0.0,0.0,0.0,0.5339,0.0,0.0,0.8107,0.833,0.6577,0.4779,0.2982,0.0393,-0.1983,-0.4032,-0.608,-0.7858,-0.9362,-1.1012,-1.2363,-1.3277,-1.4019,-1.4813,-1.5733,-1.6129,-1.6853,-1.7748,-1.7494,-1.7581,-1.7641,-1.6515,-1.5879,0.0,0.0,0.0,-1.6195,-1.6532,-1.6957,-1.7501,-1.8535,-1.9306,-1.9829,-1.9953,-2.1022,-2.2469,-2.3948,-2.432,-2.4692,-2.6512,-2.2678,-1.82,-1.7131,-1.0791,-0.5288,-0.6023,-0.0818,0.5032,0.8847,1.3448,1.759,2.0425,2.1621,2.1144,1.8427,1.8428,1.8452,1.7685,1.9421,2.07,2.0841,1.965,1.8165,1.6472,1.4998,1.4036,1.3517,1.3147,1.273,1.22,1.1368,1.1076,1.1304,1.0492,0.8721,0.6034,-0.0738,-0.5375,-0.8212,-1.6019,-1.9844,-2.0464,-2.3143,-2.454,-2.4872,-2.4263,-2.4889,-2.6186,-2.6009,-2.5959,-2.5939,-2.5761,-2.5758,-2.5723,0.0,0.0,0.0,0.0,0.0,0.0,0.0,0.0,0.0,0.0,0.0,0.0,0.0,0.0,0.0,0.0,0.0,0.0,0.0,0.0,0.0,0.7463,0.6269,0.486,0.3229,0.0917,-0.0748,-0.1732,-0.4588,-0.6258,-0.6986,-0.9343,-1.0752,-1.1331,-1.2167,-1.322,-1.4412,-1.4569,-1.5029,-1.5556,-1.545,-1.5052,-1.4558,-1.4215,0.0,0.0,0.0,-1.2425,-1.2389,-1.3831,-1.4585,-1.5184,-1.6498,-1.8474,-2.0143,-1.9331,-2.0683,-2.298,-2.5453,-2.5144,-2.4307,-2.5113,-2.3406,-2.0782,-1.8061,-1.2265,-0.6639,-0.3684,0.1676,0.5055,0.2691,1.5487,2.6388,2.6223,2.3834,2.1821,2.1171,2.1248,2.1339,2.133,2.3328,2.4717,2.4563,2.5574,2.4784,2.1242,1.9344,1.8472,1.8725,1.82,1.7564,1.6872,1.6504,1.6196,1.5973,1.4097,1.0113,0.3978,-0.3171,-0.8118,-1.1172,-1.7978,-2.0515,-1.9683,-2.2289,-2.3811,-2.4315,-2.2765,-2.3699,-2.6071,-2.5703,-2.5626,-2.5725,-2.588,-2.5428,-2.4639,0.0,0.0,0.0,0.0,0.0,0.0,0.0,0.0,0.0,0.0,0.0,0.0,0.0,0.0,0.0,0.0,0.0,0.0,0.5358,0.0,0.0,0.0,0.0,0.0,0.0,0.0,0.0,-0.1217,-0.3798,-0.534,-0.5916,-0.7537,-0.8668,-0.9393,-0.9966,-1.0941,-1.2096,-1.2204,-1.2974,-1.4088,0.0,-1.3829,-1.4173,0.0,0.0,0.0,0.0,-1.0393,-1.0822,-1.237,-1.3659,-1.4762,-1.5404,-1.6602,-1.797,-1.8728,-2.0764,-2.3718,-2.807,-3.0804,-3.0242,-2.1077,-2.2417,-2.5783,-2.5032,-1.5873,-0.4694,0.5264,0.2757,-0.1247,-0.1346,1.9424,3.6102,3.4703,3.291,3.0742,2.7903,2.7727,2.7585,2.6743,2.6909,2.7214,2.7666,2.804,2.8011,2.7488,2.3829,2.1705,2.1925,2.0979,2.042,2.0316,2.0217,1.8615,1.5343,1.1777,0.9221,0.7664,-0.0063,-0.4568,-0.636,-1.4361,-1.8275,-1.8786,-2.0381,-2.1489,-2.217,-2.2381,-2.234,-2.2246,-2.3233,-2.3427,-2.3071,-2.2586,-2.3103,-2.3848,0.0,0.0,0.0,0.0,0.0,0.0,0.0,0.0,0.0,0.0,0.0,0.0,0.0,0.0,0.0,0.0,0.0,0.0,0.0,0.0,0.0,0.0,0.0,0.0,0.0,0.0,0.0,0.0,0.0,0.0,-0.4578,-0.5888,-0.6962,-0.7857,-0.8233,-0.9068,-1.0084,-1.0099,0.0,0.0,0.0,0.0,0.0,0.0,0.0,0.0,-0.9562,-0.9263,-0.9542,-1.0504,-1.2205,-1.388,-1.4012,-1.5085,-1.6381,-1.6702,-1.9067,-2.2069,-2.4368,-2.6024,-2.5397,-1.8201,-1.9562,-2.2671,-2.2682,-1.2367,-0.1534,0.2949,0.7726,0.7976,-0.2334,2.0213,4.0018,3.8905,3.6967,3.4625,3.1738,3.1498,3.1237,3.0163,2.9962,3.0079,3.0434,3.0489,3.0728,3.1162,2.7535,2.528,2.5174,2.4175,2.2589,2.0313,2.0385,1.819,1.3437,0.8553,0.5923,0.5399,-0.2243,-0.6569,-0.7975,-1.4306,-1.7318,-1.7618,-1.9321,-2.0086,-2.0122,-2.0748,-2.0727,-2.0418,-2.1316,-2.1625,-2.1445,-2.0663,-2.1139,-2.2035,0.0,0.0,0.0,0.0,0.0,0.0,0.0,0.0,0.0,0.0,0.0,0.0,0.0,0.0,0.0,0.0,0.0,0.0,0.0,0.0,0.0,0.0,0.0,0.0,0.0,0.1245,0.0178,-0.0336,-0.1885,0.0,0.0,0.0,0.0,0.0,0.0,0.0,0.0,0.0,0.0,0.0,0.0,0.0,0.0,0.0,0.0,0.0,-0.8616,-0.8384,-0.8342,-0.8428,-1.0346,-1.2643,-1.2439,-1.3667,-1.4985,-1.4108,-1.6313,-1.8821,-1.7838,-1.676,-1.5911,-1.5988,-1.5947,-1.5988,-1.6331,-0.718,0.0008,-0.4851,1.0676,1.8704,-0.243,1.8634,3.9472,4.0246,3.7938,3.5565,3.4116,3.3858,3.3479,3.2545,3.2672,3.2766,3.2596,3.2518,3.263,3.2849,3.0373,2.8613,2.8111,2.7155,2.4126,1.8671,1.7644,1.4942,1.0223,0.4566,0.1105,-0.0214,-0.6967,-1.0857,-1.2273,-1.5676,-1.6892,-1.6352,-1.8494,-1.8957,-1.8331,-1.8764,-1.9133,-1.9428,-1.9823,-2.0086,-2.0204,-1.9328,-1.9343,-1.9675,0.0,0.0,0.0,0.0,0.0,0.0,0.0,0.0,0.0,0.0,-0.2062,-0.1612,0.0,0.0,0.0,0.0,0.0,0.0,0.0,0.0,0.0,0.0,0.0,0.0,0.2015,0.0963,-0.0397,-0.1961,-0.2446,-0.2956,0.0,0.0,0.0,0.0,0.0,0.0,0.0,0.0,0.0,0.0,0.0,0.0,0.0,0.0,0.0,0.0,-0.6705,-0.6582,-0.6805,-0.6808,-0.8516,-1.063,-1.063,-1.1654,-1.2739,-1.2595,-1.3677,-1.4888,-1.4844,-1.4043,-1.338,-1.3881,-1.3609,-1.3786,-1.5916,-1.2126,-0.8136,-0.8201,-0.4509,-0.2469,-0.6241,1.4659,3.4293,3.9818,3.8285,3.6702,3.7566,3.7011,3.6203,3.5386,3.4951,3.4279,3.3112,3.2695,3.2425,3.2278,3.1252,3.0321,2.9586,2.8123,2.4604,1.8683,1.1515,0.6812,0.4867,-0.0629,-0.4126,-0.552,-0.939,-1.1414,-1.1862,-1.4552,-1.5653,-1.5534,-1.6397,-1.699,-1.7422,-1.8238,-1.8137,-1.753,-1.8768,-1.8842,-1.8115,-1.7302,-1.7306,-1.7595,0.0,0.0,0.0,0.0,0.0,0.0,0.0,-0.4345,-0.3887,-0.3843,-0.3359,-0.28,-0.2235,-0.1679,0.0,0.0,0.0,0.0,0.0,0.0,0.0,0.0,0.0,0.0,0.1344,0.0399,-0.0742,-0.2076,0.0,-0.2663,-0.3058,-0.3353,-0.3706,-0.4055,-0.4174,-0.4723,-0.551,-0.5221,-0.5424,-0.6013,-0.5965,-0.6117,0.0,0.0,0.0,0.0,0.0,-0.5013,-0.485,-0.5318,-0.6319,-0.7486,-0.847,-0.9572,-1.0418,-1.0493,-1.1346,-1.2196,-1.2356,-1.1797,-1.1426,-1.2035,-1.185,-1.1728,-1.2649,-1.1399,-0.9857,-0.9306,-0.8538,-0.4302,0.744,1.7933,2.7114,3.4146,3.6054,3.6717,3.6969,3.7319,3.7305,3.6595,3.546,3.4467,3.3795,3.3205,3.1428,2.794,3.0062,2.9745,2.5698,1.9119,1.5451,1.5384,0.5766,0.0335,-0.0306,-0.4864,-0.7581,-0.8366,-1.1303,-1.275,-1.2963,-1.4944,-1.5844,-1.5906,-1.6518,-1.6776,-1.688,-1.7059,-1.657,-1.5698,-1.6114,-1.6083,-1.5757,-1.5015,-1.5346,-1.6055,0.0,0.0,0.0,0.0,0.0,0.0,0.0,-0.4287,-0.3848,-0.4281,-0.4184,-0.3738,-0.2738,-0.2293,-0.1564,0.0,0.0,0.0,0.0,0.0,0.0,0.0,0.0,0.0,0.0,0.0,0.0,-0.1908,-0.2301,0.0,0.0,0.0,0.0,0.0,-0.4099,-0.4521,-0.511,-0.4691,-0.494,0.0,0.0,-0.5575,-0.5782,0.0,0.0,0.0,0.0,-0.2952,-0.284,-0.3069,-0.3769,-0.481,-0.621,-0.7419,-0.8421,-0.8561,-0.9579,-1.0594,-1.0481,-1.0194,-1.0056,-1.0671,-1.0856,-1.0704,-0.9805,-0.9811,-0.9911,-0.9828,-0.8593,-0.1499,1.8335,2.0414,2.1697,2.9674,3.3793,3.5947,3.5856,3.6915,3.7547,3.7091,3.5755,3.4672,3.4138,3.352,3.0369,2.3649,2.4683,2.4329,2.134,1.0317,0.5989,1.0112,0.0896,-0.4313,-0.4743,-0.7863,-0.9597,-1.008,-1.2647,-1.383,-1.3859,-1.5612,-1.6328,-1.6164,-1.7027,-1.7051,-1.6514,-1.6136,-1.5489,-1.4757,-1.4279,-1.4133,-1.4033,-1.3521,-1.393,-1.4667,0.0,0.0,0.0,0.0,0.0,0.0,0.0,-0.459,-0.3941,-0.3849,-0.4174,-0.4281,-0.4067,-0.3405,-0.2516,0.0,0.0,0.0,0.0,0.0,0.0,0.0,0.0,0.0,0.0,0.0,0.0,-0.2184,-0.2919,0.0,0.0,0.0,0.0,0.0,0.0,-0.4116,-0.4343,-0.4549,0.0,0.0,0.0,0.0,0.0,0.0,0.0,0.0,0.0,0.0451,-0.0839,0.0943,-0.0889,-0.389,-0.3842,-0.5321,-0.7121,-0.7336,-0.8885,-1.0441,-0.9658,-0.9494,-0.9605,-0.9995,-1.1256,-1.1896,-1.0036,-1.0425,-1.1044,-1.0578,-0.8284,-0.2556,0.9986,1.5638,2.1697,3.1833,3.3395,3.4181,3.66,3.7028,3.7089,3.709,3.6882,3.586,3.3605,3.316,2.9862,2.2261,1.1497,0.9738,1.995,0.9403,0.3008,0.2951,-0.2325,-0.5958,-0.7666,-0.8858,-0.9897,-1.0883,-1.299,-1.3729,-1.3246,-1.5899,-1.6383,-1.5225,-1.6723,-1.701,-1.6343,-1.6238,-1.5994,-1.5754,-1.5587,-1.4942,-1.4109,-1.4033,-1.374,-1.3348,0.0,0.0,0.0,0.0,0.0,0.0,-0.505,-0.4174,-0.363,-0.3577,-0.4064,-0.4446,-0.4622,-0.4629,-0.3907,0.0,0.0,0.0,0.0,0.0,0.0,0.0,0.0,0.0,0.0,0.0,-0.1626,-0.2184,-0.3021,0.0,0.0,0.0,0.0,0.0,0.0,-0.419,-0.447,-0.4242,0.0,0.0,0.0,0.0,0.0,0.0,0.0,0.0,0.0,0.0,0.6885,0.1159,-0.1389,-0.2224,-0.2158,-0.3148,-0.4584,-0.5799,-0.7696,-0.9291,-0.8765,-0.9162,-0.9755,-0.9693,-1.0194,-1.0545,-0.9764,-1.0561,-1.1078,-0.961,-0.8603,-0.3755,1.0131,1.2981,1.6779,2.7586,3.0925,3.2758,3.4511,3.56,3.644,3.7021,3.6183,3.4947,3.3395,3.2664,2.9284,2.2045,1.0443,0.6147,1.1842,0.2519,-0.1621,0.1357,-0.3932,-0.728,-0.8099,-0.9375,-1.0215,-1.0712,-1.2233,-1.2928,-1.2846,-1.5002,-1.5814,-1.5548,-1.6489,-1.6737,-1.6414,-1.554,-1.5199,-1.5108,-1.454,-1.4141,-1.39,-1.3488,-1.3385,-1.3373,0.0,0.0,0.0,0.0,0.0,-0.5873,-0.478,-0.3849,-0.3302,-0.3413,-0.4009,-0.4553,-0.4952,-0.5458,-0.5066,-0.3342,0.0,0.0,0.0,0.0,0.0,0.0,0.0,0.0,0.0,0.0,-0.185,-0.2184,-0.3077,-0.3796,0.0,0.0,-0.4632,-0.4849,0.0,0.0,0.0,0.0,0.0,0.0,0.0,0.0,0.0,0.0,0.0,0.0,0.0,0.0,0.0,0.0,0.0,-0.0615,-0.0746,-0.1384,-0.2474,-0.418,-0.6197,-0.7944,-0.8083,-0.9116,-0.9999,-0.958,-0.9816,-1.0134,-1.0105,-1.101,-1.1333,-0.9501,-0.8984,-0.458,0.9679,1.111,1.3884,2.5303,2.9426,3.1611,3.2744,3.4036,3.5196,3.6047,3.5159,3.4017,3.2878,3.0252,2.582,1.9012,0.9839,0.3937,0.2549,-0.3827,-0.5553,-0.1309,-0.5741,-0.8296,-0.8551,-0.9733,-1.0387,-1.0497,-1.1767,-1.2436,-1.261,-1.4347,-1.5224,-1.5351,-1.5847,-1.5998,-1.5812,-1.4732,-1.4268,-1.4109,-1.3368,-1.3141,-1.3237,-1.2708,-1.2768,-1.3081,0.0,0.0,0.0,0.0,0.0,0.0,-0.5062,-0.3735,-0.3074,-0.3527,-0.4058,-0.4652,-0.5222,-0.571,-0.571,-0.4952,0.0,0.0,0.0,0.0,0.0,0.0,0.0,0.0,0.0,0.0,-0.1902,-0.2184,-0.3297,-0.4132,-0.4691,-0.4963,-0.5179,-0.5281,0.0,0.0,0.0,0.0,0.0,0.0,0.0,0.0,0.0,0.0,0.0,0.0,0.0,0.0,0.0,0.0,0.0,0.0,0.0,-0.0279,-0.1177,-0.2432,-0.442,-0.6485,-0.7686,-0.9241,-1.0411,-0.9705,-1.056,-1.1524,-1.1315,-1.1939,-1.2197,-1.077,-0.9316,-0.4804,0.6648,0.9814,1.4686,2.6892,2.9685,3.0756,3.2025,3.2632,3.3179,3.3856,3.4041,3.3469,3.1864,2.5354,1.8507,1.1977,0.7412,0.1268,-0.7008,-0.8315,-0.8096,-0.6577,-0.8019,-0.9029,-0.9582,-0.9972,-1.0282,-1.0515,-1.1944,-1.25,-1.2444,-1.4208,-1.4707,-1.4233,-1.4708,-1.4644,-1.4176,-1.392,-1.3495,-1.2955,-1.241,-1.2173,-1.2048,-1.1664,-1.1785,-1.2113,0.0,0.0,0.0,0.0,0.0,0.0,0.0,-0.3735,-0.3188,-0.313,-0.3895,-0.4714,-0.555,-0.5882,-0.566,-0.4827,0.0,0.0,0.0,0.0,0.0,0.0,0.0,0.0,0.0,0.0,0.0,-0.2184,-0.3077,-0.4073,-0.5117,-0.5124,-0.5504,-0.6263,-0.5946,-0.5622,0.0,0.0,0.0,0.0,0.0,0.0,-0.2612,0.0,0.0,0.0,0.0,0.0,0.0,0.0,0.0,0.0,0.0,0.0,0.0,0.0507,-0.1517,-0.3958,-0.3645,-0.5844,-0.8299,-0.8799,-1.0537,-1.1659,-1.0,-1.1068,-1.2295,-1.1698,-1.0512,-0.5973,0.5689,0.9497,1.4598,2.5947,2.9431,3.0988,3.1804,3.2703,3.3217,3.3164,3.3467,3.33,3.2335,2.8728,2.2255,1.2161,0.871,0.2907,-0.6755,-0.8262,-0.85,-0.7865,-0.8035,-0.8469,-0.9029,-0.9791,-1.0046,-0.9782,-1.0363,-1.0991,-1.161,-1.2508,-1.3194,-1.3672,-1.4201,-1.4305,-1.4025,-1.3494,-1.3355,-1.346,-1.2559,-1.2202,-1.2131,-1.2038,-1.1839,-1.1737,0.0,0.0,0.0,0.0,0.0,0.0,0.0,-0.3901,-0.3466,-0.3239,-0.4006,-0.4882,-0.5714,-0.6105,-0.5991,-0.521,0.0,0.0,0.0,0.0,0.0,0.0,0.0,0.0,0.0,-0.2073,-0.2238,-0.2404,-0.3244,-0.4291,-0.5546,-0.5609,-0.6159,-0.6977,-0.6598,-0.6218,0.0,0.0,0.0,0.0,0.0,0.0,-0.1566,0.0,0.0,0.0,0.0,0.0,0.0,0.0,0.0,0.0,0.0,0.0,0.0,0.0,-0.0,-0.1112,-0.0418,-0.2302,-0.4794,-0.6604,-0.8904,-1.0446,-0.9453,-1.0451,-1.1599,-1.1577,-1.0502,-0.6041,0.5647,0.9476,1.4573,2.5987,2.9696,3.1578,3.2775,3.3276,3.3321,3.279,3.2847,3.2832,3.2561,3.0598,2.5067,1.4755,1.0909,0.4117,-0.7134,-0.844,-0.8606,-0.8243,-0.8004,-0.8332,-0.9232,-0.9666,-0.9858,-0.988,-0.9991,-1.0454,-1.12,-1.1534,-1.2129,-1.2842,-1.3122,-1.316,0.0,-1.2774,-1.2618,-1.2493,-1.2072,-1.1895,-1.1841,-1.1747,-1.174,-1.173,0.0,0.0,0.0,0.0,0.0,0.0,0.0,0.0,-0.3907,-0.3852,-0.4505,-0.516,-0.5719,-0.6436,-0.6549,-0.5828,0.0,0.0,0.0,0.0,0.0,0.0,0.0,0.0,0.0,-0.2464,-0.2573,-0.2681,-0.3574,-0.4732,-0.6032,-0.6475,-0.702,-0.7568,-0.7354,-0.681,0.0,0.0,0.0,0.0,0.0,0.0,0.0,0.0,0.0,0.0,0.0,0.0,0.0,0.0,0.0,0.0,0.0,0.0,0.0,0.0,0.0,0.0,0.0,0.1235,-0.0658,-0.3249,-0.6014,-0.8475,-0.9966,-1.0392,0.0,-1.0808,-0.942,-0.4815,0.6251,0.9915,1.5082,2.6711,3.0285,3.2335,3.4391,3.4292,3.3627,3.264,3.2238,3.2152,3.2381,3.1004,2.7022,1.9577,1.4664,0.5884,-0.8063,-0.8738,-0.854,-0.8119,-0.8004,-0.86,-0.9993,-0.954,-0.9725,-1.0498,-1.0403,-1.06,-1.115,-1.115,-1.136,-1.1819,-1.1728,-1.1628,-1.1528,-1.1927,-1.1501,-1.0586,-1.1243,-1.1424,-1.1258,-1.1046,-1.143,-1.1998,0.0,0.0,0.0,0.0,0.0,0.0,0.0,0.0,0.0,0.0,-0.5066,-0.55,-0.5773,-0.605,-0.5941,0.0,0.0,0.0,0.0,0.0,0.0,0.0,0.0,0.0,0.0,-0.2907,-0.2854,-0.2689,-0.3685,-0.4937,-0.6494,-0.7154,-0.7859,-0.8613,-0.8355,-0.7498,0.0,0.0,0.0,0.0,0.0,0.0,0.0,0.0,0.0,0.0,0.7228,0.8319,0.0,0.0,0.0,0.0,0.0,0.0,0.0,0.0,0.6821,0.7895,0.8568,0.0,-0.0945,-0.0323,-0.388,-0.8622,0.0,-1.2864,-1.2264,-1.2098,-0.7335,-0.11,0.5757,1.2926,1.9913,2.6507,2.9962,3.226,3.3468,3.5444,3.5512,3.216,3.2174,3.1922,3.0601,3.0137,2.9152,2.7301,2.6057,1.5365,-0.7582,-0.8362,-0.8633,-0.9874,-0.9054,-0.9015,-1.0016,-0.9821,-0.9658,-0.9517,-0.9725,-1.0028,-1.0423,-1.0423,-1.0626,-1.0931,-1.136,-1.1469,-1.1377,-1.1877,-1.1918,-1.1674,-1.154,-1.148,-1.1463,-1.1401,-1.1496,-1.1703,0.0,0.0,0.0,0.0,0.0,0.0,0.0,0.0,0.0,0.0,0.0,0.0,0.0,0.0,0.0,0.0,0.0,0.0,0.0,0.0,0.0,0.0,0.0,0.0,0.0,-0.3128,-0.2965,-0.2691,-0.379,-0.5194,-0.6897,-0.7923,-0.8992,-0.9997,-0.9162,0.0,0.0,0.0,0.0,0.0,-0.1732,0.0,0.0,0.0,0.0,0.0,0.7412,0.8743,0.0,1.0392,1.0704,1.0399,0.0,0.0,0.0,0.0,0.8191,1.0038,1.0889,0.7581,0.2934,-0.1173,-0.1072,-0.2549,-1.2289,-0.8941,-0.4677,-0.7836,-0.2215,0.4879,1.0179,1.6488,2.2429,2.7008,3.094,3.343,3.3475,3.4759,3.4776,3.2349,3.0395,2.9382,2.9728,2.4352,2.0246,1.8747,1.826,1.0398,-0.722,-0.8013,-0.8231,-0.8923,-0.9022,-0.9306,-0.9956,-0.9814,-0.9718,-0.9666,-0.9562,-0.971,-1.0115,-0.9865,-1.0072,-1.0635,-1.0956,-1.1167,-1.1318,-1.1728,-1.161,-1.1124,-1.134,-1.1261,-1.1023,-1.1111,-1.1132,-1.1234,0.0,0.0,0.0,0.0,0.0,0.0,0.0,0.0,0.0,0.0,0.0,0.0,0.0,0.0,0.0,0.0,0.0,0.0,0.0,0.0,0.0,0.0,0.0,-0.4021,-0.34,-0.3239,-0.3021,-0.2747,-0.3898,-0.5404,-0.72,-0.8736,-1.0156,-1.1358,-1.0003,0.0,0.0,0.0,0.0,0.0,-0.1452,0.0,0.0,0.0,0.0,0.0,0.0,0.0,0.0,1.1194,0.9979,0.8573,1.1579,0.0,0.0,0.0,0.0,0.0,1.1953,1.1976,0.9508,0.0308,0.3418,0.5241,-0.7961,-0.1944,0.4707,-0.133,0.4015,1.1187,1.5839,1.9984,2.4068,2.8221,3.2336,3.471,3.3811,3.3522,3.3124,3.2369,2.8563,2.6855,2.8992,1.7704,0.8258,0.3444,0.2522,-0.0663,-0.7206,-0.78,-0.7682,-0.7304,-0.8527,-0.9389,-0.9725,-0.9666,-0.9762,-1.0064,-0.9614,-0.951,-0.9814,-0.9361,-0.9621,-1.0395,-1.0549,-1.0905,-1.1318,-1.1719,-1.1259,-1.0372,-1.1108,-1.1065,-1.0576,-1.0721,-1.0842,-1.0916,0.0,0.0,0.0,0.0,0.0,0.0,0.0,0.0,0.0,0.0,0.0,0.0,0.0,0.0,0.0,0.0,0.0,0.0,0.0,0.0,0.0,0.0,-0.4512,-0.4457,-0.3738,-0.3466,-0.319,-0.286,-0.407,-0.5467,-0.71,-0.9181,-1.0989,-1.2522,-1.1189,-0.9913,-0.8534,0.0,0.0,0.0,-0.2291,0.0,0.0,0.0,0.0,0.0,0.0,0.0,0.0,0.968,0.8996,0.8776,0.928,0.0,0.0,0.0,0.0,0.0,1.5579,1.6965,1.7991,1.6855,1.2681,0.8163,0.5505,0.4555,0.3953,0.2823,0.8471,1.4432,1.7046,2.2118,2.7045,3.0541,3.2845,3.4079,3.3758,3.3775,3.2956,3.0665,2.9689,2.86,2.7143,1.7024,0.5676,-0.6108,-0.6669,-0.6987,-0.819,-0.8031,-0.7919,-0.8025,-0.8586,-0.8903,-0.8988,-0.9406,-0.9562,-0.951,-0.9309,-0.9211,-0.9159,-0.9061,-0.9159,-0.9465,-1.0372,-1.0922,-1.1275,-1.2314,-1.2323,-1.1819,-1.1918,-1.1628,-1.1167,-1.1208,-1.1262,-1.1364,0.0,0.0,0.0,0.0,0.0,0.0,0.0,0.0,0.0,0.0,0.0,0.0,0.0,0.0,0.0,0.0,0.0,0.0,0.0,0.0,0.0,0.0,-0.3735,-0.3511,-0.3125,-0.2852,-0.2631,-0.241,-0.3843,-0.5508,-0.7389,-1.0773,-1.2974,-1.3982,-1.2763,-1.1303,-0.9636,0.0,0.0,0.0,0.0,0.0,0.0,0.0,0.0,0.0,0.0,0.0,0.0,0.0,0.8983,0.9274,0.9372,0.0,0.0,0.0,0.0,0.0,1.5976,1.6905,1.8179,2.0298,1.9039,1.5593,0.8972,1.1636,1.4417,1.0623,1.5414,2.0722,2.2157,2.5967,2.9957,3.3141,3.3015,3.2657,3.3187,3.1981,3.0646,2.9636,2.865,2.7783,2.7053,1.4091,0.4378,0.1105,-0.5084,-0.8573,-0.8321,-0.799,-0.7717,-0.761,-0.783,-0.8043,-0.8196,-0.8606,-0.8928,-0.9211,-0.9413,-0.9309,-0.891,-0.9361,-0.9562,-0.9666,-1.061,-1.1275,-1.1751,-1.2363,-1.2471,-1.2175,-1.1669,-1.1318,-1.1049,-1.0838,-1.0928,-1.1214,0.0,0.0,0.0,0.0,0.0,0.0,0.0,0.0,0.0,0.0,0.0,0.0,0.0,0.0,0.0,0.0,0.0,0.0,0.0,0.0,-0.3747,-0.3413,-0.2794,-0.2514,-0.2683,-0.2293,-0.2071,-0.2183,-0.3619,-0.5757,-0.8494,-1.231,-1.4479,-1.5142,-1.4136,-1.2686,-1.0789,-0.8689,-0.677,0.0,0.0,0.0,0.0,0.0,0.0,0.0,0.0,0.0,0.0,0.0,0.0,0.0,0.0,0.0,0.0,1.2939,1.3888,1.5051,1.5424,1.5953,1.7153,2.0169,2.2122,2.1145,1.2922,1.848,2.3876,1.862,2.1891,2.5901,2.6526,2.8962,3.1483,3.331,3.2325,3.1522,3.2135,3.0132,2.8628,2.8696,2.7261,2.65,2.7085,1.2526,0.4719,0.8841,-0.1976,-0.8527,-0.8109,-0.7729,-0.7402,-0.7031,-0.7348,-0.7563,-0.767,-0.8037,-0.8514,-0.9008,-0.9465,-0.9361,-0.8804,-0.9562,-0.9961,-1.0115,-1.0914,-1.1633,-1.2224,-1.2501,-1.2412,-1.2067,-1.156,-1.1217,-1.1074,-1.0734,-1.0885,-1.1228,0.0,0.0,0.0,0.0,0.0,0.0,0.0,0.0,0.0,0.0,0.0,0.0,0.0,0.0,0.0,0.0,0.0,0.0,0.0,0.0,-0.3355,-0.2792,-0.2068,-0.2183,-0.32,-0.2184,-0.1959,-0.2635,-0.3683,-0.6493,-1.0922,-1.3077,-1.4584,-1.5468,-1.5107,-1.3918,-1.2048,-1.0388,-0.8332,-0.604,0.0,0.0,0.0,0.0,0.0,0.0,0.0,0.0,0.0,0.0,0.0,0.0,0.0,0.0,1.3831,1.3065,1.3909,1.5062,1.4834,1.6194,1.8227,2.045,2.036,2.0492,2.3241,2.4557,2.5129,2.4825,2.607,2.7268,2.7325,2.9219,3.0271,2.8629,3.0213,3.1316,3.0338,2.9334,2.84,2.7627,2.6422,2.585,2.6318,1.4773,0.7588,0.8326,-0.1788,-0.7931,-0.7723,-0.7354,-0.7031,-0.6756,-0.7622,-0.7949,-0.7521,-0.8321,-0.8857,-0.9008,-0.9159,-0.9001,-0.8626,-0.9302,-0.9814,-1.021,-1.1065,-1.1832,-1.2608,-1.2977,-1.253,-1.171,-1.2224,-1.2076,-1.1625,-1.1665,-1.1705,-1.1799,0.0,0.0,0.0,0.0,0.0,0.0,0.0,0.0,0.0,0.0,0.0,0.0,0.0,0.0,0.0,0.0,0.0,0.0,0.0,0.0,-0.3357,-0.285,-0.1843,-0.1399,-0.1625,-0.1232,-0.1344,-0.2015,-0.4794,-0.7856,-1.1005,-1.3145,-1.4619,-1.5567,-1.5522,-1.4665,-1.3131,-1.1759,-0.9539,-0.6943,-0.5972,0.0,0.0,0.0,0.0,0.0,0.0,0.0,0.0,0.0,0.9888,1.1063,1.1217,1.2045,1.3056,1.3132,1.3742,1.4466,1.4834,1.6616,1.8863,2.0878,2.1727,2.3,2.6563,2.7537,2.7489,2.6815,2.7566,2.8148,2.758,3.0066,3.1292,2.8398,2.9531,3.0273,2.8836,2.8063,2.7415,2.6731,2.5997,2.5503,2.5374,1.4576,0.778,0.8326,-0.1844,-0.7943,-0.7568,-0.6977,-0.6598,-0.6544,-0.6436,-0.6652,-0.7246,-0.7348,-0.783,-0.8639,-0.9256,-0.9086,-0.8196,-0.9614,-1.0131,-0.9894,-1.1023,-1.1692,-1.2008,-1.2472,-1.2218,-1.1484,-1.161,-1.1469,-1.1259,-1.1608,-1.1749,-1.1798,0.0,0.0,0.0,0.0,0.0,0.0,0.0,0.0,0.0,0.0,0.0,0.0,0.0,0.0,0.0,0.0,0.0,0.0,0.0,-0.3691,-0.3357,-0.2961,-0.1843,-0.0951,-0.0336,-0.0224,-0.0672,-0.1677,-0.5524,-0.8586,-1.0873,-1.305,-1.4505,-1.5395,-1.5672,-1.5327,-1.4495,-1.3393,-1.1393,-0.8905,-0.805,-0.5404,0.0,0.0,0.0,0.0,0.0,0.0,0.0,0.0,1.0478,1.1663,1.171,1.2267,1.2948,1.318,1.3909,1.4744,1.536,1.697,1.9006,2.1168,2.2716,2.4467,2.7262,2.8313,2.8525,2.7764,2.7784,2.7715,2.7001,2.8984,2.9919,2.7447,2.8101,2.851,2.7345,2.6588,2.6017,2.5672,2.5243,2.4931,2.4748,1.4425,0.798,0.848,-0.1531,-0.7515,-0.7192,-0.649,-0.6164,-0.6164,-0.5727,-0.5946,-0.6869,-0.6756,-0.7235,-0.8256,-0.8817,-0.8659,-0.7877,-0.9666,-1.0233,-0.9835,-1.1032,-1.176,-1.2008,-1.2178,-1.1873,-1.1384,-1.1259,-1.1226,-1.1309,-1.1527,-1.163,-1.1661,0.0,0.0,0.0,0.0,0.0,0.0,0.0,0.0,0.0,0.0,0.0,0.0,0.0,0.0,0.0,0.0,0.0,0.0,0.0,-0.3799,-0.3302,-0.313,-0.2068,-0.095,0.0168,0.0616,-0.0,-0.179,-0.5578,-0.854,-1.0722,-1.2907,-1.4231,-1.4946,-1.5516,-1.5929,-1.6137,-1.5448,-1.3981,-1.2134,-1.2035,-0.8108,-0.2341,0.0,0.0,0.0,0.0,0.0,0.0,0.0,1.1163,1.2667,1.2492,1.315,1.3836,1.3113,1.4334,1.5991,1.6373,1.725,1.8656,2.1254,2.2873,2.4243,2.5736,2.6938,2.78,2.8063,2.69,2.5749,2.5543,2.5555,2.5487,2.506,2.5665,2.6096,2.5815,2.4927,2.4321,2.4368,2.4099,2.4059,2.4487,1.4674,0.8432,0.8721,-0.0795,-0.6539,-0.6381,-0.5891,-0.5567,-0.5567,-0.5823,-0.6095,-0.6381,-0.6696,-0.723,-0.7871,-0.7599,-0.7551,-0.7777,-0.9309,-1.0072,-1.0238,-1.1099,-1.2026,-1.2832,-1.208,-1.1625,-1.1401,-1.146,-1.1719,-1.2021,-1.1647,-1.149,-1.1435,0.0,0.0,0.0,0.0,0.0,0.0,0.0,0.0,0.0,0.0,0.0,0.0,0.0,0.0,0.0,0.0,0.0,0.0,0.0,-0.4343,-0.3793,-0.3461,-0.246,-0.1677,-0.1062,-0.1228,-0.1728,-0.2724,-0.5595,-0.7992,-1.003,-1.2271,-1.4021,-1.5295,-1.5788,-1.6203,-1.6574,-1.6725,-1.6705,-1.6527,-1.5929,-1.5148,-1.3519,0.0,0.0,0.0,0.0,0.0,0.0,0.0,0.0,0.0,1.2657,1.316,1.3752,1.3132,1.3971,1.5128,1.5536,1.8018,2.0518,2.0768,2.3555,2.6023,2.5403,2.736,2.9222,2.8862,2.8033,2.6927,2.5551,2.6154,2.6242,2.4339,2.4968,2.5461,2.4724,2.4133,2.3783,2.371,2.3472,2.2212,1.9328,1.227,0.677,0.4066,-0.2479,-0.6209,-0.5996,-0.5344,-0.4963,-0.4963,-0.4622,-0.4893,-0.5837,-0.5609,-0.5987,-0.6961,-0.7128,-0.745,-0.7877,-0.8672,-0.9392,-1.0084,-1.0736,-1.141,-1.1999,-1.1008,-1.0912,-1.1266,-1.0637,-1.0785,-1.137,-1.0956,-1.0704,-1.0595,0.0,0.0,0.0,0.0,0.0,0.0,0.0,0.0,0.0,0.0,0.0,0.0,0.0,0.0,0.0,0.0,0.0,0.0,0.0,0.0,-0.4184,-0.3796,-0.3074,-0.2571,-0.2341,-0.2228,-0.2554,-0.3372,-0.5761,-0.7958,-0.9951,-1.2055,-1.3914,-1.5534,-1.6218,-1.7014,-1.7801,-1.8512,-1.9105,-1.9534,-1.8719,-1.8004,-1.6718,0.0,0.0,0.0,0.0,0.0,0.0,0.0,0.0,0.0,1.2502,1.2957,1.3647,1.3617,1.4697,1.6111,1.7142,1.9611,2.1984,2.2366,2.455,2.6433,2.5825,2.7217,2.8492,2.8061,2.7891,2.7334,2.5766,2.6195,2.6136,2.4136,2.4353,2.4516,2.3808,2.3307,2.294,2.2825,2.2513,2.1116,1.8003,1.1732,0.6989,0.4928,-0.1476,-0.5218,-0.5062,-0.4574,-0.419,-0.4076,-0.3685,-0.3849,-0.4618,-0.4563,-0.5128,-0.6178,-0.6241,-0.6781,-0.7782,-0.8319,-0.8808,-0.9372,-1.0164,-1.0717,-1.095,-1.0471,-1.037,-1.0538,-1.0094,-1.0199,-1.0548,-1.0231,-1.0083,-0.9969,0.0,0.0,0.0,0.0,0.0,0.0,0.0,0.0,0.0,0.0,0.0,0.0,0.0,0.0,0.0,0.0,0.0,0.0,0.0,0.0,-0.4577,-0.4076,-0.3519,-0.3287,-0.3379,-0.2325,-0.2538,-0.4117,-0.6128,-0.8168,-1.0214,-1.2113,-1.3946,-1.5706,-1.6714,-1.7991,-1.9466,-2.037,-2.095,-2.1188,-2.0454,-1.8104,-1.4974,-1.4633,0.0,0.0,0.0,0.0,0.0,0.0,0.0,0.0,1.1994,1.256,1.3511,1.4124,1.5885,1.8029,1.9924,2.1435,2.2965,2.4922,2.5502,2.5794,2.6616,2.6631,2.6442,2.6293,2.6944,2.7189,2.6065,2.58,2.5377,2.4209,2.3785,2.3468,2.3028,2.2418,2.1933,2.1752,2.1305,2.0368,1.8705,1.2279,0.8333,0.8602,0.0929,-0.3729,-0.3683,-0.358,-0.3357,-0.3019,-0.2963,-0.2954,-0.3049,-0.3547,-0.4398,-0.5486,-0.5091,-0.5769,-0.7465,-0.7961,-0.8236,-0.8441,-0.961,-1.0047,-1.0001,-1.032,-1.0058,-0.9544,-0.9806,-0.9851,-0.9744,-0.9623,-0.9555,-0.9596,0.0,0.0,0.0,0.0,0.0,0.0,0.0,0.0,0.0,0.0,0.0,0.0,0.0,0.0,0.0,0.0,0.0,0.0,0.0,0.0,-0.534,-0.445,-0.1877,-0.1042,-0.2392,-0.0813,-0.216,-0.6643,-0.6663,-0.781,-1.007,-1.2155,-1.4171,-1.5996,-1.6738,-1.7882,-1.9368,-1.9931,-2.0513,-2.102,-2.1247,-2.103,-2.0192,-1.6505,-1.3896,0.0,0.0,0.0,0.0,0.0,0.0,0.0,1.119,1.2061,1.315,1.2792,1.4757,1.7281,1.8717,2.0734,2.2691,2.3766,2.436,2.4894,2.5764,2.6154,2.6247,2.5968,2.6925,2.7343,2.5782,2.5161,2.4552,2.3558,2.3165,2.2721,2.1961,2.1536,2.1097,2.0473,2.0008,1.8071,1.386,1.0935,0.7608,0.3631,0.0269,-0.177,-0.2228,-0.2685,-0.2633,-0.2069,-0.2294,-0.2428,-0.2572,-0.2406,-0.3201,-0.4815,-0.4719,-0.5295,-0.6482,-0.6526,-0.7407,-0.8964,-0.9972,-1.0409,-1.0337,-1.0074,-0.9916,-0.9823,-0.9231,-0.9266,-0.9606,-0.9273,-0.9209,-0.9354,0.0,0.0,0.0,0.0,0.0,0.0,0.0,0.0,0.0,0.0,0.0,0.0,0.0,0.0,0.0,0.0,0.0,0.0,0.0,0.0,0.0,-0.1972,-0.178,-0.203,-0.2556,-0.3423,-0.5496,-0.8847,-0.8592,-0.9073,-1.0232,-1.2426,-1.4253,-1.5808,-1.659,-1.7625,-1.8789,-1.9405,-1.9944,-2.0472,-2.1183,-2.1688,-2.1792,-1.9804,-1.7564,-1.4443,-0.6601,0.0,0.0,0.0,0.0,0.0,0.0,0.0,1.2258,1.2847,1.4624,1.6875,1.9108,2.1062,2.2639,2.3454,2.4078,2.4567,2.4917,2.5475,2.5971,2.619,2.715,2.7437,2.5769,2.5093,2.4355,2.3038,2.2468,2.1915,2.116,2.0606,2.0005,1.9236,1.8664,1.6836,1.2986,1.0699,0.8039,0.4538,0.1804,0.0221,0.0056,-0.0669,-0.095,-0.0503,-0.0495,-0.0757,-0.1274,-0.1458,-0.2377,-0.4041,-0.4097,-0.4629,-0.5667,-0.6241,-0.7313,-0.8731,-0.9021,-0.9296,-0.946,-0.9216,-0.93,-0.9486,-0.8915,-0.8996,-0.9438,-0.931,-0.935,-0.9469,0.0,0.0,0.0,0.0,0.0,0.0,0.0,0.0,0.0,0.0,0.0,0.0,0.0,0.0,0.0,0.0,0.0,0.0,0.0,0.0,0.0,0.0,-0.1377,-0.2885,-0.262,-0.5817,-0.8524,-1.0618,-1.1032,-1.1072,-1.0905,-1.3107,-1.4606,-1.5511,-1.6536,-1.7451,-1.8268,-1.893,-1.9492,-2.0039,-2.0814,-2.135,-2.177,-2.266,-2.0521,-1.6247,-1.0164,-0.5926,-0.2123,0.5031,0.0,0.0,0.0,0.0,1.1157,1.2879,1.4531,1.6507,1.9746,2.1712,2.2993,2.353,2.3992,2.4254,2.407,2.4637,2.5429,2.6212,2.7151,2.7338,2.5815,2.509,2.4207,2.2592,2.1735,2.1069,2.0409,1.9652,1.8858,1.8064,1.745,1.617,1.3668,1.1133,0.8976,0.7427,0.413,0.2215,0.2395,0.1554,0.1108,0.1219,0.1397,0.0947,-0.0104,-0.0759,-0.1802,-0.3268,-0.3556,-0.4176,-0.5101,-0.6313,-0.7262,-0.7946,-0.7779,-0.7912,-0.8283,-0.8373,-0.8618,-0.8935,-0.8683,-0.8837,-0.9239,-0.935,-0.946,-0.9658,0.0,0.0,0.0,0.0,0.0,0.0,0.0,0.0,0.0,0.0,0.0,0.0,0.0,0.0,0.0,0.0,0.0,0.0,-0.9625,0.0,0.0,0.3794,0.2275,0.0697,-0.0733,-0.1932,-0.5491,-1.1451,-1.2613,-1.3096,-1.288,-1.4782,-1.5714,-1.5788,-1.6866,-1.7707,-1.8319,-1.8741,-1.9434,-2.0193,-2.0682,-2.1134,-2.1612,-2.2324,-2.2341,-2.0795,-1.1327,-0.7839,-0.6113,0.4427,0.796,0.0,0.0,0.0,1.0312,1.1123,1.3282,1.6015,1.9051,2.2061,2.4177,2.358,2.3265,2.3161,2.3228,2.3606,2.4178,2.4977,2.6096,2.6691,2.5819,2.459,2.3325,2.2247,2.1114,2.0104,1.9324,1.8684,1.7973,1.7105,1.6595,1.5644,1.3825,1.208,1.024,0.8298,0.6063,0.4443,0.3727,0.3153,0.2735,0.2572,0.2334,0.1451,-0.0193,-0.0481,-0.1267,-0.2613,-0.3718,-0.4583,-0.5265,-0.5685,-0.6134,-0.66,-0.7363,-0.7724,-0.7807,-0.8242,-0.8529,-0.8675,-0.8267,-0.8472,-0.9016,-0.8692,-0.8999,-0.954,0.0,0.0,0.0,0.0,0.0,0.0,0.0,0.0,0.0,0.0,0.0,0.0,0.0,0.0,0.0,-1.625,-1.5563,-1.3207,-0.8609,-0.3083,0.1088,0.3392,0.0,-0.1975,-0.2027,-0.5736,-0.8919,-1.1519,-1.2445,-1.2733,-1.2463,-1.3556,-1.4452,-1.5141,-1.6287,-1.7216,-1.7933,-1.8511,-1.9303,-2.0243,-2.055,-2.0894,-2.1229,-2.1965,-2.2252,-2.1429,-1.4359,-1.0301,-0.713,0.0656,0.5195,0.7623,0.8113,0.0,0.0,0.0,1.2441,1.4769,1.8238,2.1178,2.3137,2.2643,2.2307,2.2203,2.2567,2.2891,2.3379,2.4166,2.4612,2.4929,2.5146,2.4319,2.3079,2.1599,2.0773,1.9805,1.8511,1.8013,1.7422,1.6552,1.58,1.4721,1.307,1.1626,0.998,0.8,0.6519,0.5291,0.4381,0.385,0.3423,0.3149,0.2742,0.1839,0.0475,0.0186,-0.0818,-0.2632,-0.3514,-0.422,-0.484,-0.4971,-0.5413,-0.612,-0.6613,-0.6969,-0.7159,-0.75,-0.7987,-0.8529,-0.8324,-0.8529,-0.8975,-0.8822,-0.8967,-0.9239,0.0,0.0,0.0,0.0,0.0,0.0,0.0,0.0,0.0,0.0,0.0,0.0,0.0,0.0,0.0,0.0,-1.7754,-1.4836,-0.8594,-0.3512,-0.0157,0.1126,-0.2558,-0.4448,-0.3966,-0.877,-1.1198,-1.0906,-1.119,-1.1223,-1.0964,-1.1559,-1.2474,-1.3657,-1.5492,-1.6789,-1.7786,-1.8447,-1.9317,-2.0311,-2.0565,-2.0812,-2.1055,-2.1735,-2.1062,-1.9155,-1.433,-0.9743,-0.5137,0.0185,0.4289,0.7281,0.811,0.8969,0.0,0.0,0.0,1.4339,1.7336,1.9667,2.1262,2.1297,2.1131,2.1135,2.1826,2.2118,2.2475,2.326,2.307,2.3019,2.3822,2.329,2.2263,2.0865,2.0035,1.9112,1.7814,1.7435,1.6896,1.6001,1.5119,1.3914,1.226,1.1023,0.9607,0.7818,0.6804,0.5873,0.5035,0.4376,0.3872,0.3524,0.2981,0.2246,0.126,0.0545,-0.0759,-0.2586,-0.3075,-0.37,-0.4416,-0.4416,-0.4772,-0.547,-0.5809,-0.6199,-0.6606,-0.6809,-0.7489,-0.8373,-0.825,-0.8447,-0.8814,-0.8732,-0.8732,-0.8814,0.0,0.0,0.0,0.0,0.0,0.0,0.0,0.0,0.0,0.0,0.0,0.0,0.0,-1.9723,-1.997,-1.9802,-1.8879,-1.6229,-1.1235,-0.7729,-0.5009,-0.3232,-0.3201,0.0,-0.5649,-0.7473,-0.8693,-0.9235,-0.876,-0.8565,-0.87,-0.9401,-1.0236,-1.1243,-1.4496,-1.6705,-1.8145,-1.8808,-1.9624,-2.0514,-2.0795,-2.1039,-2.134,-2.1751,-1.8733,-1.3609,-0.8281,-0.3663,0.0754,0.6695,0.7797,0.7092,0.9219,1.0054,1.0501,0.0,0.0,0.0,1.6271,1.7543,1.8895,1.9679,1.9699,1.9767,2.0845,2.1038,2.1198,2.1967,2.1682,2.1366,2.162,2.0926,2.0191,2.0001,1.8655,1.7556,1.7282,1.685,1.6163,1.5085,1.4595,1.3575,1.1657,1.0695,0.9629,0.8268,0.7348,0.6524,0.5756,0.505,0.4367,0.3813,0.3324,0.2695,0.188,0.0179,-0.1211,-0.2324,-0.246,-0.3126,-0.4108,-0.4108,-0.414,-0.4254,-0.4994,-0.569,-0.6246,-0.6592,-0.7398,-0.8332,-0.7773,-0.7904,-0.8373,-0.7919,-0.8044,-0.8373,0.0,0.0,0.0,0.0,0.0,0.0,0.0,0.0,0.0,0.0,0.0,0.0,0.0,-2.1048,-2.1187,-2.1404,-1.8873,-1.6671,-1.5352,-1.1718,-0.9348,-0.8807,-0.9153,-0.9468,-0.9643,-0.8763,-0.8698,-0.946,-0.8775,-0.8214,-0.7909,-0.9297,-1.0253,-1.0833,-1.3758,-1.6052,-1.7796,-1.8736,-1.9844,-2.0975,-2.1379,-2.1691,-2.1995,-2.2681,-2.16,-1.9536,-1.8011,-1.3853,-0.8875,-0.7593,-0.3048,0.246,0.4619,0.7328,1.027,1.2976,1.4406,1.5211,1.5556,1.6554,1.7504,1.7479,1.7859,1.838,1.8885,1.9495,2.0085,2.0655,2.0628,2.039,2.0012,2.024,2.0141,1.9169,1.8436,1.7705,1.6748,1.6083,1.541,1.4744,1.3643,1.2483,1.1258,1.0261,0.9235,0.8096,0.7503,0.6737,0.5862,0.5246,0.4511,0.3492,0.3087,0.2281,0.1162,-0.009,-0.1121,-0.1919,-0.2368,-0.304,-0.3972,-0.3972,-0.4065,-0.4264,-0.4544,-0.5014,-0.5608,-0.6054,-0.6761,-0.7489,-0.7482,-0.7697,-0.7919,-0.7753,-0.7795,-0.7919,0.0,0.0,0.0,0.0,0.0,0.0,0.0,0.0,0.0,0.0,0.0,0.0,0.0,0.0,-2.2461,-2.2622,-2.0584,-1.9252,-1.916,-1.6082,-1.4295,-1.4362,-1.4026,-1.3808,-1.3739,-1.1993,-1.1113,-1.1217,-1.0335,-0.9068,-0.7547,-0.9029,-1.01,-1.0825,-1.3598,-1.5899,-1.7745,-1.897,-2.0147,-2.1323,-2.2287,-2.2616,-2.2677,-2.3714,-2.256,-2.0451,-2.0715,-1.6936,-1.1872,-1.2316,-0.7914,-0.1693,0.1488,0.5886,1.0533,1.3712,1.4495,1.4257,1.4235,1.4852,1.5496,1.5404,1.5952,1.6777,1.7623,1.8355,1.903,1.9696,1.966,1.9303,1.8722,1.9065,1.9085,1.8142,1.7764,1.7204,1.6144,1.5499,1.4869,1.4086,1.2831,1.1715,1.0813,0.9865,0.889,0.8043,0.7664,0.6892,0.5685,0.5443,0.455,0.2884,0.2632,0.1835,0.0493,-0.0135,-0.0851,-0.1606,-0.2279,-0.3037,-0.3836,-0.3836,-0.3968,-0.4232,-0.4232,-0.459,-0.5225,-0.5716,-0.6337,-0.7021,-0.7314,-0.7579,-0.7712,-0.7712,-0.7712,-0.7712,0.0,0.0,0.0,0.0,0.0,0.0,0.0,0.0,0.0,0.0,0.0,0.0,0.0,0.0,0.0,-2.3366,-2.4109,-2.395,-2.2378,-2.0765,-1.9854,-1.9778,-1.7299,-1.6466,-1.7612,0.0,0.0,0.0,0.0,0.0,0.0,-0.8588,-0.9763,-1.1199,-1.4047,-1.6358,-1.8123,-1.9441,-2.0487,-2.1458,-2.3397,-2.3744,-2.3264,-2.4732,-2.1237,-1.5497,-1.5119,-1.1685,-0.7149,-0.5862,-0.5621,-0.4922,0.0507,0.6215,1.1403,1.3967,1.3961,1.2977,0.0,0.0,0.0,1.3518,1.3982,1.489,1.706,1.7625,1.7972,1.8997,1.876,1.8214,1.7747,1.7214,1.6837,1.6951,1.6522,1.5969,1.5355,1.5164,1.4549,1.315,1.2267,1.1366,1.0312,0.9465,0.8798,0.8221,0.7889,0.7009,0.5366,0.5502,0.4479,0.1964,0.2014,0.139,0.0045,0.0,-0.0448,-0.1379,-0.2233,-0.2993,-0.3697,-0.3697,-0.3836,-0.4108,-0.4108,-0.4456,-0.5101,-0.5524,-0.6161,-0.6917,-0.7238,-0.7496,-0.7663,-0.767,-0.767,-0.767,0.0,0.0,0.0,0.0,0.0,0.0,0.0,0.0,0.0,0.0,0.0,0.0,0.0,0.0,-2.4275,-2.4041,-2.4476,-2.4632,-2.4319,-2.3955,-2.3749,-2.3731,-2.2331,-2.1267,-2.0613,0.0,0.0,0.0,0.0,0.0,0.0,0.0,0.0,-1.2403,-1.512,-1.7366,-1.919,-1.972,-2.0436,-2.1364,-2.2813,-2.3476,-2.3633,-2.4533,-2.3353,-2.1267,-2.1436,-1.9785,-1.7597,-1.7947,-1.4334,-0.796,0.1937,0.7809,1.1336,1.2775,1.2406,1.1358,1.0822,0.0,0.0,0.0,0.0,0.0,1.3655,1.5546,1.7175,1.7424,1.8235,1.8631,1.7719,1.7089,1.6637,1.6324,1.6088,1.5691,1.5085,1.4422,1.3653,1.2657,1.1642,1.0744,1.0115,0.9413,0.8798,0.8221,0.7509,0.6632,0.5483,0.3952,0.2747,0.1914,0.1366,0.0841,0.03,0.0088,-0.0221,-0.0682,-0.2471,-0.3271,-0.3211,-0.3565,-0.3836,-0.4108,-0.4108,-0.428,-0.4578,-0.5009,-0.5508,-0.6031,-0.6529,-0.6901,-0.7143,-0.7376,-0.7503,-0.7503,0.0,0.0,0.0,0.0,0.0,0.0,0.0,0.0,0.0,0.0,0.0,0.0,0.0,0.0,-2.4934,-2.4839,-2.4991,-2.5143,-2.5303,-2.5357,-2.5324,-2.5228,-2.4764,-2.3988,-2.2868,0.0,0.0,0.0,0.0,0.0,0.0,0.0,0.0,0.0,-1.6788,-1.8185,-1.9418,-1.994,-2.0684,-2.1635,-2.3277,-2.3913,-2.4033,-2.5026,-2.4743,-2.3809,-2.3873,-2.2978,-2.1726,-2.1295,-1.6353,-0.8901,-0.0225,0.5681,0.963,1.078,1.0889,1.0418,0.9467,0.9224,0.9148,0.8835,0.0,0.0,1.272,1.4675,1.6392,1.7164,1.7772,1.7973,1.7141,1.6441,1.5832,1.5522,1.522,1.4949,1.4628,1.3815,1.2996,1.2286,1.1309,1.0506,1.0072,0.9361,0.8745,0.8321,0.7563,0.6709,0.5761,0.3465,0.2225,0.228,0.1237,0.0622,0.039,0.0133,-0.0133,-0.0431,-0.2167,-0.2951,-0.2987,-0.3435,-0.3751,-0.3928,-0.3928,-0.406,-0.4228,-0.4401,-0.4804,-0.5354,-0.6079,-0.6497,-0.6725,-0.7071,-0.7258,-0.7419,0.0,0.0,0.0,0.0,0.0,0.0,0.0,0.0,0.0,0.0,0.0,0.0,0.0,0.0,0.0,0.0,-2.5556,-2.5537,-2.5605,-2.5561,-2.5403,-2.5172,-2.5378,-2.5146,-2.4414,0.0,0.0,0.0,0.0,0.0,0.0,0.0,0.0,0.0,0.0,-1.8904,-1.9287,-2.0196,-2.1007,-2.1807,-2.3719,-2.4309,-2.4173,-2.5379,-2.5117,-2.4068,-2.3732,-2.3006,-2.1799,-1.9137,-1.4422,-0.8912,-0.4604,0.0911,0.6006,0.7087,0.8406,0.9154,0.7425,0.7331,0.7712,0.7659,0.8489,0.0,1.2679,1.4011,1.5189,1.685,1.6857,1.6441,1.5903,1.5061,1.44,1.4305,1.392,1.3711,1.4025,1.3294,1.2482,1.1868,1.1124,1.0454,1.002,0.9263,0.8699,0.8421,0.7729,0.6887,0.5901,0.3604,0.2438,0.2723,0.1428,0.063,0.0447,0.0134,-0.0134,-0.0356,-0.1426,-0.2277,-0.2898,-0.329,-0.3551,-0.3672,-0.3655,-0.3792,-0.4022,-0.3803,-0.4134,-0.4904,-0.567,-0.6082,-0.6324,-0.6644,-0.6975,-0.7231,0.0,0.0,0.0,0.0,0.0,0.0,0.0,0.0,0.0,0.0,0.0,0.0,0.0,0.0,0.0,0.0,-2.561,-2.5605,-2.5687,-2.5664,-2.5609,-2.5508,-2.5506,-2.5331,-2.4953,-2.4742,0.0,0.0,0.0,0.0,0.0,0.0,0.0,0.0,0.0,-1.9854,-2.0112,-2.0732,-2.0638,-2.0141,-2.0543,-2.1644,-2.2999,-2.2421,-2.2773,-2.3572,-2.3704,-2.3328,-2.2195,-1.8514,-1.4873,-1.126,-0.777,-0.4392,-0.1854,-0.2287,0.0639,0.3591,0.1525,0.3786,0.6563,0.6131,0.6902,0.0,0.8741,1.0631,1.2206,1.233,1.3178,1.3666,1.3034,1.2177,1.1626,1.1778,1.1528,1.1742,1.2899,1.256,1.1931,1.1318,1.0608,1.0043,0.9718,0.9159,0.8699,0.8421,0.7004,0.5797,0.5008,0.3316,0.2328,0.224,0.1248,0.0685,0.0641,0.0221,-0.0044,-0.0085,-0.0705,-0.1564,-0.2679,-0.2762,-0.3058,-0.3517,-0.3428,-0.3523,-0.3753,-0.3591,-0.3875,-0.4457,-0.487,-0.5202,-0.5455,-0.5745,-0.5994,-0.6145,0.0,0.0,0.0,0.0,0.0,0.0,0.0,0.0,0.0,0.0,0.0,0.0,0.0,-2.5286,-2.5376,0.0,0.0,0.0,0.0,-2.5652,-2.5641,-2.5658,-2.555,-2.544,-2.5302,-2.5163,0.0,0.0,0.0,0.0,0.0,0.0,0.0,0.0,0.0,-2.0514,-2.0364,-2.0448,-2.0162,-1.9632,-1.9986,-2.0113,-2.021,-2.1116,-2.1623,-2.2036,-2.3473,-2.3251,-2.1924,-1.9807,-1.7417,-1.4782,-1.1593,-0.9117,-0.7257,-0.6556,-0.348,-0.0453,-0.1315,0.0894,0.3629,0.4268,0.528,0.0,0.0,0.9195,1.0421,1.0556,1.1266,1.167,1.1007,1.0463,1.0089,1.0151,1.0355,1.0705,1.114,1.1275,1.1301,1.1116,1.0403,0.9829,0.9614,0.9047,0.8527,0.8103,0.7069,0.6036,0.516,0.388,0.284,0.2173,0.1374,0.0888,0.0719,0.0,-0.0351,-0.0378,-0.1183,-0.1879,-0.2474,-0.291,-0.3249,-0.3563,-0.3723,-0.3798,-0.3828,-0.3512,-0.3759,-0.4385,-0.4696,-0.4766,-0.4839,-0.5497,-0.5673,-0.5602,-1.9772,0.0,0.0,0.0,0.0,0.0,0.0,0.0,0.0,0.0,-2.5169,-2.4851,-2.4558,-2.4638,-2.4841,-2.5143,0.0,0.0,-2.5453,-2.5504,-2.5583,-2.5701,-2.5579,-2.5519,-2.5502,-2.5428,-2.4931,0.0,0.0,0.0,0.0,0.0,0.0,-2.0703,-2.083,-2.0635,-2.0177,-1.9553,-1.9137,-1.8982,-1.9353,-1.8732,-1.7871,-2.02,-2.0885,-2.0958,-2.3417,-2.3166,-2.1657,-2.1537,-2.0184,-1.8127,-1.5717,-1.3799,-1.2098,-1.0468,-0.7445,-0.4526,-0.4073,-0.1972,0.0542,0.2415,0.3601,0.4845,0.0,0.0,0.0,0.9094,0.9392,0.9423,0.8918,0.8652,0.8515,0.8415,0.8957,0.9356,0.9008,0.9568,1.0216,1.0919,1.0229,0.9688,0.9597,0.9024,0.8366,0.7616,0.7339,0.6633,0.5437,0.4438,0.3411,0.2232,0.1547,0.1057,0.0717,-0.0183,-0.0788,-0.105,-0.1913,-0.2375,-0.2428,-0.3048,-0.3399,-0.3521,-0.3884,-0.3989,-0.3832,-0.3355,-0.3626,-0.4417,-0.4636,-0.4646,-0.4585,-0.5476,-0.5545,-0.5289,-2.2243,-2.1981,0.0,0.0,0.0,0.0,0.0,0.0,-2.5527,-2.5344,-2.4224,-2.3191,-2.2508,-2.3195,-2.385,-2.43,-2.4184,-2.4322,-2.4937,-2.5202,-2.5437,-2.5683,-2.5623,-2.5565,-2.5498,-2.544,-2.5262,0.0,0.0,0.0,0.0,0.0,0.0,-2.1011,-2.0161,-1.97,-1.9511,-1.7794,-1.7022,-1.6818,-1.5659,-1.6522,-1.8505,-1.8767,-2.0093,-2.2061,-2.3965,-2.3473,-2.2009,-2.241,-2.1306,-1.9803,-1.9872,-1.8993,-1.8035,-1.8718,-1.4752,-1.0052,-0.9744,-0.5575,-0.0868,0.0841,0.2007,0.2947,0.3614,0.0,0.4968,0.5538,0.0,0.5734,0.5769,0.0,0.0,0.5384,0.5763,0.6242,0.6692,0.7058,0.8066,1.0324,0.9804,0.9369,0.9651,0.9123,0.8355,0.7257,0.7328,0.6738,0.5069,0.4323,0.3441,0.2234,0.1587,0.1086,0.0717,-0.0092,-0.114,-0.2284,-0.22,-0.235,-0.2736,-0.2491,-0.2647,-0.3152,-0.31,-0.3201,-0.342,-0.2765,-0.3259,-0.4431,-0.4503,-0.4802,-0.5184,-0.5331,-0.5209,-0.4989,-2.2349,-2.2289,0.0,0.0,0.0,0.0,0.0,-2.4784,-2.4907,-2.5263,-2.4747,-2.4209,-2.3772,-2.3858,-2.4062,-2.4357,-2.4202,-2.4324,-2.493,-2.5201,-2.5444,-2.5637,-2.5618,-2.559,-2.5554,-2.5485,-2.5385,-2.5222,-2.4204,0.0,0.0,0.0,0.0,-2.0508,-1.9249,-1.8433,-1.7917,-1.576,-1.4862,-1.4869,-1.4417,-1.4993,-1.6283,-1.7592,-2.008,-2.3048,-2.4296,-2.4212,-2.3533,-2.3656,-2.313,-2.2364,-2.2021,-2.1545,-2.1078,-2.0924,-1.8033,-1.4444,-1.2369,-0.8056,-0.3565,-0.1187,0.0942,0.254,0.2997,0.3475,0.401,0.4796,0.0,0.0,0.0,0.0,0.0,0.0,0.5454,0.5771,0.5137,0.6272,0.766,0.8997,0.7875,0.7007,0.6972,0.7284,0.721,0.649,0.6621,0.6023,0.4346,0.4006,0.3212,0.1701,0.1456,0.1102,0.074,-0.0324,-0.1228,-0.2023,-0.2143,-0.2382,-0.2701,-0.271,-0.2884,-0.3157,-0.3353,-0.3316,-0.3093,-0.2688,-0.2905,-0.3552,-0.4377,-0.4939,-0.5404,-0.5837,-0.5448,-0.468,-2.2992,0.0,-2.3199,-2.4013,-2.4302,-2.4436,-2.4489,-2.4496,-2.4687,-2.5236,-2.4953,-2.4648,-2.4535,-2.4043,-2.3785,-2.3989,-2.4008,-2.4267,-2.4829,-2.5148,-2.5393,-2.557,-2.5586,-2.5601,-2.5601,-2.5529,-2.5441,-2.5361,0.0,0.0,0.0,0.0,0.0,0.0,-1.8767,-1.7671,-1.6741,-1.4309,-1.351,-1.379,-1.36,-1.3761,-1.4434,-1.7118,-2.0219,-2.3187,-2.4026,-2.4261,-2.4174,-2.42,-2.4105,-2.3883,-2.3241,-2.3034,-2.2877,-2.2033,-2.0447,-1.8253,-1.4941,-1.0667,-0.6345,-0.3186,-0.0719,0.1052,0.1569,0.2904,0.4204,0.4892,0.5611,0.0,0.0,0.0,0.5203,0.4872,0.0,0.5325,0.4068,0.4794,0.6093,0.7591,0.5977,0.4713,0.4581,0.5619,0.6032,0.5345,0.5844,0.5392,0.3627,0.3674,0.3012,0.1346,0.1323,0.1121,0.0806,-0.0425,-0.1278,-0.1689,-0.2181,-0.2467,-0.2596,-0.2795,-0.2929,-0.3022,-0.3224,-0.3018,-0.2563,-0.2237,-0.2334,-0.2739,-0.3898,-0.4781,-0.5494,-0.6296,-0.582,-0.4737,-2.5109,-2.4527,-2.4324,-2.5189,-2.5394,-2.5448,-2.5454,-2.5337,-2.5269,-2.5311,-2.4222,-2.3484,-2.3528,-2.277,-2.2384,-2.2737,-2.328,-2.3871,-2.4475,-2.4892,-2.5232,-2.5486,-2.5566,-2.5592,-2.5602,-2.5532,-2.5499,-2.5483,-2.4409,0.0,0.0,0.0,0.0,0.0,-1.9007,-1.7838,-1.6515,-1.3842,-1.324,-1.3996,-1.2754,-1.2786,-1.3927,-1.7655,-2.0312,-2.2139,-2.2876,-2.3118,-2.3133,-2.357,-2.3635,-2.3526,-2.3556,-2.3627,-2.3611,-2.3334,-2.2726,-2.1481,-1.8392,-1.3791,-0.8913,-0.4934,-0.332,-0.2549,-0.1827,0.1912,0.5251,0.5341,0.6447,0.7506,0.8032,0.7164,0.6166,0.5545,0.478,0.0,0.0,0.1829,0.2217,0.6294,0.464,0.3224,0.3452,0.4655,0.4938,0.3674,0.514,0.5166,0.3026,0.3347,0.2903,0.1346,0.1301,0.1151,0.0807,-0.0388,-0.1207,-0.1609,-0.2392,-0.2683,-0.2483,-0.2383,-0.2384,-0.2496,-0.2182,-0.1943,-0.1709,-0.1095,-0.1404,-0.2289,-0.2921,-0.406,-0.5521,-0.6434,-0.6171,-0.5323,-2.5512,-2.5226,-2.5173,-2.5425,-2.5556,-2.5621,-2.5561,-2.4958,-2.4422,-2.4214,-2.3727,-2.314,-2.2444,-2.1878,-2.1836,-2.2625,-2.3312,-2.3885,-2.4279,-2.581,-2.6273,-2.534,-2.6054,-2.6186,-2.5605,-2.5576,-2.5566,-2.5576,-2.4547,-2.358,0.0,0.0,0.0,0.0,-1.8561,-1.6745,-1.4597,-1.2958,-1.1687,-1.0991,-1.2783,-1.4304,-1.5488,-1.4893,-1.533,-1.6567,-1.8976,-2.0114,-2.0684,-2.2491,-2.3338,-2.3628,-2.3513,-2.3405,-2.3387,-2.341,-2.2902,-2.1678,-1.8908,-1.5405,-1.1959,-0.9673,-0.7226,-0.5181,-0.4521,-0.4346,-0.2618,0.3307,0.1023,-0.0941,0.28,0.0289,-0.1835,-0.0204,0.1629,0.2513,0.0,0.0061,-0.025,0.1025,0.1284,0.1357,0.1223,0.2602,0.3344,0.2928,0.4302,0.4545,0.3137,0.3405,0.3014,0.168,0.1139,0.0732,0.0555,-0.0437,-0.1196,-0.1673,-0.2141,-0.2274,-0.2157,-0.2184,-0.2032,-0.1825,-0.1722,-0.132,-0.0742,-0.055,-0.0583,-0.0888,-0.2176,-0.3306,-0.4377,-0.5795,-0.5819,-0.492,-2.6107,-2.578,-2.5585,-2.5542,-2.5624,-2.5774,-2.5984,-2.4851,-2.3738,-2.3179,-2.2735,-2.2126,-2.121,-2.1052,-2.1439,-2.2427,-2.3405,-2.4193,-2.469,-2.6464,-2.7094,-2.6198,-2.6605,-2.6591,-2.5993,-2.5722,-2.5605,-2.5593,-2.4632,-2.3758,0.0,0.0,0.0,0.0,-1.9201,-1.7167,-1.4558,-1.3488,-1.1937,-1.0325,-1.2061,-1.3719,-1.4797,-1.1443,-1.1843,-1.4513,-1.688,-1.8161,-1.9112,-2.1779,-2.301,-2.3361,-2.2805,-2.2641,-2.2582,-2.2296,-2.206,-2.1199,-1.8015,-1.5514,-1.3556,-1.2575,-1.0236,-0.7921,-0.6717,-0.5731,-0.3906,0.0094,-0.1305,-0.2531,-0.0177,-0.2556,-0.4113,-0.1871,0.0262,0.1039,0.0,-0.1157,-0.1417,-0.1657,-0.0916,-0.0311,-0.0123,0.0914,0.1921,0.2696,0.3602,0.3854,0.3304,0.335,0.285,0.1736,0.0988,0.0533,0.0257,-0.0496,-0.1174,-0.1795,-0.1994,-0.2121,-0.2191,-0.2117,-0.1914,-0.1613,-0.1174,-0.067,-0.0201,-0.0174,-0.0069,-0.0034,-0.161,-0.2614,-0.3423,-0.521,-0.5291,-0.4241,-2.6897,-2.6227,-2.5673,-2.5762,-2.5724,-2.5892,-2.6533,-2.4889,-2.3218,-2.2147,-2.1206,-2.043,-1.9859,-2.0284,-2.1026,-2.2091,-2.3478,-2.4671,-2.5589,-2.683,-2.7618,-2.7764,-2.7205,-2.6822,-2.6629,-2.5969,-2.5605,-2.5605,-2.4771,-2.4276,0.0,0.0,0.0,0.0,-2.0842,-1.8896,-1.6163,-1.5313,-1.376,-1.1835,-1.0837,-1.1286,-1.2129,-0.7993,-1.024,-1.5708,-1.6394,-1.716,-1.8315,-2.1267,-2.2488,-2.2608,-2.1534,-2.1313,-2.1253,-2.018,-2.0451,-2.0234,-1.6253,-1.4579,-1.3922,-1.3596,-1.244,-1.0789,-0.8553,-0.3021,0.04,-0.3852,-0.0785,0.1804,-0.1088,-0.1573,-0.1184,-0.0156,0.0217,-0.0337,-0.2452,-0.1942,-0.1471,-0.1819,-0.1919,-0.1585,-0.0554,-0.0252,0.0748,0.2809,0.2945,0.3159,0.3638,0.3132,0.2465,0.1628,0.101,0.0497,0.0106,-0.0565,-0.1191,-0.1817,-0.1969,-0.2169,-0.2444,-0.2122,-0.1919,-0.1789,-0.0571,-0.0034,0.0,0.0067,0.0134,0.0101,-0.12,-0.209,-0.2823,-0.47,-0.4604,-0.3297,-2.6953,-2.6611,-2.6819,-2.8055,-2.6678,-2.5099,-2.4259,-2.305,-2.1478,-1.9417,-1.8757,-1.8425,-1.8259,-1.891,-2.0071,-2.19,-2.3189,-2.4157,-2.4701,-2.7028,-2.7627,-2.5876,-2.7393,-2.7508,-2.5846,-2.566,-2.5611,-2.5679,-2.5396,-2.488,-2.418,0.0,0.0,-2.1889,-2.1256,-1.8932,-1.5459,-1.5302,-1.4063,-1.2207,-1.2006,-1.2665,-1.3544,-1.1476,-1.1709,-1.3103,-1.2951,-1.4277,-1.6471,-1.919,-2.0065,-1.9994,-1.9813,-1.9571,-1.9372,-1.9319,-1.9563,-1.9706,-1.8967,-1.7706,-1.6412,-1.5549,-1.4576,-1.3335,-1.1593,-1.1005,-0.9542,-0.499,-0.577,-0.7117,-0.6465,-0.7001,-0.772,-0.8174,-0.4796,-0.25,-0.3455,-0.284,-0.2276,-0.2333,-0.2113,-0.1797,-0.1487,-0.041,0.0755,0.1923,0.253,0.3372,0.4522,0.3076,0.2459,0.2914,0.112,0.0496,0.1169,0.0051,-0.0441,-0.0322,-0.0829,-0.1396,-0.1966,-0.1672,-0.1477,-0.1279,-0.0841,-0.0403,-0.0,-0.0202,-0.0402,-0.0702,-0.163,-0.2809,-0.4001,-0.4062,-0.3418,-0.2395,-2.7749,-2.7103,-2.6988,-2.8309,-2.6324,-2.4483,-2.4204,-2.2735,-2.0724,-1.8087,-1.7118,-1.6837,-1.7282,-1.8208,-1.963,-2.1821,-2.3325,-2.4429,-2.5089,-2.7062,-2.7643,-2.6373,-2.7296,-2.7257,-2.6011,-2.5696,-2.5564,-2.5574,-2.5592,-2.5294,-2.4728,0.0,0.0,-2.2702,-2.1696,-1.9637,-1.6823,-1.4878,-1.3575,-1.2763,-1.1796,-1.2339,0.0,-1.2025,-1.2318,-1.3321,-1.226,-1.3078,-1.4985,-1.7348,-1.8269,-1.8316,-1.8032,-1.7722,-1.7453,-1.733,-1.742,-1.7697,-1.8221,-1.7613,-1.667,-1.5876,-1.5261,-1.4547,-1.3579,-1.2782,-1.1818,-1.0283,-1.0694,-1.1433,-1.1709,-1.2097,-1.189,-1.0608,-0.7183,-0.4732,-0.4663,-0.3281,-0.245,-0.2914,-0.2267,-0.2004,-0.2642,-0.0915,0.0577,0.1483,0.1729,0.2294,0.3239,0.2483,0.2305,0.28,0.1511,0.1165,0.1957,0.0879,0.0346,0.0332,-0.0167,-0.0776,-0.1482,-0.1432,-0.1445,-0.1516,-0.1212,-0.0875,-0.0571,-0.0839,-0.1087,-0.1387,-0.2437,-0.3504,-0.4426,-0.4053,-0.3357,-0.2498,-2.8753,-2.7708,-2.6969,-2.7853,-2.5764,-2.4216,-2.5069,-2.2762,-1.9973,-1.7462,-1.6063,-1.5804,-1.7049,-1.8159,-1.9696,-2.2004,-2.3557,-2.4856,-2.5901,-2.6918,-2.7493,-2.7576,-2.7056,-2.667,-2.6439,-2.5816,-2.5476,-2.5401,-2.5548,-2.5525,0.0,0.0,-2.4823,-2.3765,-2.2118,-2.0236,-1.803,-1.4005,-1.2463,-1.2604,-1.0667,-1.109,-1.2742,-1.1468,-1.266,-1.4865,-1.3258,-1.3118,-1.3974,-1.5766,-1.6593,-1.6775,-1.6012,-1.5616,-1.5322,-1.4859,-1.4827,-1.5036,-1.5684,-1.5797,-1.5624,-1.5294,-1.4994,-1.4754,-1.453,-1.1538,-1.0275,-1.5701,-1.3742,-1.1987,-1.5098,-1.5472,-1.4026,-1.0189,-0.8015,-0.6627,-0.5932,-0.3638,-0.2329,-0.3231,-0.2382,0.0,-0.3309,-0.1555,0.0059,0.1088,0.0918,0.1031,0.1635,0.1992,0.2257,0.2408,0.2069,0.2065,0.2504,0.1773,0.1136,0.071,0.0292,-0.0306,-0.0993,-0.1317,-0.1686,-0.2027,-0.1583,-0.1445,-0.1514,-0.1724,-0.1919,-0.2234,-0.3448,-0.415,-0.4457,-0.4391,-0.3976,-0.3257,-2.8872,-2.8527,-2.8521,-2.9513,-2.7547,-2.5428,-2.4261,-2.0175,-1.6963,-1.6147,-1.5385,-1.5877,-1.8371,-1.9357,-2.074,-2.3034,-2.3303,-2.3936,-2.5265,-2.6244,-2.6527,-2.5944,-2.7051,-2.7031,-2.5643,-2.5542,-2.5488,-2.5481,-2.557,-2.5499,-2.5318,-2.5263,-2.4938,-2.4358,-2.2647,-1.8794,-1.3528,-1.2568,-1.0637,-0.8365,-0.912,-1.0511,-1.2327,-1.3472,-1.4289,-1.4726,-1.4354,-1.4192,-1.4204,-1.4397,-1.3884,-1.3141,-1.3042,-1.2671,-1.2437,-1.3085,-1.3326,-1.3572,-1.445,-1.4717,-1.4722,-1.4646,-1.4482,-1.427,-1.3995,-1.2768,-1.1577,-1.1195,-0.8953,-0.7898,-1.0842,-1.2586,-1.3195,-1.1796,-0.9019,-0.6917,-0.6483,-0.4477,-0.279,-0.2062,-0.212,-0.2022,-0.1388,-0.1864,-0.1458,0.0468,0.0799,0.1854,0.4216,0.3235,0.308,0.4193,0.2845,0.2479,0.322,0.2212,0.1828,0.1951,0.1045,0.0234,-0.0464,-0.1336,-0.178,-0.1847,-0.1942,-0.2142,-0.249,-0.2749,-0.321,-0.3826,-0.4356,-0.47,-0.4883,-0.4753,-0.4578,-0.4172,-2.9429,-2.8988,-2.885,-2.9432,-2.7427,-2.5355,-2.4165,-2.0542,-1.7857,-1.7704,-1.6884,-1.7308,-1.9867,-2.0413,-2.1148,-2.2612,-2.3206,-2.382,-2.458,-2.5505,-2.5857,-2.5469,-2.6188,-2.6233,-2.5414,-2.5468,-2.5503,-2.5506,-2.551,-2.5707,-2.6119,-2.5461,-2.5158,-2.5077,-2.3085,-2.0058,-1.6166,-1.2349,-1.0109,-0.9153,-0.875,-0.9828,-1.1778,-1.316,-1.377,-1.3887,-1.4447,-1.4311,-1.3766,-1.3273,-1.2579,-1.189,-1.1793,-1.138,-1.0946,-1.0989,-1.1061,-1.1323,-1.2105,-1.2346,-1.2587,-1.3446,-1.3544,-1.3417,-1.3383,-1.2812,-1.2234,-1.2091,-1.1444,-1.1588,-1.3825,-1.4549,-1.461,-1.4015,-1.1742,-0.966,-0.8718,-0.5877,-0.3877,-0.3843,-0.2682,-0.2028,-0.2317,-0.3337,-0.2984,-0.0597,-0.0307,0.0673,0.2632,0.2529,0.2858,0.3741,0.3627,0.3767,0.4294,0.3405,0.3136,0.3365,0.2242,0.1079,-0.0117,-0.1046,-0.1714,-0.2081,-0.2537,-0.2768,-0.2826,-0.3357,-0.4025,-0.4754,-0.4995,-0.5308,-0.5541,-0.5275,-0.502,-0.4677,-2.9943,-2.9211,-2.8671,-2.8901,-2.7043,-2.5261,-2.4521,-2.208,-2.0161,-1.9879,-1.8755,-1.8869,-2.1179,-2.1167,-2.1302,-2.206,-2.3101,-2.3827,-2.4124,-2.5019,-2.55,-2.5448,-2.5447,-2.5428,-2.539,-2.5444,-2.5429,-2.5344,-2.5358,-2.5774,-2.6524,-2.6301,-2.5461,-2.4019,-2.1611,-1.9501,-1.7336,-1.1288,-0.8721,-0.8684,-0.7992,-0.9065,-1.1243,-1.2076,-1.265,-1.3163,-1.414,-1.408,-1.3424,-1.28,-1.2152,-1.1524,-1.1148,-1.0619,-0.9971,-0.9287,-0.9103,-0.9207,-0.9651,-0.9932,-1.036,-1.1455,-1.1952,-1.217,-1.2213,-1.1958,-1.2009,-1.3023,-1.4042,-1.5248,-1.6922,-1.6606,-1.5994,-1.5685,-1.3953,-1.22,-1.0871,-0.7536,-0.5398,-0.591,-0.3638,-0.2537,-0.3724,-0.415,-0.3765,-0.2235,-0.1644,-0.0605,0.1064,0.2219,0.303,0.3583,0.4764,0.5411,0.5542,0.5042,0.4722,0.4618,0.3349,0.1911,0.0389,-0.0772,-0.1711,-0.2477,-0.3266,-0.3508,-0.3432,-0.3984,-0.4587,-0.5173,-0.535,-0.56,-0.5801,-0.5649,-0.5384,-0.4986,-3.0028,-2.9071,-2.8354,-2.8682,-2.7478,-2.6187,-2.5326,-2.4017,-2.265,-2.1374,-1.9752,-1.9597,-2.1941,-2.143,-2.1338,-2.2456,-2.287,-2.3415,-2.4238,-2.5094,-2.5583,-2.5574,-2.5574,-2.5518,-2.5401,-2.5352,-2.5178,-2.4879,-2.5158,-2.5335,-2.5423,-2.836,-2.5874,-1.8852,-1.5777,-1.2675,-0.9542,-0.7449,-0.4568,-0.1728,-0.5494,-0.8528,-1.0781,-1.0915,-1.1861,-1.3161,-1.3678,-1.3864,-1.3841,-1.3637,-1.2657,-1.1359,-1.0475,-0.9725,-0.9059,-0.8747,-0.8457,-0.8128,-0.7777,-0.8392,-0.8932,-0.8118,-0.9168,-1.0309,-0.9763,-0.9897,-1.0083,-1.0026,-1.1265,-1.2884,-1.4681,-1.5278,-1.5544,-1.5675,-1.3859,-1.2257,-1.1743,-0.9533,-0.7474,-0.6338,-0.4815,-0.392,-0.4056,-0.2795,-0.2778,-0.4766,-0.2905,-0.0302,0.2869,0.4042,0.5027,0.5759,0.6804,0.7225,0.692,0.6912,0.6385,0.5392,0.3929,0.2596,0.1399,-0.0622,-0.2046,-0.2911,-0.4073,-0.4719,-0.4963,-0.4862,-0.4899,-0.503,-0.5096,-0.5086,-0.507,-0.5573,-0.5564,-0.5286,-2.9903,-2.9485,-2.9045,-2.8846,-2.8356,-2.7554,-2.6286,-2.5473,-2.4529,-2.3259,-2.1755,-2.1321,-2.2756,-2.1701,-2.1168,-2.183,-2.2416,-2.3113,-2.3956,-2.4851,-2.533,-2.5301,-2.5293,-2.5351,-2.5468,-2.5233,-2.4996,-2.4743,-2.4498,-2.454,-2.4821,-2.6374,-2.5015,-2.1022,-1.3782,-0.9278,-0.6967,-0.4026,-0.2177,-0.1635,-0.6206,-0.8837,-1.0046,-0.9899,-1.053,-1.1729,-1.3076,-1.3468,-1.3467,-1.4124,-1.3141,-1.1486,-1.0768,-0.9728,-0.857,-0.7239,-0.6721,-0.6429,-0.5681,-0.5822,-0.621,-0.6352,-0.7336,-0.8253,-0.8129,-0.8733,-0.9333,-0.9415,-1.0882,-1.2684,-1.4265,-1.5407,-1.6034,-1.5949,-1.5223,-1.4386,-1.3593,-1.2228,-1.1287,-1.1204,-0.9259,-0.8459,-0.9776,-0.791,-0.6691,-0.6794,-0.3372,-0.1153,-0.0901,0.2335,0.4527,0.5321,0.701,0.8391,0.9442,0.8855,0.7999,0.6905,0.5231,0.3517,0.178,-0.0534,-0.2905,-0.5229,-0.5811,-0.622,-0.6435,-0.6158,-0.5939,-0.5716,-0.5191,-0.5184,-0.5511,-0.5529,-0.5492,-0.5437,-2.9908,-2.942,-2.8914,-2.8587,-2.8404,-2.7843,-2.6533,-2.6191,-2.5612,-2.4255,-2.2987,-2.235,-2.2753,-2.1443,-2.0759,-2.129,-2.2058,-2.289,-2.3746,-2.4658,-2.5151,-2.5103,-2.5096,-2.5168,-2.531,-2.5095,-2.4847,-2.4613,-2.4209,-2.4117,-2.4297,-2.4783,-2.3657,-2.0872,-1.2299,-0.7257,-0.5075,-0.237,-0.1926,-0.3325,-0.6416,-0.8554,-0.9858,-0.9642,-0.9995,-1.0732,-1.2324,-1.292,-1.3119,-1.4196,-1.3421,-1.1882,-1.1137,-1.0041,-0.8498,-0.6228,-0.5516,-0.5196,-0.3878,-0.3823,-0.4178,-0.4408,-0.5492,-0.6458,-0.6315,-0.7484,-0.8793,-0.9403,-1.105,-1.271,-1.3795,-1.5215,-1.6168,-1.6072,-1.618,-1.6079,-1.5533,-1.4705,-1.4429,-1.5032,-1.285,-1.2019,-1.3903,-1.1561,-0.988,-0.9676,-0.4919,-0.22,-0.2519,0.1657,0.475,0.6173,0.8321,1.0217,1.1724,1.072,0.9608,0.8414,0.6194,0.402,0.1905,-0.1329,-0.4393,-0.7273,-0.7747,-0.8063,-0.8175,-0.7842,-0.7375,-0.6753,-0.5863,-0.5639,-0.58,-0.55,-0.5384,-0.5437,-3.0132,-2.8651,-2.7405,-2.7659,-2.723,-2.6569,-2.5831,-2.6044,-2.5701,-2.4018,-2.2975,-2.2198,-2.1675,-2.0474,-2.0116,-2.1116,-2.189,-2.2728,-2.3724,-2.4622,-2.5115,-2.5096,-2.5096,-2.5037,-2.4915,-2.4902,-2.4737,-2.4383,-2.4526,-2.4332,-2.3842,-2.4615,-2.186,-1.5947,-1.0741,-0.6385,-0.2933,-0.3151,-0.4365,-0.5993,-0.5218,-0.7169,-1.051,-1.0507,-1.0514,-1.0677,-1.1437,-1.2169,-1.291,-1.365,-1.3403,-1.261,-1.1519,-1.0462,-0.8993,-0.607,-0.5211,-0.4727,-0.2519,-0.2795,-0.337,-0.1906,-0.344,-0.5053,-0.4064,-0.5949,-0.832,-0.979,-1.1362,-1.2571,-1.2789,-1.4298,-1.5598,-1.5857,-1.625,-1.6703,-1.7379,-1.6775,-1.6345,-1.653,-1.4489,-1.3504,-1.4568,-1.1808,-1.1085,-1.3893,-0.8162,-0.3151,-0.0,0.3166,0.6337,0.9536,1.1584,1.2926,1.3546,1.249,1.1228,0.9714,0.6448,0.39,0.1835,-0.3255,-0.6623,-0.853,-0.9756,-1.0299,-1.0329,-0.9995,-0.918,-0.8086,-0.728,-0.6467,-0.5658,-0.5409,-0.5317,-0.5286,-2.9249,-2.8273,-2.7491,-2.768,-2.7547,-2.6953,-2.5628,-2.5499,-2.4667,-2.2207,-2.1505,-2.0915,-2.0061,-1.9632,-1.9983,-2.1359,-2.166,-2.2379,-2.3835,-2.4323,-2.4588,-2.4682,-2.4779,-2.4712,-2.4511,-2.4586,-2.4669,-2.4739,-2.47,-2.4454,-2.4073,-2.381,-2.2576,-2.0307,-1.3945,-1.0709,-0.9777,-0.6212,-0.5933,-0.7763,-0.7552,-0.9234,-1.1861,-1.1377,-1.1002,-1.0871,-1.1925,-1.2397,-1.2684,-1.4063,-1.395,-1.3035,-1.1644,-1.0538,-0.9142,-0.6216,-0.5532,-0.5211,-0.2713,-0.2414,-0.2787,-0.2688,-0.3546,-0.4498,-0.4776,-0.625,-0.7924,-0.9297,-1.0273,-1.1314,-1.2507,-1.3578,-1.4501,-1.5165,-1.6123,-1.6755,-1.6765,-1.7776,-1.8485,-1.8256,-1.7413,-1.6728,-1.6363,-1.5234,-1.4226,-1.3453,-1.1082,-0.7899,-0.3975,0.2645,0.7711,1.0678,1.3797,1.5983,1.7174,1.552,1.3525,1.119,0.8359,0.4161,-0.1245,-0.433,-0.7552,-1.0726,-1.1532,-1.2218,-1.2774,-1.2534,-1.1487,-0.9908,-0.8619,-0.7573,-0.6711,-0.6186,-0.5773,-0.5489,-2.8514,-2.7796,-2.7122,-2.6919,-2.6598,-2.5915,-2.4531,-2.4208,-2.3295,-2.1034,-2.0585,-2.0033,-1.8883,-1.9091,-1.9903,-2.1389,-2.1443,-2.2114,-2.385,-2.4078,-2.4229,-2.4409,-2.4409,-2.4318,-2.4153,-2.4155,-2.4284,-2.4524,-2.4321,-2.4082,-2.3803,-2.3329,-2.2748,-2.1863,-1.6299,-1.3893,-1.3762,-0.9267,-0.821,-0.9629,-0.9941,-1.1005,-1.225,-1.1948,-1.1426,-1.1077,-1.1981,-1.2294,-1.2388,-1.3529,-1.3456,-1.2634,-1.1425,-1.061,-0.9432,-0.6145,-0.5728,-0.5701,-0.2778,-0.2608,-0.3193,-0.2869,-0.3548,-0.4555,-0.5458,-0.6493,-0.7551,-0.8513,-0.9651,-1.0805,-1.2081,-1.3153,-1.409,-1.4984,-1.6276,-1.7136,-1.7054,-1.8582,-1.9639,-1.9359,-1.9157,-1.884,-1.829,-1.7809,-1.6824,-1.5002,-1.2653,-0.9768,-0.6299,0.1824,0.8362,1.286,1.6018,1.8243,1.954,1.7427,1.5194,1.2762,0.7525,0.1933,-0.3834,-0.6585,-0.9394,-1.2211,-1.3489,-1.4389,-1.498,-1.4978,-1.3942,-1.2195,-1.0534,-0.94,-0.8558,-0.7114,-0.6624,-0.6585,-2.7876,-2.7196,-2.6343,-2.5525,-2.4718,-2.3795,-2.272,-2.2312,-2.1662,-2.0336,-2.003,-1.9434,-1.8115,-1.875,-1.9812,-2.1179,-2.1247,-2.1949,-2.3726,-2.3842,-2.3963,-2.4247,-2.404,-2.3906,-2.3853,-2.3689,-2.3692,-2.3869,-2.352,-2.328,-2.3111,-2.3041,-2.231,-2.0879,-1.7632,-1.5822,-1.5073,-1.2031,-1.099,-1.1425,-1.2308,-1.2387,-1.1993,-1.2266,-1.1924,-1.1367,-1.1795,-1.2055,-1.2196,-1.2396,-1.2161,-1.1718,-1.1113,-1.0698,-0.9733,-0.6133,-0.5923,-0.6153,-0.2961,-0.3354,-0.4274,-0.2751,-0.362,-0.5128,-0.6043,-0.6651,-0.7155,-0.7702,-0.9358,-1.0908,-1.1578,-1.2923,-1.4219,-1.5091,-1.6527,-1.7639,-1.7947,-1.909,-1.9871,-1.9842,-1.9844,-1.9892,-2.0093,-1.9477,-1.8792,-1.806,-1.3466,-0.9649,-0.7148,0.042,0.7999,1.5361,1.81,1.9878,2.0825,1.854,1.6305,1.408,0.463,-0.1828,-0.5554,-0.944,-1.1902,-1.322,-1.5477,-1.661,-1.6957,-1.7211,-1.6365,-1.4736,-1.2943,-1.1817,-1.0898,-0.8342,-0.7888,-0.828,-2.6909,-2.6232,-2.5349,-2.445,-2.3987,-2.3189,-2.1502,-2.0797,-2.0046,-1.8932,-1.848,-1.8108,-1.7676,-1.8397,-1.9284,-2.0257,-2.0925,-2.1833,-2.3129,-2.3271,-2.3441,-2.3819,-2.4039,-2.3923,-2.3446,-2.3599,-2.3652,-2.3576,-2.3212,-2.2781,-2.2282,-2.2058,-2.1381,-2.0285,-1.7758,-1.5948,-1.4766,-1.3212,-1.2657,-1.2764,-1.3104,-1.3294,-1.3388,-1.3107,-1.2813,-1.2573,-1.2643,-1.2769,-1.2881,-1.2965,-1.2637,-1.2157,-1.1975,-1.1095,-0.9828,-0.8238,-0.704,-0.6043,-0.5285,-0.4634,-0.4314,-0.4851,-0.5314,-0.5689,-0.582,-0.6429,-0.7203,-0.7799,-0.9044,-1.0369,-1.1439,-1.246,-1.3498,-1.4537,-1.5817,-1.6744,-1.686,-1.8464,-1.954,-1.9382,-1.9703,-1.9978,-2.0094,-1.9931,-1.9356,-1.8148,-1.7345,-1.4313,-0.8371,-0.3497,0.3463,1.3071,1.8985,2.2331,2.2948,2.0481,1.6915,1.2173,0.4615,-0.0582,-0.3623,-0.8934,-1.2654,-1.5044,-1.621,-1.7265,-1.82,-1.8358,-1.7526,-1.6065,-1.5065,-1.3638,-1.2004,-1.0765,-0.9731,-0.8761,-2.5734,-2.5051,-2.4166,-2.3172,-2.2588,-2.1752,-2.0214,-1.9515,-1.8892,-1.8125,-1.7698,-1.7399,-1.7199,-1.788,-1.8732,-1.9644,-2.0773,-2.1816,-2.2712,-2.2968,-2.32,-2.3414,-2.3606,-2.3544,-2.323,-2.3082,-2.295,-2.2796,-2.2176,-2.1917,-2.1976,-2.1124,-2.0099,-1.8887,-1.7405,-1.6014,-1.4667,-1.3549,-1.3131,-1.3132,-1.3007,-1.3146,-1.3452,-1.2978,-1.2751,-1.2687,-1.2648,-1.2528,-1.2389,-1.2548,-1.2226,-1.173,-1.163,-1.074,-0.961,-0.8539,-0.749,-0.6567,-0.603,-0.5786,-0.5778,-0.6197,-0.6256,-0.6135,-0.6067,-0.661,-0.7252,-0.7799,-0.8924,-1.0225,-1.1376,-1.2307,-1.3243,-1.4296,-1.5639,-1.6648,-1.6972,-1.8805,-2.0025,-1.9897,-2.0467,-2.0862,-2.0799,-2.0893,-2.048,-1.9306,-1.8608,-1.6638,-1.2921,-0.7508,0.0689,1.2146,1.7708,2.1754,2.4308,2.069,1.571,0.9477,0.3792,-0.0953,-0.4843,-0.9335,-1.2572,-1.4717,-1.6131,-1.7328,-1.8315,-1.8698,-1.8307,-1.7371,-1.6356,-1.5265,-1.4112,-1.2539,-1.1458,-1.0507,-2.4425,-2.3832,-2.2975,-2.1757,-2.0968,-2.0096,-1.8966,-1.8385,-1.7948,-1.7625,-1.7263,-1.6968,-1.6738,-1.7321,-1.8111,-1.9044,-2.0507,-2.1696,-2.2364,-2.2721,-2.2943,-2.3021,-2.3017,-2.3017,-2.3021,-2.2405,-2.2034,-2.1857,-2.0912,-2.08,-2.1397,-1.9972,-1.8616,-1.7348,-1.6715,-1.5745,-1.4494,-1.3423,-1.3006,-1.2932,-1.2487,-1.25,-1.2798,-1.2392,-1.2226,-1.2187,-1.2234,-1.1995,-1.167,-1.1875,-1.1664,-1.1276,-1.077,-1.0213,-0.9499,-0.8396,-0.7772,-0.7172,-0.6028,-0.6656,-0.7504,-0.6866,-0.6659,-0.6579,-0.654,-0.6904,-0.7384,-0.7784,-0.8956,-1.0225,-1.135,-1.2224,-1.317,-1.4322,-1.5715,-1.6894,-1.7606,-1.9443,-2.0709,-2.0766,-2.1466,-2.1928,-2.1777,-2.2017,-2.1819,-2.0893,-1.9058,-1.8037,-1.8158,-1.1604,-0.2449,0.935,1.4123,1.88,2.3621,1.926,1.3657,0.7035,0.2731,-0.1805,-0.6527,-0.9901,-1.2191,-1.3543,-1.5583,-1.6936,-1.7762,-1.8431,-1.8574,-1.827,-1.7164,-1.6594,-1.6149,-1.4024,-1.2987,-1.2445,-2.2996,-2.274,-2.2082,-2.0264,-1.9717,-1.9105,-1.7936,-1.7332,-1.6994,-1.6952,-1.6581,-1.6344,-1.6289,-1.6933,-1.7527,-1.7864,-1.95,-2.0924,-2.1936,-2.2056,-2.2237,-2.2565,-2.266,-2.266,-2.2591,-2.2005,-2.1538,-2.123,-2.0288,-1.9437,-1.87,-1.7829,-1.7196,-1.6775,-1.5783,-1.4651,-1.3425,-1.3092,-1.2712,-1.2387,-1.19,-1.1941,-1.2207,-1.2023,-1.1855,-1.1715,-1.1847,-1.21,-1.2316,-1.2146,-1.2325,-1.2351,-1.0832,-1.0266,-1.0137,-0.9955,-0.8553,-0.6962,-0.6429,-0.6869,-0.7337,-0.6581,-0.6633,-0.6859,-0.662,-0.7153,-0.7792,-0.8088,-0.903,-1.0108,-1.1159,-1.1827,-1.2839,-1.4694,-1.5762,-1.6816,-1.8082,-1.9425,-2.0492,-2.096,-2.1809,-2.236,-2.2426,-2.2782,-2.2832,-2.239,-2.1349,-2.0329,-1.9466,-1.5727,-1.0225,-0.2879,0.6129,1.2894,1.713,1.5257,1.1846,0.6966,0.226,-0.1436,-0.4369,-0.9446,-1.2224,-1.3169,-1.4687,-1.5883,-1.6868,-1.7527,-1.7849,-1.7902,-1.7813,-1.7216,-1.6307,-1.5456,-1.4114,-1.2562,-2.1326,-2.0919,-2.0365,-1.9265,-1.864,-1.7997,-1.7182,-1.6761,-1.648,-1.6331,-1.6034,-1.5839,-1.5911,-1.614,-1.6589,-1.7363,-1.8478,-1.9558,-2.0645,-2.1474,-2.1797,-2.149,-2.2,-2.2147,-2.1907,-2.1628,-2.102,-2.0081,-1.9121,-1.8163,-1.7112,-1.5751,-1.4901,-1.4512,-1.375,-1.3122,-1.2647,-1.2256,-1.2121,-1.208,-1.1486,-1.1417,-1.1617,-1.1287,-1.1346,-1.1616,-1.1689,-1.1723,-1.1841,-1.2014,-1.2073,-1.1966,-1.1415,-1.1028,-1.0678,-1.0389,-0.8924,-0.7228,-0.6448,-0.719,-0.7906,-0.6888,-0.7067,-0.7487,-0.7351,-0.7539,-0.7923,-0.8594,-0.9159,-0.9913,-1.1169,-1.1715,-1.2543,-1.441,-1.5385,-1.6471,-1.808,-1.9358,-2.0459,-2.1218,-2.1945,-2.246,-2.2596,-2.2601,-2.2506,-2.229,-2.1685,-2.1128,-2.0593,-1.9355,-1.62,-1.0845,0.2637,1.1015,1.3515,1.1992,0.895,0.4414,0.1253,-0.2069,-0.5471,-0.8141,-1.0261,-1.1827,-1.2915,-1.404,-1.5227,-1.6216,-1.6832,-1.7162,-1.7332,-1.688,-1.6065,-1.5563,-1.4485,-1.315,-1.9712,-1.9236,-1.8771,-1.8211,-1.7609,-1.7036,-1.6522,-1.6273,-1.6071,-1.5807,-1.5535,-1.5404,-1.5536,-1.5374,-1.5669,-1.6696,-1.7303,-1.8036,-1.8889,-2.0217,-2.0914,-2.0776,-2.145,-2.1628,-2.1198,-2.1037,-2.0385,-1.916,-1.7997,-1.6968,-1.5972,-1.4253,-1.3131,-1.249,-1.2088,-1.1815,-1.1695,-1.1379,-1.1368,-1.1594,-1.0977,-1.0924,-1.1064,-1.0746,-1.0908,-1.1409,-1.1468,-1.1415,-1.1362,-1.1884,-1.1788,-1.1605,-1.215,-1.1957,-1.142,-1.1185,-0.9934,-0.8414,-0.7233,-0.7793,-0.8488,-0.7509,-0.7709,-0.8136,-0.7987,-0.8021,-0.8259,-0.9047,-0.9368,-0.9864,-1.1169,-1.1627,-1.2398,-1.4103,-1.5181,-1.6358,-1.8051,-1.9194,-2.0284,-2.1362,-2.179,-2.2156,-2.2624,-2.2481,-2.2291,-2.2104,-2.17,-2.1389,-2.1189,-2.1322,-1.9286,-1.4732,-0.0428,0.7972,0.9649,0.8137,0.5352,0.1325,-0.0378,-0.3052,-0.6512,-0.7183,-0.852,-1.0321,-1.1282,-1.2452,-1.3725,-1.495,-1.578,-1.6313,-1.658,-1.6316,-1.5762,-1.5316,-1.4617,-1.3802,-1.8418,-1.8202,-1.7896,-1.6929,-1.6691,-1.6459,-1.5866,-1.5767,-1.5652,-1.5374,-1.515,-1.5029,-1.5059,-1.4935,-1.4963,-1.5222,-1.5939,-1.6444,-1.6724,-1.7492,-1.8933,-2.124,-2.1337,-2.1119,-2.0595,-1.9969,-1.9417,-1.9012,-1.7183,-1.5913,-1.5148,-1.3882,-1.2836,-1.1968,-1.1932,-1.1297,-1.0253,-1.0554,-1.0614,-1.0527,-1.0381,-1.0419,-1.0591,-1.0791,-1.0809,-1.0799,-1.1126,-1.1351,-1.1516,-1.1813,-1.1984,-1.2174,-1.289,-1.2866,-1.2719,-1.335,-1.2584,-1.1185,-0.9744,-0.9088,-0.8699,-0.8374,-0.8537,-0.8659,-0.8259,-0.8635,-0.9096,-0.9177,-0.9646,-1.0235,-1.0905,-1.1505,-1.2422,-1.4042,-1.5399,-1.6803,-1.8332,-1.8909,-1.9749,-2.1303,-2.1048,-2.1305,-2.2746,-2.3076,-2.3062,-2.2671,-2.2045,-2.1426,-2.0879,-2.0232,-1.7674,-1.2856,-0.5276,0.0253,0.3516,0.2663,0.0987,-0.1532,-0.2976,-0.431,-0.5658,-0.7377,-0.8415,-0.9013,-1.0512,-1.1793,-1.2852,-1.395,-1.4807,-1.5433,-1.5807,-1.5794,-1.5492,-1.515,-1.4741,-1.431,-1.6925,-1.6932,-1.6853,-1.6305,-1.6077,-1.5838,-1.5389,-1.5225,-1.5027,-1.4655,-1.4592,-1.4731,-1.5152,-1.4846,-1.484,-1.541,-1.6268,-1.6619,-1.6308,-1.6939,-1.7796,-1.8995,-1.8594,-1.8436,-1.8682,-1.844,-1.7897,-1.7093,-1.6211,-1.515,-1.3908,-1.3084,-1.235,-1.1767,-1.1475,-1.0992,-1.0395,-1.041,-1.0448,-1.0468,-1.0527,-1.0712,-1.1006,-1.1065,-1.1016,-1.0937,-1.1012,-1.118,-1.1431,-1.1641,-1.1886,-1.2151,-1.252,-1.2818,-1.3033,-1.3236,-1.2842,-1.2146,-1.1426,-1.0466,-0.9497,-0.8721,-0.8779,-0.9007,-0.8765,-0.9007,-0.9368,-0.9686,-0.9922,-1.038,-1.1319,-1.17,-1.2361,-1.3935,-1.5003,-1.6035,-1.6966,-1.811,-1.9248,-2.027,-2.0844,-2.1583,-2.266,-2.277,-2.2503,-2.1872,-2.1365,-2.0823,-2.0219,-1.9391,-1.7545,-1.4508,-1.0417,-0.6127,-0.1608,-0.142,-0.2134,-0.3655,-0.4479,-0.5439,-0.6452,-0.7467,-0.8259,-0.8958,-0.9923,-1.1031,-1.2212,-1.3251,-1.4114,-1.4862,-1.5448,-1.5448,-1.521,-1.5285,-1.5181,-1.5034,-1.6212,-1.6287,-1.6268,-1.5928,-1.5772,-1.5549,-1.5133,-1.4873,-1.456,-1.4189,-1.4189,-1.437,-1.4843,-1.4746,-1.484,-1.5413,-1.6053,-1.6231,-1.5821,-1.599,-1.6403,-1.7031,-1.6846,-1.6966,-1.7471,-1.7246,-1.6681,-1.5858,-1.5197,-1.4299,-1.3148,-1.2401,-1.1856,-1.1481,-1.1127,-1.0772,-1.046,-1.041,-1.0448,-1.0584,-1.0732,-1.0964,-1.1276,-1.1172,-1.1113,-1.1033,-1.0888,-1.0954,-1.1132,-1.1612,-1.1822,-1.197,-1.233,-1.2853,-1.3361,-1.3286,-1.3074,-1.2839,-1.265,-1.1729,-1.0593,-0.9545,-0.9485,-0.9607,-0.9377,-0.9448,-0.9637,-1.0,-1.0235,-1.0649,-1.1479,-1.1847,-1.2435,-1.353,-1.4628,-1.5517,-1.6007,-1.7401,-1.8712,-1.9609,-2.0383,-2.1292,-2.2521,-2.2394,-2.1992,-2.1344,-2.0988,-2.0538,-1.9955,-1.932,-1.8197,-1.6461,-1.409,-1.1008,-0.7151,-0.5348,-0.4692,-0.5229,-0.5743,-0.6259,-0.6819,-0.759,-0.8359,-0.9094,-0.9734,-1.0793,-1.2117,-1.2741,-1.3624,-1.4596,-1.5074,-1.5195,-1.5134,-1.5463,-1.5608,-1.5635,-1.6424,-1.6448,-1.6212,-1.561,-1.573,-1.5709,-1.5098,-1.4721,-1.4374,-1.4019,-1.4,-1.4,-1.4,-1.4546,-1.4919,-1.4919,-1.4919,-1.4919,-1.4905,-1.4333,-1.4569,-1.5833,-1.6775,-1.7242,-1.7175,-1.6387,-1.5876,-1.5674,-1.4226,-1.3348,-1.3057,-1.2079,-1.1394,-1.0981,-1.0905,-1.0611,-1.0118,-1.0467,-1.0649,-1.0715,-1.084,-1.1012,-1.1185,-1.112,-1.1033,-1.0878,-1.0822,-1.0697,-1.0746,-1.1775,-1.1815,-1.1638,-1.2448,-1.32,-1.3804,-1.3818,-1.3676,-1.348,-1.3425,-1.2814,-1.1982,-1.1046,-1.0743,-1.0572,-1.0088,-1.0049,-1.0079,-1.0079,-1.0572,-1.1057,-1.118,-1.1982,-1.2661,-1.2881,-1.4311,-1.5505,-1.5773,-1.6816,-1.8156,-1.9593,-1.9506,-2.0152,-2.2278,-2.2126,-2.1719,-2.1324,-2.1096,-2.0748,-2.0233,-2.0079,-1.9438,-1.8232,-1.594,-1.4276,-1.3316,-0.9189,-0.6799,-0.6143,-0.6729,-0.6793,-0.6455,-0.7853,-0.8776,-0.9252,-0.9934,-1.1105,-1.2589,-1.2481,-1.3295,-1.4627,-1.4763,-1.5011,-1.5344,-1.5622,-1.5892,-1.6169,-1.6229,-1.6229,-1.6045,-1.5652,-1.5817,-1.5717,-1.4727,-1.4705,-1.4594,-1.398,-1.398,-1.4047,-1.4132,-1.4317,-1.4601,-1.5062,-1.5064,-1.5006,-1.491,-1.4333,-1.4145,-1.4479,-1.4826,-1.4974,-1.4974,-1.473,-1.4452,-1.4179,-1.3531,-1.2847,-1.2103,-1.1431,-1.084,-1.0322,-1.0457,-1.0312,-0.9932,-1.0467,-1.0687,-1.0715,-1.0687,-1.086,-1.112,-1.1006,-1.0871,-1.0753,-1.0649,-1.0905,-1.1356,-1.1575,-1.1979,-1.2401,-1.2897,-1.3235,-1.3501,-1.3739,-1.3667,-1.348,-1.3493,-1.3151,-1.2579,-1.1483,-1.1019,-1.0725,-1.0322,-1.0273,-1.0302,-1.0302,-1.0457,-1.0857,-1.1802,-1.2295,-1.2857,-1.3795,-1.4657,-1.5301,-1.5622,-1.6373,-1.7318,-1.8471,-1.8923,-1.9612,-2.0788,-2.1148,-2.109,-2.0514,-2.0215,-2.0037,-1.9936,-1.9971,-1.9606,-1.8726,-1.7591,-1.6083,-1.4081,-1.0135,-0.8114,-0.8004,-0.7539,-0.7346,-0.7355,-0.8466,-0.918,-0.9626,-1.0895,-1.1918,-1.2706,-1.3323,-1.4038,-1.4794,-1.5255,-1.5608,-1.5907,-1.6227,-1.6628,-1.7035,-1.6404,-1.6404,-1.611,-1.544,-1.5505,-1.5327,-1.4496,-1.4286,-1.4072,-1.3667,-1.3535,-1.348,-1.3563,-1.3939,-1.445,-1.5044,-1.5159,-1.495,-1.4358,-1.4046,-1.3802,-1.3762,-1.3702,-1.3735,-1.3914,-1.3868,-1.3702,-1.3365,-1.3022,-1.252,-1.1825,-1.1057,-1.0505,-1.0166,-1.0312,-1.0196,-0.9971,-1.0621,-1.085,-1.0774,-1.0784,-1.0881,-1.1006,-1.0919,-1.0833,-1.0774,-1.0715,-1.1029,-1.1501,-1.1616,-1.2258,-1.3087,-1.3361,-1.3484,-1.3573,-1.3754,-1.3674,-1.3514,-1.3514,-1.3323,-1.2943,-1.2126,-1.1616,-1.1207,-1.084,-1.0649,-1.0534,-1.0534,-1.0753,-1.126,-1.2176,-1.2683,-1.3302,-1.4296,-1.4769,-1.515,-1.5448,-1.6207,-1.7003,-1.7845,-1.8501,-1.9157,-1.9933,-2.0261,-2.0269,-1.9845,-1.9619,-1.954,-1.9645,-1.962,-1.923,-1.8453,-1.756,-1.6272,-1.4559,-1.1221,-0.9402,-0.9073,-0.8472,-0.8259,-0.8431,-0.9275,-0.9868,-1.0352,-1.1526,-1.2358,-1.2851,-1.3453,-1.4218,-1.5027,-1.5404,-1.5838,-1.6336,-1.6644,-1.7043,-1.7425,-1.6799,-1.679,-1.6297,-1.5122,-1.5003,-1.4894,-1.4332,-1.3747,-1.3352,-1.3182,-1.2789,-1.2555,-1.2567,-1.3464,-1.4247,-1.4675,-1.5069,-1.4782,-1.357,-1.3573,-1.3594,-1.3581,-1.3263,-1.3263,-1.3721,-1.3547,-1.3365,-1.3079,-1.2638,-1.2282,-1.1957,-1.0905,-1.0418,-1.038,-1.0351,-1.0244,-1.0157,-1.0871,-1.1071,-1.0957,-1.1082,-1.1033,-1.0871,-1.086,-1.0871,-1.0919,-1.0943,-1.1115,-1.1421,-1.1825,-1.2651,-1.3522,-1.365,-1.3812,-1.3859,-1.3747,-1.3641,-1.3607,-1.3459,-1.3323,-1.3129,-1.278,-1.2306,-1.1875,-1.1579,-1.1132,-1.0753,-1.0753,-1.1313,-1.1902,-1.2342,-1.3035,-1.3789,-1.446,-1.4817,-1.5075,-1.5344,-1.6212,-1.7024,-1.7463,-1.8036,-1.8684,-1.9316,-1.9332,-1.9333,-1.9341,-1.9256,-1.9234,-1.9323,-1.9044,-1.8489,-1.7653,-1.6396,-1.5412,-1.4723,-1.2403,-1.0703,-0.9649,-0.9359,-0.9294,-0.9531,-1.0065,-1.0641,-1.1302,-1.19,-1.2507,-1.309,-1.3231,-1.4095,-1.5329,-1.5344,-1.5881,-1.6675,-1.6917,-1.7191,-1.7472,-1.6731,-1.6692,-1.6255,-1.5283,-1.5918,-1.5903,-1.4028,-1.4454,-1.4446,-1.2941,-1.2542,-1.2378,-1.2365,-1.2715,-1.3023,-1.3255,-1.3885,-1.405,-1.3547,-1.3496,-1.354,-1.3586,-1.3135,-1.2916,-1.3012,-1.2826,-1.2532,-1.209,-1.2054,-1.1689,-1.0981,-1.0753,-1.0457,-1.0196,-1.0428,-1.0467,-1.0341,-1.0794,-1.105,-1.1217,-1.1255,-1.1062,-1.0785,-1.1008,-1.1078,-1.1002,-1.0709,-1.1121,-1.185,-1.2354,-1.298,-1.3471,-1.3169,-1.3481,-1.3817,-1.3074,-1.3286,-1.3594,-1.2839,-1.3,-1.322,-1.2685,-1.2527,-1.2372,-1.1707,-1.1356,-1.1132,-1.1029,-1.1013,-1.133,-1.2231,-1.2504,-1.316,-1.4921,-1.5433,-1.5714,-1.5968,-1.624,-1.6336,-1.6079,-1.7057,-1.7486,-1.6936,-1.7928,-1.869,-1.8912,-1.9097,-1.9095,-1.8788,-1.8226,-1.7645,-1.7091,-1.6378,-1.536,-1.4027,-1.3414,-1.2357,-1.0835,-0.9718,-0.9287,-0.9505,-1.005,-1.0816,-1.1695,-1.2471,-1.3147,-1.3742,-1.4508,-1.5005,-1.5359,-1.5826,-1.6382,-1.6917,-1.6993,-1.7288,-1.7681,-1.6747,-1.6723,-1.6358,-1.5541,-1.562,-1.5325,-1.3856,-1.3846,-1.3628,-1.2496,-1.2043,-1.1859,-1.1901,-1.2031,-1.2239,-1.2681,-1.3544,-1.3688,-1.29,-1.3484,-1.3738,-1.3411,-1.3261,-1.307,-1.2815,-1.2318,-1.1945,-1.1689,-1.1726,-1.1468,-1.0926,-1.0485,-1.0254,-1.0235,-1.0108,-1.0147,-1.0273,-1.0592,-1.0964,-1.1244,-1.1067,-1.1169,-1.1372,-1.1276,-1.1266,-1.1271,-1.1254,-1.178,-1.2567,-1.2975,-1.3267,-1.3386,-1.3035,-1.3181,-1.3328,-1.2757,-1.2994,-1.3316,-1.2734,-1.2719,-1.2867,-1.2839,-1.2891,-1.2694,-1.1862,-1.152,-1.1306,-1.0931,-1.0913,-1.1104,-1.1464,-1.1822,-1.2751,-1.4834,-1.5285,-1.5418,-1.5531,-1.5817,-1.5752,-1.5023,-1.5919,-1.6693,-1.692,-1.7714,-1.8156,-1.8038,-1.8164,-1.8003,-1.7453,-1.6923,-1.6395,-1.5861,-1.5431,-1.4668,-1.3578,-1.3167,-1.2513,-1.1655,-1.061,-1.0238,-1.0521,-1.0925,-1.156,-1.2396,-1.309,-1.3598,-1.396,-1.4746,-1.5149,-1.5344,-1.5797,-1.6313,-1.6815,-1.6942,-1.7264,-1.7589,-1.671,-1.6752,-1.6519,-1.5762,-1.5203,-1.4548,-1.3752,-1.2778,-1.2062,-1.1934,-1.154,-1.1292,-1.1389,-1.1422,-1.1686,-1.2276,-1.3055,-1.3351,-1.2888,-1.399,-1.4386,-1.3791,-1.3655,-1.3362,-1.2842,-1.1991,-1.1531,-1.1531,-1.142,-1.1255,-1.0995,-1.0108,-0.9942,-1.0302,-0.9795,-0.9804,-1.0196,-1.0467,-1.0802,-1.1142,-1.0909,-1.1233,-1.1912,-1.1636,-1.1533,-1.1546,-1.1709,-1.2496,-1.3433,-1.3607,-1.3493,-1.3207,-1.297,-1.2753,-1.2556,-1.2425,-1.2627,-1.2841,-1.2603,-1.2449,-1.2447,-1.2864,-1.2975,-1.2746,-1.1799,-1.1476,-1.124,-1.0809,-1.0911,-1.1029,-1.0887,-1.157,-1.2741,-1.4557,-1.4887,-1.4876,-1.4809,-1.5114,-1.5047,-1.4113,-1.4861,-1.5974,-1.7337,-1.7671,-1.7563,-1.7024,-1.6987,-1.6706,-1.6009,-1.5577,-1.5088,-1.455,-1.4178,-1.3737,-1.3192,-1.2521,-1.2204,-1.2179,-1.1534,-1.1352,-1.158,-1.1903,-1.2411,-1.3089,-1.3657,-1.3982,-1.4183,-1.4722,-1.5118,-1.5404,-1.571,-1.616,-1.6649,-1.6942,-1.7167,-1.7313,-1.6552,-1.6552,-1.6376,-1.5781,-1.6005,-1.5558,-1.3579,-1.2029,-1.1077,-1.1087,-1.1155,-1.1136,-1.1019,-1.1148,-1.1217,-1.1151,-1.1248,-1.2648,-1.5696,-1.61,-1.6166,-1.6046,-1.4475,-1.3368,-1.2922,-1.1863,-1.1345,-1.1345,-1.0764,-1.0361,-1.0137,-0.9607,-0.9607,-1.0059,-0.998,-1.0166,-1.0544,-1.0582,-1.0764,-1.1019,-1.1158,-1.1244,-1.1341,-1.2204,-1.2087,-1.1424,-1.0769,-1.2094,-1.4113,-1.4004,-1.3395,-1.2669,-1.2472,-1.2066,-1.166,-1.166,-1.2014,-1.2291,-1.173,-1.2004,-1.2401,-1.2077,-1.2043,-1.192,-1.1325,-1.0988,-1.0911,-1.1205,-1.0826,-1.0724,-1.172,-1.2777,-1.3741,-1.446,-1.4758,-1.4869,-1.4735,-1.4329,-1.3865,-1.332,-1.4116,-1.5004,-1.5683,-1.6465,-1.6715,-1.611,-1.6131,-1.5969,-1.5511,-1.4727,-1.4147,-1.384,-1.3396,-1.3022,-1.2706,-1.263,-1.2455,-1.2113,-1.1897,-1.1652,-1.1451,-1.2053,-1.2694,-1.3301,-1.3993,-1.4631,-1.5139,-1.5448,-1.5594,-1.571,-1.6258,-1.6543,-1.6675,-1.7167,-1.7175,-1.6977,-1.6522,-1.6522,-1.6446,-1.6195,-1.5865,-1.5259,-1.4062,-1.2713,-1.1634,-1.1,-1.0972,-1.1015,-1.0933,-1.0976,-1.1334,-1.2138,-1.3294,-1.461,-1.6015,-1.6367,-1.6296,-1.5782,-1.5045,-1.4292,-1.3537,-1.2551,-1.1872,-1.1524,-1.0725,-1.0229,-0.999,-0.9386,-0.9295,-0.9536,-0.9257,-0.9448,-1.006,-1.006,-1.0408,-1.0916,-1.0794,-1.105,-1.159,-1.1897,-1.2096,-1.2198,-1.2235,-1.3014,-1.4019,-1.4093,-1.3654,-1.3042,-1.2696,-1.2258,-1.1796,-1.156,-1.1682,-1.1745,-1.1266,-1.1535,-1.1902,-1.1693,-1.1503,-1.1148,-1.0389,-1.0317,-1.0444,-1.0478,-1.0774,-1.1357,-1.2469,-1.3967,-1.5124,-1.54,-1.4937,-1.4436,-1.4065,-1.3633,-1.3148,-1.2561,-1.3449,-1.4358,-1.5016,-1.5583,-1.5799,-1.5519,-1.5193,-1.4937,-1.4788,-1.3968,-1.338,-1.3147,-1.2992,-1.2757,-1.2487,-1.2506,-1.2657,-1.2879,-1.266,-1.2193,-1.1489,-1.2378,-1.3055,-1.3576,-1.4266,-1.4831,-1.5315,-1.5609,-1.5565,-1.5419,-1.6065,-1.649,-1.6763,-1.7142,-1.7224,-1.7109]}]]